GFSMW_925_rhum_000.txt.gz
RH
46 39 40 48 54 58 59 67 86 85 82 67 53 46 40 38 33 28 27 24 22 23 23 21 21 22 19 21 23 19 20 26 29 39 31 25 22 32 20 30 17 30 16
51 52 54 61 63 67 68 85 77 71 72 66 58 49 37 32 28 26 22 23 24 23 22 20 20 20 17 16 20 22 24 29 29 40 52 61 41 29 23 30 24 29 27
54 61 75 69 70 74 79 78 69 68 69 60 49 37 32 30 27 24 25 23 23 22 21 20 19 19 18 18 21 20 22 26 23 32 40 60 62 42 34 25 32 26 35
53 62 76 74 70 72 73 73 68 66 60 51 41 33 37 36 32 28 27 25 24 21 20 19 18 18 19 19 19 18 19 20 27 27 30 29 40 56 52 35 33 34 33
53 65 71 67 64 64 66 67 63 56 50 45 36 31 36 38 36 29 26 25 24 21 18 16 17 18 18 18 18 17 18 20 23 26 28 30 34 34 57 47 44 35 34
60 68 66 63 60 58 56 57 54 51 47 40 35 36 38 37 35 29 25 24 23 20 18 17 17 17 17 17 17 18 19 21 23 24 26 31 42 41 44 46 45 39 36
63 70 69 65 58 54 54 52 50 50 45 40 39 39 38 32 28 27 25 23 22 20 19 17 17 16 17 17 18 19 21 23 25 26 27 28 29 35 43 45 39 39 40
62 66 65 60 56 50 46 46 46 46 42 40 39 37 32 28 24 23 22 22 20 20 19 18 17 16 15 16 19 21 24 26 27 27 28 30 30 32 34 41 47 55 45
65 68 67 61 58 52 46 43 42 41 39 38 35 30 27 27 25 22 22 21 20 19 17 16 15 14 15 20 23 26 27 28 28 31 32 33 34 38 43 45 49 56 68
68 70 64 63 58 50 47 43 40 38 35 32 30 28 26 25 23 22 22 20 19 18 16 15 13 15 19 24 27 29 30 31 32 33 34 38 46 52 54 55 58 60 63
68 69 67 64 60 52 46 42 38 35 32 30 28 26 24 22 22 22 21 20 18 17 15 14 16 19 23 27 29 31 32 33 33 34 40 48 53 59 62 67 66 64 62
64 68 70 70 63 56 48 42 36 32 29 26 24 23 22 22 22 23 22 20 18 17 16 18 20 24 27 29 31 31 32 35 37 41 47 54 59 61 66 70 70 68 66
66 72 74 69 64 59 50 42 36 31 27 25 24 22 22 22 24 23 22 21 18 17 20 21 24 28 30 31 30 34 39 39 42 46 53 55 57 64 70 70 73 70 71
63 69 71 70 65 57 49 41 35 30 27 26 24 23 23 24 24 24 23 20 20 21 21 25 29 31 33 31 35 42 42 43 43 46 51 55 57 65 69 66 64 62 64
66 69 70 70 64 60 49 40 31 26 25 25 25 24 25 25 26 25 23 22 22 23 26 30 33 33 32 34 46 45 44 43 42 43 48 52 57 64 62 59 62 65 74
63 66 66 68 65 61 49 38 31 27 25 26 26 26 27 26 26 25 23 22 22 27 32 35 34 33 32 41 46 47 45 42 43 45 51 54 60 64 64 64 62 64 69
64 67 66 65 63 57 45 36 30 28 27 28 28 28 27 27 26 24 23 22 27 33 35 34 34 33 31 44 47 50 52 50 55 56 56 60 66 71 75 75 71 71 71
69 69 67 65 58 51 42 36 30 28 28 29 28 28 27 26 25 24 24 27 33 36 36 35 35 34 35 46 52 60 62 64 63 63 63 67 73 75 68 65 71 95 81
75 69 62 59 52 46 38 33 29 28 29 29 28 27 26 25 25 25 26 33 37 37 37 36 36 38 41 46 56 63 65 67 67 67 67 70 72 72 64 91 96 69 63
61 59 54 49 44 40 36 33 31 31 30 28 27 27 26 26 26 27 33 37 38 38 37 39 40 44 46 49 60 64 66 69 71 72 79 80 70 73 97 70 64 66 68
56 49 46 43 40 36 34 32 32 31 29 27 27 26 26 26 28 33 36 40 39 39 41 44 48 51 53 55 62 65 66 71 73 80 90 84 85 88 60 60 65 67 66
56 47 42 38 34 33 34 32 31 29 27 27 26 27 27 27 34 36 40 40 42 46 49 53 55 57 58 60 64 66 66 73 81 79 74 95 76 63 61 66 66 68 72
49 44 40 39 36 34 34 33 31 28 28 27 27 27 27 36 37 42 42 43 48 52 57 60 60 62 62 62 63 69 69 62 64 78 95 76 64 63 68 71 72 71 80
45 40 40 40 36 34 36 36 30 29 27 27 28 29 32 44 42 44 45 52 56 58 64 63 64 66 66 66 65 66 63 68 88 75 77 65 64 67 72 73 73 76 81
45 41 41 38 36 33 33 33 30 28 28 28 29 31 39 44 45 46 51 58 58 61 62 63 64 67 69 67 63 62 68 68 67 68 67 67 71 78 77 76 77 80 86
49 48 43 36 33 33 33 32 30 28 28 28 31 40 45 46 48 51 52 49 61 62 62 63 64 67 66 64 65 67 66 68 67 70 69 73 79 81 80 82 86 89 88

GFSMW_925_rhum_003.txt.gz
RH
44 42 44 47 54 54 57 73 86 94 92 80 74 61 59 50 42 37 30 24 23 25 25 24 22 19 16 18 16 14 14 18 23 33 26 24 27 33 28 22 20 22 23
50 48 50 57 61 56 57 80 88 86 80 73 70 64 47 35 29 24 24 25 26 24 24 23 20 18 15 15 16 18 17 18 28 36 54 60 41 34 17 23 21 28 18
51 56 72 73 70 70 70 86 78 76 78 69 61 50 33 28 25 24 25 25 25 24 23 22 19 16 15 16 18 19 21 25 21 39 32 47 59 49 30 20 30 21 35
51 61 81 82 81 79 82 78 74 75 72 64 57 44 31 27 26 26 26 25 24 23 22 19 17 16 16 16 18 18 20 23 29 24 24 26 37 59 58 34 28 34 34
52 60 74 77 78 81 82 72 71 71 65 61 58 39 29 28 29 28 27 26 24 21 19 17 16 15 16 17 16 17 20 22 25 29 31 31 30 31 62 44 41 38 34
56 68 77 74 77 77 78 70 68 65 59 57 48 38 30 32 30 28 26 25 23 21 19 17 16 15 15 15 16 19 21 24 26 27 28 32 42 46 48 52 45 42 34
66 78 78 78 75 74 72 67 65 58 52 49 40 31 34 35 30 28 26 25 23 22 20 18 16 16 15 16 19 21 24 26 28 28 30 31 34 35 40 46 46 45 42
62 72 74 72 70 69 68 64 60 54 49 42 36 37 38 37 31 28 26 24 22 21 19 18 17 16 16 18 22 25 27 28 29 30 32 34 34 42 48 52 56 61 48
66 71 72 66 65 63 61 59 56 52 47 41 42 42 37 31 28 25 23 23 22 20 18 17 16 16 18 22 26 28 28 29 30 33 34 36 43 50 53 58 61 66 77
68 71 67 64 61 58 55 54 52 49 46 43 40 35 30 26 25 23 23 22 21 19 17 16 16 18 22 26 28 29 28 30 33 36 38 42 49 53 56 58 64 72 75
71 71 65 64 61 54 51 48 47 44 41 37 32 28 26 25 23 23 22 22 20 18 16 16 19 22 26 28 29 28 30 36 38 40 43 47 51 54 56 58 69 76 77
72 68 68 70 64 55 48 44 40 36 33 30 27 26 24 23 23 23 23 21 20 18 18 20 23 27 29 30 30 32 39 41 43 43 45 48 51 56 58 61 71 76 77
76 80 74 68 66 59 49 42 37 33 29 27 25 24 23 23 24 24 23 22 20 20 21 24 29 31 32 31 30 43 44 44 44 43 45 47 54 57 58 64 69 74 77
75 77 74 74 68 59 49 40 34 30 26 25 24 24 23 24 26 25 25 22 21 22 25 30 33 32 32 30 44 48 48 46 45 44 46 50 55 60 65 67 67 73 71
78 76 76 74 68 59 48 40 33 29 27 26 25 25 25 26 27 27 24 22 22 26 32 34 32 32 31 34 50 52 53 55 54 56 56 56 61 65 62 62 65 63 67
72 74 71 71 68 58 46 36 32 28 27 26 27 26 27 28 28 26 23 23 26 33 35 34 34 33 32 40 53 58 64 63 63 63 63 63 64 65 61 62 62 65 70
70 72 71 69 67 53 42 34 30 28 27 28 28 29 28 29 27 25 24 25 33 36 36 35 35 34 36 51 54 60 66 64 63 63 63 64 66 67 72 73 78 92 98
70 71 72 69 58 47 40 33 30 28 29 30 30 30 29 27 26 25 26 33 37 37 37 36 37 39 42 54 56 62 65 64 64 62 64 68 72 78 72 92 94 82 69
72 71 67 62 52 44 37 32 30 31 32 32 31 29 28 26 27 28 34 37 38 38 37 39 40 46 48 53 61 65 64 65 67 69 72 75 84 76 88 76 70 68 68
66 64 58 53 46 40 35 32 32 32 32 31 29 28 27 28 29 33 38 39 39 39 41 41 46 50 54 56 65 66 66 70 72 76 81 85 75 74 78 63 67 75 73
56 53 50 47 41 36 34 33 33 33 31 29 29 28 29 30 34 37 39 40 40 42 44 49 52 57 58 59 67 68 67 69 74 71 68 76 85 67 64 62 70 74 86
50 47 45 43 38 36 34 35 35 31 29 29 29 29 30 34 35 36 40 42 46 48 54 60 62 61 61 63 69 70 67 66 63 76 81 95 77 67 65 69 72 73 76
48 45 44 40 36 34 36 36 32 30 30 29 29 30 34 37 38 42 43 44 49 57 64 67 65 67 67 67 70 73 69 64 74 80 74 80 69 67 70 75 74 74 81
48 45 41 41 38 36 37 37 31 30 29 30 30 31 31 41 44 45 46 52 59 64 69 69 69 71 72 72 69 71 68 83 76 75 77 68 67 70 75 78 77 80 83
48 42 42 40 39 38 36 33 31 29 29 29 29 31 40 44 46 48 53 58 61 65 66 67 67 71 74 72 67 66 79 67 72 69 71 70 74 81 81 81 82 84 88
47 43 40 38 38 36 35 32 30 29 28 27 31 43 46 48 50 54 54 52 65 67 66 65 67 69 70 68 68 74 68 70 71 74 73 79 82 85 86 88 90 91 91

GFSMW_925_rhum_006.txt.gz
RH
43 36 34 42 56 59 68 82 89 94 90 89 83 75 74 71 66 57 46 33 24 26 28 28 25 20 17 15 13 12 12 17 23 23 18 21 26 27 32 15 21 22 19
48 47 47 54 60 63 74 90 94 94 89 84 80 80 70 56 48 36 26 25 26 27 28 27 23 18 15 14 13 14 15 18 27 25 47 55 30 19 15 19 19 14 20
52 51 58 61 64 67 71 93 95 87 82 79 70 66 48 36 29 27 26 26 26 27 27 23 20 17 14 14 16 17 18 23 21 35 29 40 48 57 28 20 24 24 28
51 51 60 76 73 70 69 84 88 79 80 70 68 63 40 30 27 26 26 26 25 25 23 21 18 16 15 14 16 18 21 23 28 24 24 26 33 51 58 31 25 33 31
50 54 60 61 77 76 79 79 78 77 72 68 67 52 39 27 26 27 26 25 24 22 21 19 17 15 14 14 15 18 21 24 27 29 31 32 32 43 55 45 43 38 36
57 55 63 79 84 86 80 76 74 71 65 63 59 60 41 27 27 28 27 25 23 22 20 18 17 15 14 14 16 20 23 26 27 28 31 34 40 46 48 60 47 47 40
64 81 90 88 92 92 80 74 72 66 62 65 60 58 37 27 28 29 28 26 24 22 20 18 16 15 15 16 19 22 25 27 28 30 31 32 35 38 45 52 56 56 49
70 79 79 82 89 91 81 74 71 66 59 57 50 42 31 28 29 29 27 26 24 22 20 18 17 16 16 19 23 25 26 27 28 31 34 35 36 42 49 55 63 66 55
74 80 86 85 87 86 80 73 70 64 56 52 44 37 34 32 30 29 27 24 22 21 20 18 16 16 19 23 26 26 26 27 31 35 37 40 41 46 51 53 58 72 77
72 84 87 83 79 80 75 71 69 61 53 47 41 42 41 36 32 28 24 23 22 20 18 17 17 19 24 27 27 26 27 32 35 39 42 43 45 48 51 54 57 63 80
71 82 78 74 72 71 69 67 63 56 50 46 44 40 33 29 25 24 23 22 21 20 18 18 20 24 28 29 28 28 33 37 40 42 43 43 44 48 53 56 58 65 76
83 78 75 72 68 64 61 59 55 51 46 42 36 30 27 25 24 23 23 22 21 19 18 20 25 29 30 29 28 33 40 46 46 45 45 45 46 52 55 59 63 70 72
83 82 74 70 65 60 54 50 48 43 37 32 29 26 24 24 24 24 24 23 21 20 21 26 30 30 29 28 29 45 50 50 51 51 51 53 56 58 60 65 73 73 77
82 77 73 70 64 56 48 42 38 34 30 28 26 25 24 24 25 25 25 22 21 22 28 32 32 31 30 29 36 52 55 59 61 60 59 58 61 67 69 70 65 66 67
81 74 76 73 65 55 44 38 32 29 27 26 25 25 26 26 27 27 24 23 24 30 34 33 32 32 32 32 53 57 59 65 65 58 56 58 66 70 65 63 64 68 73
77 75 72 70 63 52 44 36 30 28 26 26 26 27 27 29 28 26 24 24 30 34 35 34 34 34 34 36 57 59 61 67 64 63 61 62 64 67 71 70 72 75 99
80 75 72 68 62 49 40 35 30 28 27 28 28 29 30 30 28 26 26 29 33 36 36 36 36 35 37 50 60 61 64 66 64 65 66 69 70 73 77 76 81 96 78
76 76 74 68 54 44 38 34 30 29 29 30 31 31 30 29 28 26 29 33 36 36 36 37 37 38 40 60 61 65 67 67 66 67 68 74 76 80 78 88 97 75 72
75 75 69 60 49 42 36 32 31 31 32 32 32 31 29 28 28 29 33 36 36 37 38 39 39 44 49 55 66 69 69 69 68 68 78 81 79 78 78 87 76 72 74
72 69 60 52 45 39 34 33 35 34 34 33 31 30 28 28 29 34 35 37 38 40 40 37 43 50 54 53 70 70 71 73 73 76 69 73 74 72 87 72 69 77 74
63 58 53 48 42 37 34 36 35 35 33 31 30 29 29 31 34 35 37 39 40 40 40 48 49 52 57 61 71 71 71 71 72 69 81 85 80 78 66 64 71 77 88
55 51 48 45 40 36 34 36 36 34 31 30 30 30 33 34 34 36 39 41 42 44 50 58 58 60 62 67 73 73 71 68 70 83 83 81 77 70 67 72 76 77 77
51 47 45 43 38 36 35 37 35 32 30 30 30 34 36 34 36 38 42 45 48 52 63 70 70 69 71 68 73 77 75 70 80 76 75 82 73 69 74 78 79 78 84
48 44 43 44 42 38 37 34 32 31 30 31 32 33 40 36 41 44 46 48 52 59 68 72 73 73 74 75 73 73 71 93 73 79 78 75 70 74 78 81 82 84 86
48 45 45 46 43 37 35 33 31 30 30 30 30 35 38 42 46 47 48 50 54 67 68 68 68 72 75 73 69 68 91 69 75 71 76 74 80 83 84 84 85 86 89
48 47 46 43 40 36 34 32 31 30 28 29 34 45 45 48 46 47 49 48 55 67 66 65 67 70 71 71 72 78 71 72 74 78 78 84 86 89 89 90 91 93 93

GFSMW_925_rhum_012.txt.gz
RH
29 31 31 32 33 33 36 41 53 66 76 96 92 92 84 92 89 88 86 73 59 39 32 32 30 29 26 25 24 26 26 27 26 20 21 24 30 39 38 20 22 26 26
26 27 30 30 32 33 41 49 60 72 79 88 90 92 82 75 74 82 65 56 35 28 32 33 30 28 28 28 28 29 26 27 28 23 25 21 19 21 25 24 24 21 22
24 25 24 27 33 36 43 56 71 75 79 90 82 76 67 66 63 51 41 34 28 31 32 30 29 29 30 31 30 29 26 25 29 27 22 20 20 20 20 23 23 22 22
22 23 24 24 28 37 47 68 82 76 83 84 71 66 67 64 51 49 37 30 30 33 30 29 30 29 30 31 27 28 28 27 26 27 26 25 24 21 23 21 22 24 25
21 24 24 24 27 35 58 81 80 79 83 78 71 71 65 60 45 43 31 31 34 32 29 30 29 29 29 29 29 30 29 29 28 29 28 27 27 29 30 29 23 25 27
25 25 28 27 28 39 66 82 79 80 78 77 73 68 60 48 43 38 34 33 33 32 31 30 30 29 30 31 32 34 34 32 32 32 32 31 29 27 29 29 28 30 29
24 25 29 34 36 53 70 78 78 77 76 72 67 59 53 55 39 36 33 31 31 31 31 29 28 29 31 31 32 34 34 33 32 32 31 34 35 34 34 34 33 32 32
30 24 28 35 41 56 66 74 74 71 72 69 60 55 53 47 36 34 32 30 30 30 30 28 27 27 28 30 32 33 34 34 34 38 38 38 37 38 39 39 40 39 30
37 34 29 39 44 56 64 67 69 69 68 63 57 52 52 41 37 34 32 31 31 30 28 28 28 28 29 30 31 31 31 34 37 37 39 41 41 42 42 43 43 42 42
34 37 33 40 49 57 62 64 65 65 62 58 53 55 44 42 37 34 33 32 29 27 28 28 29 29 30 31 32 32 34 34 36 40 43 43 42 42 43 44 44 44 44
41 43 38 41 54 62 65 65 63 64 64 60 60 54 43 38 33 32 31 29 27 28 27 28 28 29 30 32 31 32 35 39 42 44 48 50 47 44 41 42 44 45 46
48 52 47 53 62 66 67 65 64 66 65 61 62 50 41 34 32 30 28 27 27 27 28 29 30 31 32 32 30 32 38 42 45 47 51 51 43 43 42 44 46 48 50
50 56 60 61 63 66 67 66 66 62 56 54 42 38 34 32 29 28 27 28 29 30 31 32 32 33 35 33 32 34 40 45 48 51 52 50 45 44 43 46 51 54 53
55 58 61 60 63 66 64 61 55 52 49 44 38 34 31 29 28 29 29 30 31 32 33 34 35 36 35 36 36 44 48 49 52 56 56 54 51 52 54 56 55 52 54
52 62 64 61 62 61 55 54 50 44 40 37 34 32 30 30 31 32 32 33 34 36 36 36 36 37 36 34 50 52 52 52 52 52 53 51 56 71 74 69 63 61 64
53 64 62 59 59 51 49 49 43 42 36 33 34 34 34 34 35 34 35 38 39 38 38 38 38 38 36 35 65 64 54 50 52 51 50 52 60 60 67 65 68 71 87
65 64 59 56 52 47 46 46 45 38 34 34 35 35 36 36 35 36 37 39 38 38 37 38 38 38 40 51 66 66 58 54 52 57 59 57 56 63 62 70 71 80 92
67 61 55 50 45 44 42 39 35 34 34 35 36 36 36 35 35 35 37 38 36 37 37 38 40 41 42 44 67 70 58 54 55 58 59 58 60 60 71 75 91 93 69
59 56 52 42 38 36 34 34 34 34 35 36 36 35 34 34 36 37 37 37 36 37 39 41 42 40 42 59 70 72 57 52 54 55 55 61 64 69 69 88 92 61 52
59 50 43 38 35 34 34 33 34 34 36 36 36 34 34 36 38 39 37 40 39 40 41 42 43 47 45 53 72 70 60 55 53 53 55 59 70 64 84 78 61 60 58
53 45 40 36 35 34 34 33 34 36 37 36 35 36 37 37 38 37 38 40 41 41 38 40 41 46 50 53 67 73 68 59 58 57 60 60 60 75 69 69 64 63 78
49 43 40 38 36 35 35 36 37 37 36 36 38 39 38 38 37 38 41 44 42 38 37 39 38 41 45 52 60 74 74 70 65 71 62 61 70 72 70 69 71 78 80
46 42 40 38 36 36 37 38 37 36 38 39 40 40 39 40 41 40 43 41 42 39 41 42 41 41 45 48 59 68 65 64 84 66 67 69 70 68 65 66 79 77 68
44 42 39 38 37 37 37 36 37 38 39 39 39 39 38 41 44 45 46 42 41 42 45 44 44 44 47 49 56 61 61 70 63 65 68 65 65 61 65 66 65 67 69
42 41 40 40 39 37 36 37 38 39 40 42 42 41 42 43 43 46 49 48 48 56 52 47 49 50 50 54 70 72 71 72 68 74 63 56 55 59 63 65 68 70 73
44 43 41 39 38 37 37 38 38 37 37 37 38 42 44 45 45 44 42 44 37 48 62 64 66 60 64 70 75 75 75 74 76 71 58 58 63 66 70 74 78 83 86

GFSMW_925_rhum_015.txt.gz
RH
20 22 24 23 20 22 24 27 27 37 41 54 83 87 87 89 86 80 78 78 76 51 40 35 32 30 29 28 27 28 29 30 27 23 24 24 28 36 34 32 22 24 23
19 20 22 26 26 25 28 28 32 38 47 63 87 91 87 83 76 70 77 76 64 45 36 34 32 32 31 32 33 32 29 30 29 25 26 28 22 23 22 22 23 21 22
19 18 19 21 27 27 28 29 34 44 54 78 88 90 84 73 66 62 69 62 51 36 35 35 34 34 35 36 34 33 30 30 30 28 25 28 28 23 18 23 22 24 23
17 17 17 18 22 27 30 31 38 48 57 73 81 83 74 69 64 60 58 42 33 33 35 35 35 35 35 35 31 31 31 29 29 28 25 26 24 26 28 20 23 22 24
16 16 17 19 20 22 31 38 44 56 62 74 76 75 67 69 60 51 41 32 33 34 33 34 34 34 34 32 34 34 31 30 28 30 30 28 27 28 29 36 28 27 26
16 18 18 18 21 24 32 44 53 60 63 74 72 66 66 58 52 44 38 35 35 34 34 34 34 34 35 36 35 34 35 33 32 32 32 32 32 29 31 35 33 32 31
19 20 20 22 26 27 32 52 62 62 68 73 68 66 66 55 53 45 42 36 34 33 34 33 33 34 35 34 35 36 35 34 33 33 32 32 34 34 34 36 38 38 36
25 30 29 21 26 33 38 54 63 62 70 71 70 69 60 56 51 44 38 34 33 33 34 31 30 32 32 33 34 35 35 34 36 38 40 39 38 38 39 40 42 46 40
28 29 31 28 23 31 38 55 61 65 69 73 69 61 55 50 45 39 34 32 32 32 31 30 30 30 30 30 31 31 30 33 34 38 38 40 40 40 41 42 43 44 51
26 29 33 32 28 34 43 54 59 63 69 68 57 54 52 45 39 35 32 31 32 30 31 30 30 30 30 30 31 32 31 33 34 37 40 42 42 41 42 42 42 42 44
32 34 37 35 31 39 47 52 57 62 68 58 53 51 48 45 37 34 32 32 29 30 29 30 30 29 30 30 29 29 32 34 37 40 43 47 48 46 40 40 40 42 44
32 36 41 39 37 46 52 54 58 62 60 54 50 48 47 38 36 33 30 28 29 28 28 28 28 29 30 29 28 28 31 35 38 41 45 49 44 43 40 40 40 42 44
25 34 41 47 47 53 55 56 57 59 58 53 50 43 38 35 32 29 28 28 28 29 29 30 30 30 33 31 30 29 32 36 41 44 46 47 48 46 42 44 47 51 53
32 42 50 49 52 55 56 58 60 61 56 50 47 41 36 31 29 27 28 29 30 31 32 32 33 34 32 33 33 38 42 45 46 48 48 48 50 49 50 60 62 59 60
46 44 54 52 53 62 59 58 58 52 48 46 44 40 33 30 30 30 30 31 32 33 34 34 34 35 34 30 41 52 51 48 45 45 45 45 46 56 63 67 68 68 67
54 47 55 54 64 57 54 52 48 44 45 47 44 35 32 32 33 32 34 36 36 36 36 35 34 36 33 36 52 68 59 50 46 46 45 49 55 52 56 61 62 64 67
57 55 57 57 54 51 50 45 48 50 52 50 43 39 36 36 36 37 38 38 37 36 35 35 34 34 37 39 62 67 63 54 48 50 54 55 52 55 58 60 62 71 74
62 58 55 52 48 49 53 50 58 49 50 50 46 38 39 39 38 37 37 36 35 35 34 34 35 38 39 39 58 69 63 49 48 49 52 52 53 56 60 68 82 85 82
56 52 47 50 57 65 74 81 81 66 53 46 40 39 38 35 37 36 36 35 34 34 33 36 38 36 35 42 63 72 60 50 49 48 48 51 55 58 61 67 87 82 63
52 44 44 48 53 53 46 48 60 56 52 52 37 34 35 37 38 38 36 35 36 36 38 39 38 38 41 42 60 68 62 56 52 52 52 52 57 59 62 74 71 71 66
72 73 68 70 60 47 48 37 34 34 34 33 34 36 37 36 36 35 35 34 38 38 35 35 34 36 39 45 54 65 71 64 64 61 60 64 58 63 66 67 70 68 68
40 36 34 33 32 33 34 35 35 34 35 37 37 37 36 34 34 35 36 39 38 35 32 32 32 34 36 41 48 62 69 66 63 65 71 64 65 66 67 68 66 71 75
39 37 35 35 35 36 36 36 36 37 38 38 38 37 36 36 35 38 40 39 37 34 34 36 37 36 38 40 46 55 61 62 65 70 64 67 66 65 61 60 67 68 66
39 37 36 36 37 37 37 38 38 38 38 38 38 37 36 36 41 42 41 38 36 34 37 36 38 39 40 42 48 62 68 65 73 69 72 68 60 52 56 59 62 64 68
40 38 39 39 37 36 37 37 38 39 39 38 38 40 40 38 40 42 42 42 41 45 49 46 49 48 48 51 68 72 72 74 74 70 74 61 52 57 59 63 67 71 77
42 42 40 38 36 36 37 38 39 39 37 35 36 38 41 42 42 40 38 40 35 32 44 64 65 61 62 66 74 75 74 74 74 75 64 55 61 65 67 73 78 84 88

GFSMW_925_rhum_018.txt.gz
RH
24 21 21 21 21 19 19 24 26 29 49 83 87 91 83 76 77 82 82 80 73 72 50 39 34 29 27 27 28 29 29 28 20 22 23 26 25 36 34 34 29 23 22
25 24 21 22 23 24 21 23 26 29 33 66 81 90 88 86 84 87 84 78 74 53 45 38 31 30 29 30 30 30 29 30 23 24 30 41 31 26 23 27 23 24 21
24 23 24 21 24 26 26 26 26 31 35 40 73 90 92 87 83 80 77 70 53 45 40 34 31 30 32 33 32 29 29 30 29 22 26 39 42 32 22 22 24 22 24
23 23 22 21 22 28 26 28 29 29 36 54 87 89 85 79 73 72 67 54 45 39 36 33 32 33 34 33 32 30 28 29 29 28 26 24 25 39 43 25 23 25 27
23 23 24 20 17 18 28 27 29 33 45 73 88 88 83 78 70 66 68 45 38 36 35 34 34 34 35 30 30 31 28 26 28 28 29 29 28 28 38 51 38 29 28
20 22 21 21 22 19 18 33 31 36 53 76 89 86 79 73 62 62 51 38 35 34 34 34 34 34 34 33 31 29 29 28 29 29 31 32 34 36 38 50 44 42 37
22 25 36 40 30 23 23 22 39 44 55 74 84 81 75 69 62 57 47 38 35 34 35 34 34 34 34 33 32 32 31 32 31 32 32 32 33 35 35 39 48 53 44
23 30 33 40 37 31 26 36 46 56 61 75 78 74 71 61 63 58 46 38 37 35 36 35 33 34 32 31 32 32 32 32 32 35 36 39 39 40 40 42 47 57 53
28 28 32 38 38 36 34 35 55 62 64 75 71 69 64 61 60 52 42 38 36 35 34 32 32 32 31 30 31 32 31 31 33 34 38 38 40 40 41 42 43 50 60
30 32 38 41 39 37 33 48 59 64 70 75 71 64 62 60 55 46 39 37 35 35 31 30 30 30 30 29 29 32 31 31 32 35 37 39 43 44 45 45 42 42 47
35 41 42 43 43 39 34 44 57 64 73 69 62 59 58 54 43 39 37 34 33 32 30 30 30 30 30 30 30 30 30 32 34 37 39 42 46 49 46 42 41 41 42
31 38 42 46 47 43 41 51 56 74 62 60 57 52 50 44 39 36 34 31 31 30 30 30 29 29 29 28 28 28 29 32 34 38 41 44 47 47 47 44 42 45 48
29 33 49 51 51 52 48 53 67 69 56 56 53 48 42 38 37 34 32 31 30 29 29 28 29 30 30 30 30 29 30 34 38 42 45 47 49 50 50 49 52 58 63
45 45 56 56 55 62 71 80 70 57 53 52 50 44 41 38 34 32 30 29 28 29 29 30 31 31 31 30 31 35 42 46 48 47 47 47 47 47 49 54 60 67 69
61 56 55 58 65 79 80 76 60 56 50 45 42 39 37 36 32 30 30 30 30 32 32 33 32 31 31 30 30 32 46 50 50 47 45 46 46 55 58 60 60 64 68
68 63 56 63 68 63 61 63 58 54 50 44 40 36 35 35 33 32 32 33 33 34 33 34 35 32 31 31 34 61 50 45 52 50 49 49 53 55 56 59 60 61 65
70 66 60 65 54 52 53 53 51 51 49 46 49 51 58 60 58 40 39 37 38 36 34 32 31 34 35 37 36 64 56 49 53 50 49 51 54 54 54 57 63 65 75
64 61 56 52 53 49 55 59 60 63 72 73 80 85 86 81 58 41 38 36 35 34 33 31 32 34 39 38 40 64 52 56 53 50 49 50 50 52 58 60 63 72 75
54 51 53 56 58 65 63 65 71 78 80 90 97 86 74 64 53 48 38 35 33 31 33 33 36 36 37 43 52 66 65 62 58 55 54 54 56 59 60 63 65 77 75
48 59 64 76 81 87 88 83 84 90 88 89 78 70 62 42 36 35 34 34 34 33 30 37 37 37 37 41 52 63 68 71 66 65 64 62 63 63 62 64 71 75 75
76 76 74 81 85 97 96 96 98 99 97 86 58 45 40 37 36 34 33 33 30 35 35 34 33 34 37 40 47 56 66 71 69 67 65 68 68 65 66 66 69 70 68
90 91 92 94 95 92 77 47 37 38 39 38 38 36 36 35 33 32 32 36 37 34 32 32 34 35 36 39 44 51 60 64 65 65 71 70 70 69 68 66 63 66 69
39 39 42 45 45 41 37 40 40 39 38 38 36 34 34 34 34 37 39 37 35 34 36 37 38 38 39 41 46 58 64 70 69 70 73 71 73 71 62 57 62 66 65
41 40 39 39 39 38 39 40 40 39 38 37 35 34 35 36 38 39 38 36 35 37 40 41 44 44 46 47 51 65 73 74 72 79 74 77 69 60 59 63 64 69 73
42 40 40 40 40 40 39 40 39 39 36 36 38 39 40 40 40 40 39 39 42 34 33 46 52 57 59 60 67 74 76 73 74 71 76 69 61 65 70 72 74 79 84
43 42 41 40 40 40 41 41 40 39 38 38 39 40 41 41 40 39 37 37 37 33 35 38 56 61 64 68 73 76 75 74 74 73 65 62 64 74 78 79 83 88 91

GFSMW_925_rhum_021.txt.gz
RH
32 26 23 22 20 18 20 22 43 66 71 82 88 81 74 78 76 64 65 68 67 64 68 57 43 37 28 26 28 29 30 24 20 20 25 28 31 33 30 31 32 24 23
31 29 23 22 22 23 20 20 24 60 75 75 84 83 83 86 72 67 66 73 69 70 64 54 43 32 27 28 30 31 31 29 21 22 36 39 30 27 27 31 24 24 22
31 30 29 21 20 21 22 23 25 41 72 76 89 84 95 94 87 80 74 76 74 69 63 50 41 30 29 32 32 31 31 30 26 20 24 35 39 35 24 25 26 24 26
26 25 26 26 20 19 20 24 25 28 52 76 89 85 92 92 85 83 80 82 77 62 47 41 35 30 32 35 34 31 31 30 28 27 24 22 24 35 33 26 24 27 28
30 28 28 24 19 19 17 18 27 27 36 67 76 82 92 91 84 82 82 77 58 43 40 37 32 32 34 34 34 32 30 28 27 26 26 27 29 30 38 48 38 28 26
24 24 23 26 27 25 24 20 21 30 32 50 72 84 90 87 80 76 67 57 42 38 37 34 32 34 35 34 34 32 30 27 26 26 27 28 32 37 38 52 50 45 38
21 27 35 38 35 34 33 31 28 29 43 65 74 87 84 82 79 76 65 49 42 38 35 34 34 35 34 34 32 32 30 29 28 29 30 31 32 35 37 42 50 58 44
23 34 37 42 40 37 34 36 36 36 51 88 86 84 85 80 79 74 66 55 45 41 38 35 35 34 34 34 33 32 32 30 28 30 32 34 36 39 41 43 48 66 57
25 39 40 42 40 35 31 38 40 44 49 90 88 86 84 80 77 72 65 53 42 40 37 34 34 35 34 32 32 32 32 30 30 32 34 37 39 41 42 43 44 52 69
29 40 45 44 41 39 36 38 36 52 57 74 79 82 81 80 75 68 54 45 44 40 36 36 34 34 32 32 31 31 30 30 31 34 36 38 40 42 44 47 45 42 49
38 46 46 47 42 37 36 43 43 59 70 77 76 78 75 72 68 62 50 49 40 38 36 38 44 34 31 30 31 31 30 31 32 35 38 40 43 45 47 46 45 44 44
42 43 46 50 48 44 39 45 51 75 68 73 72 72 67 64 59 52 46 42 38 38 38 36 31 30 30 30 29 29 29 30 33 35 39 42 45 47 48 49 49 48 51
48 52 56 59 57 52 52 56 68 68 67 69 67 59 57 55 45 41 38 39 42 41 45 31 30 30 29 29 28 28 28 30 36 42 46 47 49 50 49 50 52 52 57
62 58 68 66 62 77 87 82 72 67 66 67 61 57 49 42 40 38 38 39 36 37 31 31 30 30 30 30 30 30 34 42 47 48 47 46 47 47 50 54 58 61 64
77 75 71 72 88 92 84 75 73 78 72 61 56 53 44 44 41 38 35 35 35 35 31 30 31 31 31 31 32 29 35 38 37 38 44 48 48 53 59 60 60 62 64
71 72 71 74 76 85 88 82 78 68 78 57 52 47 46 45 48 48 52 54 34 31 34 32 31 32 32 31 33 40 38 31 35 46 48 49 50 50 60 59 58 61 64
68 70 71 62 65 78 94 99 87 68 48 47 48 55 61 67 62 53 47 51 42 35 34 34 32 32 34 38 42 50 39 36 45 51 52 51 51 54 51 54 62 62 68
67 63 58 55 63 70 84 82 85 76 74 76 78 78 76 72 62 69 74 71 65 53 50 34 33 37 51 44 46 58 44 43 50 56 57 57 57 60 64 62 64 66 67
57 58 61 66 68 72 81 85 88 88 90 91 92 94 86 91 94 94 84 70 74 52 33 35 38 36 44 45 48 54 55 53 57 60 60 65 65 67 66 65 66 69 75
70 73 78 83 78 81 85 89 96 98 100 100 100 96 95 92 83 74 72 42 33 35 35 37 36 35 35 44 49 58 61 62 65 68 67 66 70 68 68 68 71 74 70
76 83 90 96 99 99 97 98 98 100 100 95 92 93 88 78 67 44 35 35 32 35 34 33 34 36 38 40 47 51 58 62 70 69 68 70 75 71 70 69 69 67 65
90 94 97 100 100 100 96 99 100 100 97 92 86 66 46 37 34 35 35 36 34 33 33 33 35 37 38 41 44 50 58 66 71 72 71 74 76 74 72 69 64 66 72
90 97 96 96 92 77 70 58 48 46 43 40 37 36 35 34 33 35 36 34 33 34 36 39 40 41 42 44 51 66 67 75 74 74 78 79 79 72 67 65 68 70 69
44 48 48 46 44 45 42 41 39 38 37 37 36 37 38 40 39 37 35 33 34 37 40 42 45 44 47 47 53 71 75 76 75 75 82 79 68 66 67 70 71 73 78
42 41 42 43 42 41 41 39 38 37 36 35 38 41 40 39 39 37 35 33 35 29 31 43 47 54 61 65 72 75 76 75 77 74 71 62 64 68 75 78 80 81 86
43 43 43 42 43 41 40 39 38 37 37 40 40 40 40 40 38 37 41 45 40 41 44 46 51 50 56 62 67 72 73 73 76 68 64 67 69 75 79 84 87 88 92

GFSMW_925_rhum_024.txt.gz
RH
32 31 28 26 26 23 22 25 27 54 77 73 79 87 76 70 74 76 69 62 65 65 68 65 57 53 49 36 25 29 28 23 22 25 30 28 34 29 29 31 31 28 25
34 34 28 25 24 22 22 22 27 32 68 75 71 79 81 73 72 78 72 62 63 66 66 65 63 54 40 26 28 31 31 27 21 25 34 38 31 31 35 34 29 25 24
30 31 31 25 23 23 22 22 26 31 58 81 77 62 84 88 89 88 76 64 65 68 66 67 64 51 38 28 30 33 33 31 24 21 26 43 40 35 26 29 27 26 26
35 30 31 28 23 21 20 20 20 27 62 77 87 75 73 90 88 83 80 70 69 70 68 65 58 50 35 29 32 34 34 33 29 26 21 21 23 32 28 26 29 28 28
37 36 34 27 22 21 21 21 21 21 38 79 86 82 76 76 79 88 83 79 74 70 66 59 55 41 31 31 34 34 35 33 31 29 26 26 28 29 37 40 36 30 27
30 32 27 25 24 27 27 26 24 23 35 64 86 81 82 83 86 90 86 80 73 64 61 55 50 39 31 34 34 34 33 32 30 26 25 24 30 38 40 50 50 46 35
24 26 33 43 36 36 34 32 32 32 32 49 87 86 84 76 80 84 85 78 70 58 47 51 44 36 34 34 34 33 32 31 30 29 28 28 29 30 35 41 50 56 46
27 28 38 44 40 35 30 26 23 28 32 47 77 88 86 83 81 83 84 78 67 55 50 43 42 38 37 34 34 33 32 32 30 29 29 30 33 36 39 42 48 64 60
42 35 32 46 43 38 33 30 30 32 33 38 75 91 93 84 84 82 81 72 63 56 50 43 39 41 34 36 33 33 33 32 30 31 31 34 36 39 41 42 45 51 66
41 42 50 50 45 42 36 33 36 39 34 45 78 92 92 86 85 84 80 70 62 56 48 42 44 42 38 34 34 34 33 32 31 32 34 36 38 40 43 45 48 47 51
52 43 46 44 46 42 33 28 31 44 43 57 97 94 90 88 88 85 78 67 57 51 45 46 47 41 51 44 34 33 32 31 32 33 36 38 40 42 45 47 46 47 48
57 52 44 48 49 52 47 47 47 46 52 71 92 91 90 90 87 80 72 61 51 48 49 47 45 49 41 52 51 40 31 31 32 34 36 38 42 45 47 49 50 50 50
62 62 57 64 66 65 70 72 66 62 69 86 86 87 87 85 78 69 62 52 49 48 47 45 47 52 38 35 35 30 30 31 32 36 41 46 49 50 51 50 51 51 54
71 65 68 68 71 91 83 77 77 80 81 82 82 80 80 71 64 57 54 51 51 50 50 48 51 56 51 31 30 30 32 36 41 44 47 47 47 48 48 54 59 61 65
70 78 76 72 85 90 81 79 82 76 78 76 74 66 59 52 50 49 50 55 58 60 67 82 70 55 44 41 32 34 33 35 36 35 38 43 49 54 61 60 62 63 62
69 64 74 79 92 91 86 82 85 78 71 68 62 58 54 56 61 63 61 61 63 67 63 53 51 38 38 38 34 35 34 27 28 38 43 47 49 51 62 63 59 59 64
75 71 69 78 90 98 99 98 93 84 78 75 67 72 73 72 72 69 67 66 69 70 66 64 47 42 57 60 45 37 32 32 38 47 52 54 55 55 56 59 66 66 69
64 59 64 72 90 100 100 100 99 99 93 93 100 93 85 80 76 80 83 79 69 64 66 58 65 70 68 66 68 39 40 41 46 56 59 60 63 65 69 69 68 68 69
72 74 72 78 91 97 100 100 99 100 100 98 95 90 83 90 92 97 94 93 93 96 96 88 70 54 59 50 52 47 52 49 54 64 67 72 71 73 70 68 70 79 73
78 84 81 83 88 91 91 94 98 99 100 100 100 100 100 100 100 97 95 96 95 77 46 40 36 34 37 59 55 57 57 57 64 70 68 69 75 72 71 72 74 75 70
87 94 97 99 100 99 98 99 100 100 100 100 99 100 99 96 96 96 88 58 44 38 37 35 38 38 38 42 48 51 54 60 72 72 70 70 76 78 74 72 72 70 67
92 97 98 99 100 100 99 100 100 100 99 96 93 86 77 65 50 39 38 36 35 34 35 37 39 40 42 52 54 69 69 69 74 75 74 73 89 79 74 73 71 71 75
94 97 96 89 75 87 95 98 97 86 69 58 52 46 39 36 35 34 36 35 34 35 38 40 42 44 42 40 42 57 71 78 77 77 80 85 82 75 72 71 73 78 69
69 68 64 59 47 46 52 51 45 42 40 39 37 36 35 36 37 36 34 33 36 39 41 41 41 40 40 42 63 74 76 74 74 80 89 80 70 68 68 68 67 72 78
45 46 46 46 44 42 41 41 40 38 37 37 38 41 41 39 38 37 35 32 30 30 33 38 40 46 51 60 68 72 74 73 78 90 69 60 65 70 72 74 75 78 83
45 48 46 44 43 41 40 38 37 37 36 40 41 41 40 39 39 39 52 53 52 48 48 54 56 50 55 60 66 73 74 82 75 74 64 69 72 76 81 85 85 83 91

GFSMW_925_rhum_027.txt.gz
RH
30 29 25 24 29 28 28 28 31 46 77 96 100 100 94 90 84 77 72 74 74 76 67 69 74 59 49 47 40 25 26 24 24 28 32 33 34 30 30 31 32 32 29
35 34 28 25 26 26 25 26 29 32 66 88 86 88 82 90 77 80 74 75 76 74 68 68 64 57 47 44 37 26 29 26 23 25 35 42 34 37 37 36 34 31 27
32 30 35 27 23 25 24 23 23 26 49 69 93 92 84 88 91 89 85 82 77 70 67 67 64 63 58 52 40 28 32 30 24 24 28 46 42 38 28 33 31 27 26
37 36 34 32 27 23 21 22 24 24 30 62 94 90 76 86 82 75 81 82 80 74 66 66 67 63 58 52 43 30 33 34 28 24 22 24 26 34 29 31 30 30 29
40 41 40 33 26 24 23 22 21 23 26 49 83 80 81 73 69 77 81 86 84 78 70 69 68 63 55 50 39 31 34 35 34 31 26 26 26 26 33 34 35 32 31
29 31 28 29 26 22 22 22 21 20 22 29 77 87 90 81 82 89 91 89 86 78 73 71 68 62 54 46 38 32 34 35 35 33 29 28 30 35 37 47 46 44 31
39 37 36 33 33 39 32 31 30 28 28 29 61 86 80 84 78 78 90 94 88 80 74 69 67 58 50 51 35 34 34 34 34 32 29 27 26 26 30 36 47 51 45
46 45 43 41 39 35 43 38 29 27 29 33 35 54 73 86 86 79 82 86 84 78 76 69 64 55 49 46 42 39 33 33 32 32 30 29 28 30 31 34 44 59 60
47 49 47 44 43 45 44 42 39 35 28 32 44 53 65 85 89 84 82 82 81 80 76 69 59 50 47 44 40 36 33 32 32 31 31 31 32 35 36 38 40 46 61
54 54 54 45 39 36 36 44 44 40 37 36 41 53 60 80 88 89 89 87 82 79 74 63 58 49 50 45 42 38 37 35 34 33 33 33 34 38 40 41 44 47 50
60 56 61 51 50 46 42 50 51 53 47 43 49 66 79 90 95 92 89 84 78 76 74 63 56 50 49 43 41 38 38 48 44 33 34 35 36 38 43 45 47 47 49
62 59 69 62 62 65 69 64 67 69 62 55 60 90 97 98 99 96 88 81 77 74 70 63 57 52 46 45 48 64 41 40 41 46 47 37 39 42 46 48 48 50 51
62 69 76 74 70 71 74 71 71 68 64 65 80 99 100 100 98 94 87 78 73 68 64 57 55 53 50 56 58 73 74 59 48 38 35 38 42 47 49 51 52 51 52
70 66 78 79 67 76 76 68 74 74 74 84 96 100 100 98 95 88 77 69 66 62 60 60 62 57 61 69 74 68 47 47 37 39 43 47 48 47 48 49 54 60 63
67 71 69 73 75 89 84 82 83 81 82 83 86 92 90 86 79 70 67 67 66 65 61 57 59 61 65 66 60 51 48 45 42 41 40 42 46 52 66 64 60 64 65
64 69 70 81 95 95 94 92 81 74 72 71 70 70 67 65 68 68 72 71 73 69 62 70 77 85 88 86 82 66 42 34 34 38 39 45 48 50 54 68 70 64 63
65 62 71 89 99 100 99 99 92 81 74 75 75 80 81 79 78 78 76 76 78 84 85 83 78 81 93 89 55 45 49 33 36 42 47 51 55 56 58 61 71 71 72
75 70 71 84 98 100 100 100 96 95 99 98 94 90 92 91 81 84 93 92 89 88 86 88 95 97 96 94 98 69 38 40 43 50 56 64 66 66 74 74 71 71 74
74 78 82 92 98 99 100 100 100 100 100 100 100 99 94 100 100 100 97 98 96 97 97 96 97 99 99 98 94 46 49 49 53 62 67 72 73 74 75 71 73 77 76
84 88 90 93 95 98 100 99 100 100 100 100 100 100 100 100 100 99 100 100 98 99 100 98 80 92 89 70 64 58 54 56 61 69 71 64 74 75 76 74 75 76 73
92 97 99 100 100 100 99 100 100 100 100 100 100 100 100 99 100 100 100 99 95 68 50 45 48 39 46 52 51 53 57 62 73 74 71 68 79 83 79 74 74 75 71
93 95 92 97 100 100 98 100 99 100 100 100 99 100 99 100 99 86 63 47 42 39 38 40 42 44 46 63 61 73 68 70 78 77 75 75 90 84 78 76 74 73 78
92 92 82 76 93 98 98 99 99 96 86 80 75 72 54 43 39 37 37 36 35 36 40 41 42 44 42 39 39 58 76 80 77 76 81 85 84 79 72 70 75 80 70
82 76 59 54 50 62 67 60 56 57 53 43 40 38 37 37 36 36 36 36 37 40 42 42 40 38 40 46 66 73 74 71 74 81 92 80 71 66 69 65 60 68 75
54 54 50 48 46 49 48 49 43 38 38 40 42 41 39 38 37 37 33 28 30 29 34 39 42 48 50 59 66 70 74 75 82 89 75 64 64 69 68 67 70 74 81
50 49 46 45 44 41 41 40 38 38 40 42 40 40 39 38 40 46 56 58 61 62 61 56 58 52 55 62 69 76 78 81 77 77 65 69 73 76 76 80 81 83 89

GFSMW_925_rhum_030.txt.gz
RH
35 32 28 25 26 26 30 30 29 29 63 100 100 100 100 100 97 90 84 81 70 56 70 76 75 79 83 64 46 36 28 24 24 28 34 37 32 36 42 40 34 33 31
35 34 29 26 26 26 26 28 30 29 47 86 93 100 100 100 85 84 84 82 80 69 77 79 70 70 78 53 42 38 28 26 26 27 35 43 39 36 34 33 33 34 31
37 35 34 31 28 28 25 27 28 28 38 74 87 100 97 97 100 99 88 87 84 78 77 77 69 70 70 61 54 45 33 28 28 25 30 49 46 42 35 37 37 34 30
35 39 40 36 32 30 29 25 26 28 29 61 95 100 96 97 97 82 71 82 86 85 82 78 74 69 66 60 56 50 37 30 28 26 28 27 28 41 34 33 33 31 29
33 36 37 34 32 30 28 29 24 23 25 27 78 91 98 92 83 86 83 85 88 85 86 83 79 69 65 61 58 50 36 31 32 28 27 26 25 24 32 36 37 34 32
47 45 42 41 39 32 31 33 30 26 22 25 32 82 92 94 85 83 91 96 96 91 88 83 79 72 69 62 61 51 38 33 35 31 30 28 30 34 33 42 42 39 32
49 52 53 51 45 39 35 32 41 39 37 30 28 51 75 92 91 79 87 95 96 95 89 86 82 74 70 67 60 51 38 36 36 34 32 31 30 30 29 31 44 44 39
47 53 56 52 48 45 39 42 41 41 37 39 44 56 63 87 90 89 86 82 84 82 83 84 82 76 72 70 58 47 43 39 39 38 33 30 30 28 27 28 38 55 57
45 54 60 56 51 48 45 42 47 43 40 43 44 44 62 81 70 81 88 83 86 86 82 84 81 76 72 68 55 50 43 47 48 59 39 32 31 31 30 30 30 36 52
57 70 66 62 55 53 53 49 47 50 42 50 54 53 50 63 69 85 90 92 91 90 86 85 82 77 78 62 54 46 48 50 40 45 40 34 34 34 37 36 37 40 43
74 71 68 63 60 60 59 67 70 74 64 49 53 60 60 71 74 88 96 98 96 93 88 86 82 78 70 58 50 46 41 41 43 43 42 40 39 41 42 41 43 46 50
67 71 74 71 72 70 65 63 63 60 66 58 50 58 84 92 95 100 100 100 96 90 86 84 79 72 62 53 48 44 47 49 56 66 66 57 42 40 43 46 49 50 51
70 74 77 71 73 68 71 77 72 69 63 71 63 74 99 97 100 100 99 92 87 84 82 79 72 66 59 53 46 48 61 63 67 73 77 63 50 44 44 49 51 53 53
74 70 74 78 75 85 89 86 86 84 76 76 79 92 99 99 99 99 92 84 80 78 77 70 66 64 59 51 58 66 80 86 76 70 66 67 56 56 55 52 49 52 59
73 66 68 88 96 98 94 91 80 78 80 74 76 89 95 97 93 85 78 76 73 74 70 72 67 63 66 76 84 88 83 85 85 90 76 57 49 46 55 60 66 63 65
73 67 67 84 90 96 97 96 84 73 73 75 75 76 80 79 78 77 78 76 77 78 77 76 78 81 83 88 84 72 69 76 72 59 88 46 43 44 50 62 70 71 69
78 78 74 81 96 99 100 100 99 89 81 83 81 79 80 82 83 84 87 92 92 90 92 91 85 97 100 98 91 89 88 94 98 71 42 47 50 51 50 53 71 72 74
76 78 82 89 98 100 99 99 100 96 95 93 92 84 87 91 89 89 93 94 95 96 96 97 97 96 99 99 99 99 95 69 46 51 51 57 58 57 70 76 75 72 74
80 83 86 93 97 100 99 100 99 99 99 100 100 100 100 100 100 100 100 100 98 99 99 99 100 99 99 99 93 48 46 48 54 59 66 68 64 60 78 74 76 85 79
91 94 95 97 99 100 99 99 99 99 99 100 100 100 99 100 100 99 100 100 100 100 100 99 99 99 98 98 76 52 52 55 60 68 70 64 74 75 77 77 92 79 74
92 93 96 100 100 100 99 99 99 100 100 100 100 100 100 100 100 100 100 100 100 99 98 97 96 90 74 56 56 68 61 64 72 76 71 67 77 83 85 82 79 76 74
92 88 89 96 100 99 98 100 100 100 100 100 99 100 100 100 100 99 99 96 72 55 56 46 47 51 57 55 74 72 69 76 78 74 74 80 93 89 82 77 75 76 80
90 82 80 83 93 95 98 96 92 92 90 91 92 96 88 71 52 42 41 40 38 38 42 43 46 46 42 38 52 60 76 74 78 79 86 96 86 78 65 71 76 79 66
87 70 65 60 63 76 69 66 68 73 63 45 41 40 39 39 38 38 37 37 39 41 43 43 40 39 40 45 63 70 73 76 80 86 85 78 70 63 67 59 58 66 75
69 62 59 54 53 57 56 56 58 43 39 40 41 40 38 37 35 33 30 29 33 31 33 35 36 42 48 62 68 74 77 77 80 83 78 63 63 64 63 64 68 75 81
57 52 50 49 47 47 44 41 39 38 39 40 40 40 40 41 42 48 62 66 65 65 55 54 59 54 64 66 72 79 80 82 74 72 64 69 71 73 77 80 84 85 88

GFSMW_925_rhum_033.txt.gz
RH
33 30 29 27 28 28 28 27 29 29 67 98 99 100 100 99 100 97 90 86 83 78 68 69 76 75 89 82 84 48 38 30 23 27 37 37 32 40 48 43 37 34 32
34 34 33 31 30 29 28 27 29 31 34 75 91 96 98 99 100 100 93 88 86 81 78 65 67 73 87 86 76 49 38 30 25 34 41 38 41 38 44 45 41 34 34
31 33 35 36 31 30 29 28 27 28 33 54 86 100 97 98 100 99 100 82 87 86 82 71 64 75 82 79 74 56 47 35 28 26 34 42 37 41 38 37 36 36 35
37 39 41 42 41 36 33 29 28 28 30 36 86 95 91 92 97 100 100 99 93 94 88 81 69 80 79 75 68 66 49 42 33 30 29 30 33 37 35 39 40 37 36
43 44 47 48 46 42 37 38 30 28 30 34 77 96 96 90 91 97 98 100 100 100 96 86 77 83 85 72 70 64 48 44 38 31 31 31 30 27 31 35 37 40 35
45 48 52 54 52 46 44 39 40 35 29 30 40 97 99 96 97 99 99 99 99 100 100 96 88 83 84 77 70 66 57 46 38 32 29 27 33 35 34 36 36 35 42
43 48 56 58 57 51 49 46 42 43 40 38 35 34 92 100 99 99 97 100 100 100 99 99 96 90 86 83 75 71 62 53 42 35 32 29 29 31 28 36 42 36 42
43 50 59 63 63 55 51 50 48 42 45 41 38 41 45 81 100 100 96 95 92 84 94 96 97 94 90 86 80 72 66 60 48 41 37 34 32 34 34 31 41 43 41
46 59 65 68 67 58 56 61 57 49 45 48 46 39 42 49 78 99 100 100 96 94 91 93 98 96 92 88 82 76 70 62 47 43 41 38 48 48 35 31 30 34 39
56 68 65 67 66 62 61 63 66 69 68 68 68 63 49 46 54 69 83 97 98 98 96 95 98 98 95 91 85 78 70 59 45 44 44 56 53 45 39 34 34 34 35
69 70 66 70 71 66 68 69 74 70 65 63 63 69 66 59 77 94 94 99 100 100 100 98 95 94 93 90 84 78 73 71 51 54 50 51 51 49 52 49 45 42 42
71 65 66 74 76 83 88 88 78 77 76 71 67 69 81 94 99 99 99 98 99 100 99 96 94 92 90 85 84 87 72 58 52 52 56 66 63 71 73 64 64 63 60
68 64 62 78 92 94 93 93 89 81 79 79 80 74 83 96 99 99 99 99 99 97 94 92 90 86 81 76 68 60 57 54 56 64 77 83 79 79 78 89 89 91 87
71 65 64 76 92 93 93 94 87 75 77 81 88 92 88 94 96 98 95 93 92 90 87 84 80 75 71 65 60 56 54 68 79 84 86 86 84 82 88 96 97 93 61
71 72 68 76 87 93 95 95 91 79 76 76 82 89 93 94 91 91 89 86 86 82 79 76 75 75 70 68 67 69 80 86 89 91 94 98 96 96 96 93 88 92 93
75 75 74 82 91 96 98 99 99 88 77 81 80 80 82 84 83 83 84 84 84 84 84 84 84 85 88 84 84 87 92 92 94 95 93 97 98 95 95 100 100 98 93
75 76 81 86 94 97 99 100 100 94 90 88 87 87 86 86 89 92 91 92 94 91 98 100 100 100 100 95 95 93 88 96 99 99 98 91 81 66 54 52 74 80 76
80 81 84 90 98 100 100 99 99 100 99 100 100 99 100 99 98 98 100 100 100 100 100 100 100 99 100 99 99 99 99 98 95 65 55 57 59 53 69 72 75 74 75
87 89 92 95 100 100 99 98 99 99 99 100 100 100 99 100 100 100 100 100 100 100 100 100 99 98 99 99 100 96 66 53 58 66 77 73 64 51 76 76 75 83 85
90 94 93 96 100 99 99 100 99 98 99 100 100 100 100 100 99 100 100 100 99 100 100 100 99 99 98 82 50 49 51 58 65 67 68 57 67 75 78 81 98 86 80
93 92 100 100 100 99 98 100 99 100 100 100 100 99 100 100 100 100 100 99 99 99 98 98 97 94 90 94 88 63 58 61 68 71 65 62 79 89 91 85 84 78 73
90 89 95 100 100 98 98 100 99 100 100 100 99 100 100 100 100 99 100 98 92 77 71 69 67 65 68 74 76 74 74 81 76 78 77 82 92 94 85 80 74 76 81
86 82 90 93 95 98 98 94 87 95 98 98 96 92 77 61 48 41 41 42 42 44 47 48 47 46 42 46 72 72 77 76 81 82 91 94 85 77 63 61 76 80 63
84 68 70 73 70 74 77 76 80 79 55 42 41 40 39 39 38 38 38 39 40 42 43 43 39 37 40 53 68 71 73 76 80 83 84 79 69 56 72 59 59 68 81
78 67 66 64 61 62 66 70 59 42 41 42 40 38 38 36 33 33 32 32 32 31 33 36 41 46 54 69 72 77 79 82 83 88 74 57 60 69 70 73 77 82 87
66 65 61 61 56 54 49 47 40 40 38 38 39 40 39 43 52 62 69 69 68 70 53 53 59 54 68 70 73 81 80 83 75 68 61 71 77 80 83 88 92 92 93

GFSMW_925_rhum_036.txt.gz
RH
23 26 26 27 28 29 31 32 32 33 40 62 91 100 100 100 100 99 94 87 88 85 83 76 75 77 81 79 70 59 49 43 37 36 36 37 36 40 45 42 39 41 40
22 22 26 28 27 27 30 31 31 32 34 42 61 76 91 98 99 100 98 96 92 91 89 84 79 76 79 78 74 60 52 45 40 37 35 36 35 35 43 45 41 38 38
26 29 31 33 36 35 35 32 31 32 34 37 51 66 80 86 89 97 98 97 94 92 90 90 86 79 78 77 75 64 58 49 43 38 36 38 37 34 38 44 44 40 39
32 36 38 39 41 45 47 43 38 35 34 38 44 58 71 75 73 72 85 98 99 95 92 92 90 88 82 76 76 71 68 55 48 44 40 39 38 36 39 38 40 39 37
37 40 43 47 46 51 56 50 45 38 35 36 46 57 66 63 62 66 78 87 98 98 99 97 95 92 85 75 76 72 64 56 52 48 42 40 38 37 33 36 38 39 38
36 39 46 48 46 51 53 53 46 42 45 39 39 49 62 66 63 70 79 83 92 100 100 99 98 95 91 82 77 79 67 58 53 51 44 36 38 36 34 33 34 36 38
36 41 46 48 50 53 53 51 48 44 43 44 46 42 45 60 67 70 73 78 83 97 98 99 99 98 93 92 89 84 72 68 63 56 52 44 35 31 32 33 37 35 38
38 47 50 52 52 53 52 54 54 50 48 47 48 46 50 50 54 75 78 75 70 80 95 99 99 99 95 95 95 93 88 79 72 67 55 46 36 32 32 33 42 47 39
44 50 50 51 54 55 54 59 60 58 61 64 64 60 57 57 57 61 74 88 76 78 82 94 97 99 96 96 95 95 94 90 83 76 64 51 40 36 35 33 37 46 59
50 50 49 54 59 60 60 61 63 64 64 65 63 64 68 68 71 69 80 95 86 85 97 96 97 99 100 99 96 98 95 91 86 80 66 52 46 43 43 46 51 42 44
54 52 51 56 62 67 68 68 67 72 72 71 67 67 70 77 83 94 98 97 98 99 97 96 96 97 99 99 97 96 93 88 84 77 69 72 72 65 52 45 47 50 57
54 52 52 60 68 74 74 73 73 72 72 74 73 72 74 79 90 99 98 99 99 98 100 97 97 95 96 95 97 95 90 83 80 80 79 70 58 59 64 70 84 88 87
55 53 51 57 78 85 85 80 78 71 72 74 77 78 80 83 87 95 95 94 95 97 98 98 96 94 93 92 93 90 85 76 73 74 70 71 73 88 90 90 88 92 95
58 58 56 59 76 83 83 82 79 74 75 74 76 79 86 88 87 85 87 88 91 90 89 86 85 82 81 78 78 79 82 82 84 78 82 89 90 89 90 94 98 99 98
60 61 62 64 79 80 84 86 86 83 79 77 77 79 81 84 84 86 88 88 86 84 84 83 82 80 78 81 81 82 85 85 87 88 89 90 89 92 98 99 99 98 98
62 63 64 72 77 82 88 93 92 86 80 78 81 81 82 86 90 90 93 94 94 94 85 85 90 85 87 97 87 81 83 86 89 95 100 100 99 98 99 98 98 95 99
65 67 69 76 86 95 99 100 97 89 89 90 95 92 92 96 100 100 98 95 94 92 96 99 99 99 99 100 92 89 93 97 99 98 98 98 98 96 83 88 92 96 99
69 69 76 85 94 99 100 100 100 97 99 99 97 97 98 100 99 99 100 99 99 99 100 100 100 100 100 100 99 99 99 98 99 99 92 89 88 78 77 89 88 84 81
69 80 85 89 92 94 99 100 98 98 99 99 100 100 100 99 99 99 99 100 99 100 99 100 100 99 99 99 100 98 98 93 69 91 95 83 73 63 75 72 80 76 71
76 84 86 94 96 99 100 99 99 98 99 99 100 100 100 100 100 100 100 100 99 99 99 98 98 98 98 97 66 59 74 80 73 70 71 60 66 74 76 75 77 77 73
79 87 91 90 98 100 100 99 99 99 100 99 99 99 99 99 99 98 99 99 98 98 98 98 96 95 98 98 76 63 59 59 62 61 57 60 76 88 90 88 80 74 69
80 84 88 90 96 100 100 100 100 100 100 99 99 100 100 100 99 95 99 96 85 71 62 59 61 67 74 76 77 78 78 72 59 63 64 71 90 94 87 83 75 74 77
76 80 84 87 93 99 93 89 88 93 86 82 74 63 55 50 44 42 42 42 42 42 41 44 45 45 46 66 74 76 78 77 72 76 84 92 84 80 69 66 75 80 62
71 76 77 77 80 77 74 79 76 68 50 43 42 40 39 39 40 41 41 40 39 38 37 36 36 39 45 57 65 69 69 74 75 81 82 77 70 54 55 60 60 61 63
75 68 70 70 67 64 64 65 58 43 42 42 41 42 38 35 34 37 35 34 36 33 32 37 39 40 45 61 71 73 70 71 74 85 69 53 51 54 55 59 65 70 74
75 69 68 67 60 61 62 55 46 44 39 37 40 41 44 50 54 57 58 71 71 68 52 53 56 53 66 70 72 80 81 84 74 64 47 48 55 59 62 69 75 81 87

GFSMW_925_rhum_039.txt.gz
RH
15 20 23 24 24 25 25 26 27 26 28 37 49 85 94 93 99 98 86 71 75 72 74 72 65 65 66 73 72 66 56 51 45 36 34 36 34 37 44 42 39 39 42
18 20 22 26 25 23 24 26 27 29 29 30 34 50 80 89 95 99 99 88 80 78 77 78 73 67 69 70 73 67 59 52 44 41 44 48 39 35 37 42 39 37 39
20 24 26 30 34 36 36 33 30 29 29 30 31 35 54 73 85 95 97 100 98 85 81 82 81 74 71 73 74 70 62 56 48 46 46 54 53 39 35 41 44 39 39
27 30 32 35 37 41 49 44 39 36 32 31 32 34 44 58 67 68 76 82 87 94 84 84 84 83 79 76 76 74 66 59 56 49 44 41 40 48 51 39 43 43 39
32 33 38 41 39 45 52 52 44 37 38 34 34 35 39 45 58 63 61 61 74 90 91 86 86 90 87 82 78 76 69 66 64 56 48 44 40 42 44 50 43 43 41
32 34 39 42 40 46 50 50 46 41 39 41 38 36 40 46 52 56 56 57 64 75 86 89 87 88 91 93 86 80 76 76 70 60 53 49 47 42 40 48 45 44 41
32 36 40 43 44 48 49 48 45 45 42 40 42 40 38 38 44 53 57 60 62 71 80 87 91 94 92 91 91 88 82 82 75 64 61 52 50 41 37 34 42 45 40
33 41 44 45 46 49 50 50 51 49 50 51 49 47 45 44 44 41 47 60 60 59 62 82 87 94 96 95 95 94 92 88 82 74 70 66 58 49 64 64 45 50 44
38 44 44 45 48 50 52 52 52 52 53 55 56 53 51 52 54 53 51 53 60 66 65 67 81 87 92 96 97 95 96 92 89 87 81 78 75 69 58 41 39 50 73
43 45 44 46 51 54 57 57 57 56 59 62 59 56 58 60 63 64 63 66 75 76 74 77 78 87 94 100 99 98 98 97 96 94 92 85 74 65 52 46 47 55 63
47 46 46 48 54 59 60 61 61 64 62 62 61 60 60 63 70 77 84 93 96 94 91 88 92 91 96 98 100 100 100 99 99 96 93 84 77 68 76 87 88 88 88
48 47 47 48 56 65 67 66 66 66 64 65 65 65 66 68 70 81 89 93 93 92 91 93 94 96 96 98 98 100 100 100 98 94 92 88 86 89 95 93 81 80 80
49 48 47 49 58 71 74 75 71 67 67 68 68 70 73 76 76 76 78 81 86 89 90 94 94 94 93 93 94 97 98 96 94 93 91 88 91 91 86 85 86 89 90
50 51 52 51 63 72 76 79 79 76 73 71 71 72 74 78 76 78 77 77 79 80 80 80 82 82 83 87 90 90 90 87 87 88 88 86 80 78 88 92 94 97 98
53 54 56 56 65 71 78 86 86 78 73 71 74 76 77 82 82 81 83 86 86 85 83 85 86 83 80 82 84 87 90 90 92 92 91 91 92 93 93 94 98 97 98
56 56 57 64 72 80 85 91 90 82 81 77 80 81 82 87 91 91 92 98 98 98 97 97 96 100 100 98 91 86 94 97 96 99 100 100 100 98 99 99 99 97 97
58 59 63 72 82 89 93 96 94 88 88 87 90 89 91 97 100 99 99 98 99 100 100 100 100 99 98 100 100 97 100 100 100 100 100 100 99 98 99 97 95 99 98
60 61 69 76 82 86 98 100 99 98 93 89 90 91 94 98 100 99 100 100 100 98 100 100 99 99 100 100 100 99 100 99 99 98 99 98 92 59 69 66 79 84 85
60 69 75 80 88 92 96 100 98 98 99 99 100 100 100 100 99 99 100 100 99 99 99 98 98 98 99 100 99 98 98 98 96 87 60 80 72 74 84 72 74 80 70
69 74 79 87 88 93 98 98 99 99 99 99 99 100 100 99 99 99 100 100 99 98 96 96 99 99 99 96 96 79 72 75 68 66 70 53 63 71 74 75 72 73 72
72 79 78 86 92 94 99 99 99 99 99 99 99 99 100 100 99 99 99 100 97 95 91 82 79 92 94 88 78 68 57 57 56 55 53 58 67 87 88 90 80 76 76
75 78 80 86 95 95 97 100 100 99 99 99 99 99 98 99 98 93 90 85 71 54 52 53 59 68 72 74 74 81 78 68 58 61 62 68 90 92 89 86 77 77 74
71 74 79 82 89 92 88 89 92 86 84 80 71 62 52 46 41 40 38 38 38 38 38 41 40 41 43 56 62 77 75 75 76 75 83 84 84 78 69 58 69 75 67
67 71 74 76 84 82 80 78 82 74 56 42 38 36 36 35 37 39 37 36 34 33 33 32 33 35 40 50 58 64 64 66 70 71 76 75 67 62 61 60 54 56 57
66 69 70 71 74 70 69 70 63 43 39 38 39 39 34 31 34 42 40 35 42 38 32 38 39 39 40 59 73 76 76 76 77 80 70 55 44 47 51 51 57 63 68
70 67 68 68 66 63 62 62 47 40 38 35 36 38 41 46 48 51 58 60 68 52 41 45 49 51 52 69 72 74 82 81 78 72 52 42 48 53 56 61 69 79 84

GFSMW_925_rhum_042.txt.gz
RH
17 19 23 23 22 23 25 25 26 26 27 30 43 67 82 84 82 87 86 78 72 70 71 68 66 65 74 73 77 72 66 56 50 42 35 34 33 37 42 44 43 46 46
19 24 23 26 28 26 25 25 27 27 28 28 29 38 72 78 74 83 87 94 75 76 76 75 70 67 67 76 77 73 70 60 52 42 36 58 44 36 36 44 43 41 41
24 28 29 34 35 40 41 37 32 30 29 30 31 31 31 68 86 90 86 85 89 92 88 79 77 75 70 68 72 76 72 63 54 45 47 72 69 47 37 36 44 41 39
34 35 36 39 39 46 50 51 44 39 36 31 30 32 34 39 59 77 78 82 81 80 80 82 85 81 84 75 74 77 76 67 57 48 46 50 46 57 52 37 38 43 39
35 38 42 42 41 48 51 52 50 44 38 40 36 34 34 36 38 44 63 70 72 81 85 81 79 81 85 81 84 79 82 72 65 58 49 50 48 43 57 60 46 44 44
40 38 41 42 44 48 50 50 47 45 43 41 41 41 37 37 39 46 53 60 63 62 70 83 80 76 87 90 87 88 86 81 70 64 62 55 55 51 51 70 55 49 47
40 41 49 48 47 49 50 50 50 50 49 50 48 45 45 44 41 40 40 48 56 60 66 72 78 78 78 87 95 93 90 87 75 74 71 66 62 56 47 46 54 56 44
44 47 50 48 48 50 52 52 52 52 52 54 57 56 53 51 51 49 51 50 48 54 64 70 72 79 80 77 83 97 96 95 87 80 84 75 66 64 53 50 64 85 68
46 48 48 48 50 53 55 57 56 56 58 60 61 58 56 58 60 60 60 59 58 70 70 73 80 82 82 82 85 91 98 100 98 91 92 86 76 70 62 58 70 77 91
45 53 51 48 51 57 60 60 60 62 63 62 62 61 59 62 66 72 76 78 79 73 78 83 85 84 92 97 91 97 99 100 100 100 98 94 88 84 80 78 72 72 79
55 55 52 49 54 62 65 65 66 67 64 66 66 66 66 67 72 80 83 91 92 90 90 90 86 81 83 90 98 100 100 100 100 100 99 100 98 92 85 76 67 70 81
55 53 50 49 60 68 72 73 72 68 68 70 69 70 73 77 76 78 80 84 87 88 87 86 87 87 89 90 91 95 98 100 100 100 100 100 97 92 86 84 84 90 96
56 53 53 54 67 72 75 79 80 78 75 72 71 73 77 77 76 77 77 80 83 84 85 86 86 88 90 92 93 94 96 99 99 99 98 97 98 96 97 97 95 95 93
54 57 59 60 66 70 79 83 84 80 75 71 74 76 79 82 80 82 83 82 79 80 82 83 81 81 81 84 89 91 92 93 95 94 95 95 94 94 94 91 94 98 100
56 58 62 70 69 76 80 86 85 82 79 76 79 80 84 87 87 89 91 90 90 88 87 85 83 82 81 86 85 87 91 92 92 94 94 92 91 94 95 95 100 99 98
59 60 64 72 74 84 85 84 89 85 83 84 85 84 89 94 98 98 98 98 97 97 96 98 97 98 98 98 99 94 100 100 100 100 100 100 100 100 100 99 100 98 96
62 65 75 79 80 86 93 99 98 88 86 86 89 91 94 99 100 100 100 100 100 100 99 99 99 99 98 99 98 95 98 98 99 100 99 99 99 100 100 100 99 99 97
64 70 76 78 80 88 98 99 99 98 93 95 93 95 98 99 99 100 100 100 100 99 100 100 100 99 100 99 99 94 95 96 98 98 96 97 96 94 86 67 77 76 66
71 74 76 82 86 87 97 99 99 99 99 100 100 99 99 99 100 100 100 100 99 99 98 100 100 99 100 100 96 94 94 96 92 86 84 77 71 76 89 75 74 77 75
74 78 81 85 86 89 100 99 100 99 99 99 100 100 99 99 99 100 100 100 100 100 99 99 99 86 81 89 77 62 64 66 67 69 59 55 64 73 77 80 82 81 74
74 78 84 83 89 96 100 99 99 99 100 100 99 99 99 99 99 100 100 96 89 64 66 71 78 91 81 79 79 67 58 57 56 55 57 64 80 88 90 88 83 79 81
80 79 85 88 90 89 94 99 99 94 92 92 92 89 90 90 87 81 68 56 51 50 52 54 61 66 68 74 76 78 72 75 67 66 70 75 93 88 86 82 78 76 74
79 79 82 88 91 90 88 92 92 90 86 81 76 62 53 54 54 41 39 38 38 38 39 40 40 38 38 45 58 67 72 71 68 70 77 83 82 77 64 58 65 72 54
76 76 81 86 90 91 86 84 85 80 74 46 38 36 36 36 36 37 36 35 33 33 32 31 34 36 40 53 65 67 69 70 73 74 75 75 65 52 52 54 54 56 58
70 73 78 80 84 84 81 78 77 66 42 38 38 38 36 33 33 37 41 37 32 38 34 38 41 38 52 64 72 74 77 78 81 78 64 58 44 46 52 53 56 62 68
69 72 73 74 78 75 73 72 64 41 39 38 37 35 35 41 48 52 51 43 38 40 36 41 45 48 62 71 74 75 80 81 82 74 58 47 49 56 61 66 72 81 84

GFSMW_925_rhum_045.txt.gz
RH
20 25 24 24 23 23 24 25 26 26 33 69 82 83 84 82 72 68 68 69 70 72 67 66 66 67 67 69 75 74 72 72 63 46 43 41 36 36 39 43 46 49 55
28 29 30 30 30 30 28 25 26 27 28 29 33 56 79 82 76 71 70 66 63 63 71 74 68 69 67 70 74 76 79 76 62 50 44 50 42 34 36 41 44 46 48
26 34 41 40 38 38 36 37 34 30 29 30 30 31 33 61 74 79 83 80 77 70 62 62 73 75 73 70 71 77 84 77 66 58 50 75 67 54 37 36 40 45 45
38 44 47 44 44 46 45 48 47 43 38 36 33 30 32 36 36 62 77 74 71 74 77 73 70 68 80 79 76 78 83 84 75 61 51 49 51 62 59 41 38 43 46
46 50 48 43 49 49 51 51 49 46 44 42 41 41 37 35 36 38 43 48 71 74 74 75 76 72 73 78 87 80 90 89 83 74 58 56 58 47 60 69 60 43 45
46 51 45 46 52 51 50 50 50 50 49 49 47 47 48 48 44 39 39 41 44 65 70 64 70 77 78 79 85 83 94 93 88 80 73 57 58 65 63 84 78 70 53
49 55 59 53 52 52 53 52 53 53 54 56 56 55 54 54 54 52 54 54 50 50 63 75 73 73 74 75 73 76 82 97 98 90 82 75 64 65 62 60 68 74 56
54 62 58 54 53 55 56 57 58 60 60 60 61 61 58 59 60 60 61 64 63 74 79 75 71 75 78 76 83 82 82 90 100 100 93 84 84 77 77 73 72 90 79
59 62 57 54 56 61 63 62 62 64 63 63 62 62 61 62 67 72 73 72 76 74 78 80 79 80 80 83 82 84 80 87 90 93 100 97 92 89 86 84 77 76 88
62 62 58 56 64 66 66 66 68 66 66 66 66 68 70 72 78 78 74 73 78 78 75 75 83 85 86 85 92 99 100 99 100 100 100 100 100 98 91 87 84 83 85
65 64 59 62 67 67 69 73 72 70 69 69 70 74 77 80 79 77 83 86 88 87 85 84 87 89 88 88 88 90 94 90 98 100 100 100 100 100 99 98 98 97 96
62 61 56 67 72 73 76 79 79 77 74 72 72 77 78 77 76 74 80 85 85 87 88 87 85 84 86 88 85 89 90 93 100 100 100 100 99 100 99 96 94 93 93
61 62 61 75 77 78 79 79 82 79 75 73 74 79 80 80 80 80 79 77 79 79 80 81 83 84 84 86 87 88 90 91 98 100 100 100 100 100 99 98 96 97 99
61 65 71 77 79 80 80 81 82 81 78 78 80 85 85 86 87 87 87 87 85 83 83 82 81 81 81 82 85 88 92 93 95 94 94 94 96 98 100 100 100 100 100
64 66 74 81 81 82 84 85 84 82 81 81 82 87 88 92 93 95 95 94 94 91 89 88 86 87 88 93 89 93 95 94 94 94 95 96 96 97 97 97 98 100 99
64 68 74 79 85 84 85 90 91 84 84 84 88 89 91 97 97 99 99 100 100 100 99 99 99 99 100 100 88 91 94 95 96 100 100 100 100 99 99 100 100 100 100
66 72 80 82 84 89 90 98 95 87 87 88 91 94 97 99 100 100 99 98 99 100 99 99 99 99 99 100 97 95 98 98 100 100 100 98 98 100 99 99 99 99 99
69 77 85 83 86 91 99 99 94 92 94 96 98 99 99 100 100 99 98 99 100 99 100 99 99 99 100 99 96 93 93 95 96 95 94 96 96 90 88 82 81 72 72
74 80 82 84 87 92 100 99 99 100 99 99 99 99 99 99 99 99 100 100 100 100 99 98 99 99 98 98 75 72 78 72 67 63 70 64 65 79 77 74 75 78 77
79 86 85 87 88 93 96 98 99 99 99 100 99 98 99 99 99 99 100 100 100 100 99 88 80 80 78 73 71 62 63 65 65 64 57 70 70 79 83 87 85 82 78
83 83 86 88 91 94 92 98 98 99 100 99 95 98 100 99 100 100 96 75 65 70 74 81 90 84 73 82 81 69 55 56 56 58 62 68 85 88 90 88 83 83 82
86 85 88 90 92 92 91 95 95 91 90 91 89 89 90 91 91 66 57 56 52 52 57 61 62 62 56 66 75 74 75 75 64 71 74 76 88 85 82 76 73 72 78
84 86 90 92 90 90 88 90 90 91 89 90 89 86 80 77 65 49 44 47 43 39 40 41 39 35 38 51 66 71 74 76 75 79 85 86 81 76 56 56 65 67 55
85 86 89 93 93 90 87 86 90 90 86 77 63 45 40 39 39 38 38 36 35 34 33 32 35 38 44 58 63 67 67 67 66 75 72 68 72 52 50 52 52 56 60
81 84 87 92 92 93 89 87 86 84 80 49 37 36 37 36 34 34 32 30 30 35 31 35 39 40 47 58 72 73 74 79 81 81 64 49 48 50 54 57 61 67 76
80 81 84 85 87 88 89 84 81 74 67 40 38 38 35 32 40 44 50 43 36 33 33 36 32 38 54 72 74 76 80 83 81 79 63 54 52 54 61 67 72 79 85

GFSMW_925_rhum_048.txt.gz
RH
29 29 28 27 26 27 27 28 33 50 74 84 85 83 82 79 74 69 70 75 74 74 70 66 66 66 67 69 71 74 75 73 74 63 50 46 39 38 36 38 42 48 60
31 35 36 32 30 31 30 31 32 30 30 37 62 83 88 86 83 80 73 73 72 71 70 71 71 71 72 68 71 76 82 80 80 65 54 55 50 43 41 38 41 44 48
34 43 46 41 39 38 36 34 34 36 36 34 32 32 34 55 85 80 81 75 78 79 74 71 74 77 82 78 70 74 85 89 87 80 66 71 70 59 42 38 37 41 44
35 50 50 47 44 47 45 46 45 44 43 41 40 39 35 36 35 39 41 66 80 82 85 85 80 79 75 84 82 78 82 91 95 87 71 66 55 67 72 46 40 38 44
52 56 52 48 53 51 50 49 48 48 48 46 44 45 46 48 46 40 39 38 41 49 52 76 86 73 66 68 80 89 90 91 94 94 80 75 72 60 67 73 63 52 43
57 58 52 55 55 53 51 50 52 53 53 54 54 54 53 53 51 49 48 46 45 44 49 63 75 82 82 74 75 78 87 95 93 98 95 82 71 74 71 81 80 71 55
62 66 67 61 58 56 54 55 55 57 58 58 58 59 58 59 60 60 61 59 58 64 66 66 72 82 82 84 76 78 83 85 95 97 98 94 85 78 74 82 88 89 72
62 69 66 61 60 60 61 60 61 63 61 60 60 61 61 61 67 69 72 74 74 76 74 75 76 74 84 88 83 79 88 89 88 97 99 97 94 92 89 85 88 96 89
65 70 66 62 65 66 66 65 65 66 64 64 63 63 65 66 75 81 78 77 79 82 81 76 77 78 83 88 97 92 97 90 88 88 98 96 93 97 93 94 89 91 98
69 68 67 70 70 68 70 70 68 68 68 67 69 74 80 83 85 80 76 81 83 84 84 82 80 77 79 83 84 86 96 99 99 99 99 100 99 98 100 100 100 99 97
71 70 69 72 71 73 73 74 73 72 70 70 74 77 79 81 79 78 77 84 83 82 86 86 86 85 84 86 88 92 93 92 98 99 100 100 100 100 100 100 99 97 98
67 67 72 75 76 78 78 78 78 77 74 73 77 79 79 80 79 78 77 81 82 80 81 84 85 85 86 87 87 88 89 89 90 92 96 99 100 100 100 99 100 100 100
67 67 78 80 81 82 81 80 80 79 77 76 80 82 82 82 83 82 81 80 80 81 81 80 81 83 84 88 89 87 86 88 89 94 97 100 99 99 99 100 99 99 100
67 70 81 84 84 82 82 82 82 81 80 81 86 86 87 89 90 90 90 89 88 86 86 86 87 88 86 85 87 89 90 90 90 91 92 93 93 95 97 99 100 100 100
68 70 81 89 86 84 85 85 84 82 82 83 88 90 92 94 98 98 97 96 93 96 96 93 91 96 99 94 90 90 91 92 96 98 100 100 99 98 99 99 100 100 99
68 70 77 83 88 86 85 89 88 84 84 86 91 93 95 98 99 99 99 97 99 99 98 98 98 98 99 99 95 92 96 100 100 99 100 100 99 100 99 99 99 99 100
69 74 80 84 87 87 88 93 91 88 88 89 92 94 99 99 99 99 99 99 100 98 99 98 98 99 99 99 93 92 93 95 97 96 94 93 97 98 98 98 100 99 99
70 77 84 86 87 89 95 98 94 93 93 97 98 100 100 100 100 100 100 99 99 99 99 100 99 99 100 98 92 92 93 92 90 76 68 64 60 79 75 68 70 72 72
74 80 81 83 88 93 98 99 99 96 96 99 99 100 99 100 100 99 99 100 98 98 99 98 99 95 86 74 58 58 57 56 56 57 64 54 60 74 79 75 74 77 78
77 84 82 85 89 95 99 100 100 100 99 99 99 98 100 99 99 99 97 100 98 99 84 84 83 79 77 75 70 54 55 56 56 53 53 74 81 85 88 88 84 83 81
82 82 85 88 90 94 98 100 100 100 99 98 99 99 96 97 97 99 99 87 75 77 80 78 78 71 71 81 78 72 56 52 56 61 64 67 89 88 84 83 82 76 83
88 86 90 91 94 94 91 98 98 94 92 90 92 97 100 100 99 66 57 60 62 61 64 61 57 51 45 63 71 74 76 77 65 68 72 77 83 82 78 72 67 67 74
88 88 91 94 95 92 91 94 91 90 89 90 90 91 96 91 58 55 57 59 52 47 45 46 40 34 36 47 58 75 84 83 75 80 86 86 83 79 59 53 64 61 54
87 90 93 93 96 94 92 90 89 88 90 90 90 89 83 77 70 55 43 41 39 37 36 33 34 35 39 52 60 64 64 66 70 76 79 60 66 56 54 52 54 56 62
86 89 91 93 92 93 92 87 89 92 90 88 80 58 44 43 39 37 36 34 32 32 30 29 32 35 39 44 71 74 76 78 82 80 79 53 49 51 52 58 64 69 77
90 91 89 89 91 92 91 88 88 88 86 80 54 38 37 41 38 40 44 40 35 32 28 28 28 32 38 69 73 75 79 84 82 80 77 56 51 52 57 66 71 74 85

GFSMW_925_rhum_051.txt.gz
RH
29 30 28 27 27 33 47 59 68 74 80 83 84 84 82 81 81 80 78 77 80 79 70 69 69 70 72 71 73 77 79 77 80 84 76 73 65 53 47 42 38 37 40
34 38 34 32 31 32 32 32 35 39 46 68 87 90 87 83 80 80 81 83 82 82 86 78 76 75 72 72 72 77 87 86 87 85 68 72 64 56 54 49 42 40 40
37 45 46 41 40 38 35 33 33 32 31 32 33 38 53 67 76 86 86 84 87 89 89 85 88 82 82 82 80 82 87 93 90 92 85 76 78 70 56 53 49 46 42
39 48 52 51 47 46 48 48 47 43 40 38 36 35 34 35 35 39 40 40 49 68 81 87 89 90 90 90 85 80 85 94 99 99 93 84 74 75 75 55 47 43 42
42 54 56 50 53 53 51 50 50 51 51 48 46 45 46 48 48 45 39 35 35 40 45 49 51 69 88 88 80 78 83 92 98 100 98 90 90 80 86 91 76 61 53
55 60 53 58 60 56 53 52 52 54 55 55 57 56 56 55 53 53 52 52 51 48 47 52 59 63 76 86 85 86 84 82 89 100 100 96 87 93 91 89 79 76 66
67 71 76 68 61 58 57 56 56 58 59 59 59 60 60 60 62 63 63 63 64 66 69 74 75 76 82 95 100 99 90 88 95 100 100 99 98 98 92 90 87 93 83
74 75 74 68 64 62 61 60 61 62 62 61 61 61 62 63 68 73 78 79 78 78 77 74 76 82 87 94 98 99 98 97 96 96 99 99 90 92 94 97 95 97 93
72 76 72 68 69 68 66 64 64 65 64 64 64 65 65 68 77 82 80 77 79 79 78 78 76 76 81 85 90 99 100 100 100 98 99 99 100 99 97 97 99 96 99
76 78 75 76 74 70 70 68 67 67 67 67 68 74 85 88 88 85 84 80 79 79 81 82 81 80 80 86 94 96 98 97 98 99 98 99 100 100 100 100 100 100 100
76 76 79 77 74 75 74 72 72 71 70 70 73 78 83 83 82 81 84 83 82 80 83 86 87 86 85 87 89 91 92 93 98 96 98 99 99 100 99 99 100 100 100
72 72 81 79 79 79 78 76 77 76 74 73 77 79 81 83 81 80 80 80 78 79 80 83 84 86 87 89 89 89 90 89 90 89 85 89 94 98 99 99 97 98 98
69 72 83 84 84 83 82 81 80 79 77 77 82 83 84 84 85 86 85 82 83 84 83 82 82 82 84 86 89 91 90 88 86 90 93 93 91 92 93 95 96 97 98
69 71 80 83 84 84 83 82 82 82 80 84 86 87 88 91 93 94 93 91 91 90 90 92 94 94 86 87 89 91 92 92 94 96 94 94 92 94 96 97 99 99 99
74 73 82 89 87 86 85 84 84 83 82 86 88 90 92 94 99 100 100 98 97 98 97 99 99 99 100 98 91 94 98 100 100 100 98 99 99 100 99 100 100 100 99
70 72 80 87 88 86 85 87 87 84 84 88 91 92 95 97 99 99 99 99 99 99 99 98 99 100 97 100 94 98 100 99 98 96 99 99 99 98 100 99 100 100 98
70 73 76 81 84 85 85 90 88 87 87 90 92 95 98 100 100 100 100 100 100 99 98 97 96 100 99 100 89 89 90 92 93 91 90 90 90 87 80 82 90 95 94
72 75 79 82 84 86 90 92 92 90 90 93 96 98 99 100 100 100 100 100 98 98 96 97 96 97 99 93 84 85 83 75 61 51 51 53 59 76 80 56 60 69 70
74 74 73 79 86 90 93 94 95 93 94 98 98 99 99 100 100 100 100 98 99 96 94 96 91 77 80 65 50 50 51 51 50 56 72 76 77 83 96 78 73 73 78
71 79 79 82 87 94 97 98 100 99 100 100 98 99 99 100 100 100 99 98 98 98 97 79 76 77 79 82 64 41 41 43 46 49 53 64 86 86 86 84 82 70 78
79 79 80 87 89 94 97 100 99 100 98 97 99 100 100 99 97 97 99 98 93 71 76 73 70 68 69 77 77 75 58 52 52 57 60 63 84 85 82 81 74 73 77
87 84 88 89 91 94 96 100 99 96 99 98 99 98 97 99 98 98 82 75 68 70 66 60 52 45 40 54 65 75 76 78 74 67 70 80 87 82 76 65 67 70 74
87 85 86 90 92 94 94 96 93 95 94 97 96 100 100 98 89 53 57 60 58 51 46 46 41 33 32 40 52 64 73 69 75 67 83 83 73 83 74 52 64 65 52
87 86 89 94 99 94 92 90 90 92 92 91 92 96 98 94 64 60 58 57 51 41 38 37 34 32 33 38 50 56 62 65 69 75 81 72 51 56 58 50 52 57 63
92 87 89 91 92 92 92 89 90 90 91 90 91 93 89 85 73 64 44 40 36 33 31 29 29 30 30 33 52 74 75 77 81 82 83 76 48 49 48 53 61 66 70
90 95 95 95 92 90 91 89 88 89 90 92 92 88 68 51 43 40 39 35 34 34 31 27 27 27 30 49 71 73 74 81 84 83 78 73 57 52 54 56 59 64 74

GFSMW_925_rhum_054.txt.gz
RH
35 29 26 25 25 45 63 67 79 80 82 84 88 89 86 82 78 74 75 79 82 82 81 74 73 74 75 73 73 77 79 82 84 92 87 83 82 78 76 72 61 49 43
35 33 32 33 32 30 36 51 64 72 79 87 88 90 87 88 86 84 85 86 88 89 90 90 89 84 81 80 79 81 87 88 88 92 87 89 77 72 68 66 64 58 49
41 42 43 39 38 38 37 37 38 38 38 45 61 73 80 86 90 93 94 93 94 96 99 99 97 96 96 92 86 84 86 96 93 94 93 86 87 75 63 60 57 56 53
40 43 49 51 44 43 44 42 40 38 35 34 34 34 34 36 38 38 42 45 43 46 63 83 90 92 95 100 95 92 93 96 100 100 99 94 88 89 92 69 63 61 66
41 45 51 50 52 52 51 48 45 43 43 42 41 42 43 45 46 45 42 39 38 39 40 43 48 54 60 68 86 98 98 94 99 99 99 95 98 95 90 94 83 74 67
43 46 50 56 64 60 55 54 52 54 54 54 53 52 52 52 52 52 51 50 49 50 53 56 61 64 68 89 94 99 100 99 98 100 100 99 95 94 96 97 93 87 79
48 65 76 75 68 62 60 58 57 59 60 59 59 58 58 58 58 60 62 63 64 66 65 65 69 74 82 92 99 98 98 100 100 100 99 99 99 100 97 95 94 94 87
67 68 79 73 67 63 62 60 60 61 62 61 61 62 62 63 67 73 78 80 78 77 77 77 76 74 78 85 98 100 100 100 99 99 100 99 100 94 99 99 97 98 97
80 84 82 73 71 69 66 64 64 65 66 64 64 65 68 72 81 86 84 82 78 76 76 79 81 81 80 84 94 98 98 100 100 100 100 100 100 100 98 100 100 100 99
82 84 84 79 74 70 69 68 68 67 68 67 68 72 83 89 90 89 87 84 80 77 78 82 85 86 86 88 96 100 98 91 98 95 96 100 100 100 99 100 99 100 100
83 84 86 81 76 75 72 70 70 70 70 70 72 76 83 86 85 85 84 82 80 78 79 84 86 85 87 91 92 93 96 99 99 98 96 91 97 99 94 95 98 98 99
80 82 88 85 84 81 79 76 75 74 74 73 75 78 82 85 84 83 82 81 80 80 80 83 85 86 88 90 91 92 93 92 91 92 86 88 95 90 90 94 93 96 97
80 84 89 89 86 84 81 79 78 76 75 76 80 83 85 86 87 88 87 86 85 85 86 85 84 84 86 89 92 94 93 92 91 91 90 92 91 93 95 95 95 97 98
77 84 89 87 84 84 82 81 80 79 79 81 85 87 90 91 93 96 94 93 93 92 92 94 98 94 89 90 93 94 96 99 100 99 100 99 97 96 98 99 99 98 96
80 80 87 90 87 86 84 83 82 83 83 86 88 90 92 94 98 100 100 100 98 98 100 98 97 98 100 98 99 100 99 97 98 99 98 97 99 99 98 98 98 94 96
72 78 82 88 89 86 85 84 84 84 86 88 92 93 95 98 100 100 100 100 100 99 99 99 99 99 100 100 100 100 98 98 93 96 100 98 95 94 99 99 99 99 97
70 74 79 84 83 83 82 86 87 85 86 90 92 94 97 100 100 100 100 100 100 99 99 100 98 99 99 100 92 88 88 86 80 75 73 74 72 72 58 59 68 78 84
74 76 78 78 78 79 82 87 89 88 89 92 94 96 99 100 100 100 100 100 100 97 97 98 98 95 97 87 72 70 57 45 45 43 43 53 74 88 69 58 56 68 76
73 72 69 72 79 82 85 91 93 92 92 94 97 99 100 100 100 100 100 100 98 96 92 88 77 71 78 60 48 48 47 44 44 56 74 82 79 86 96 71 66 62 76
68 73 73 76 81 86 89 94 96 95 96 97 98 99 100 100 100 99 99 99 96 95 96 77 73 79 80 81 48 38 38 39 45 51 54 59 87 86 84 82 79 62 74
79 77 79 84 84 88 94 98 99 99 97 98 99 100 100 100 100 99 98 99 99 99 77 73 72 74 70 76 79 72 56 56 55 57 59 65 88 82 80 78 61 69 76
89 83 85 87 87 91 96 100 100 97 98 98 100 100 100 100 99 97 99 96 72 66 65 66 57 47 40 54 64 76 78 79 65 61 62 71 79 83 83 70 65 71 65
87 83 83 88 90 94 94 98 96 97 98 100 100 100 100 98 98 100 80 70 64 58 54 49 43 35 31 35 43 54 68 64 72 60 73 80 66 61 60 53 68 56 51
86 83 85 90 95 92 93 92 91 94 97 99 98 99 99 99 100 71 58 56 56 51 46 42 37 32 30 30 37 44 52 59 64 71 79 79 67 44 51 46 46 51 59
84 84 86 87 87 88 89 89 90 92 96 96 94 100 100 100 83 63 58 55 49 42 36 32 30 28 27 25 32 53 74 75 79 90 85 80 73 47 45 46 50 56 63
88 92 94 95 91 89 88 84 86 89 92 94 94 96 97 97 88 76 66 45 40 37 33 33 26 26 26 28 55 73 73 74 82 84 83 67 60 61 52 52 54 56 59

GFSMW_925_rhum_057.txt.gz
RH
40 36 32 27 25 36 76 75 79 81 85 85 84 82 80 76 74 73 74 75 75 76 80 83 82 80 78 76 78 84 85 85 82 96 89 81 75 78 76 75 70 76 73
38 34 30 28 25 28 43 64 71 79 82 84 86 89 86 86 86 86 85 86 87 89 93 94 93 91 90 88 83 84 96 92 86 94 94 87 72 69 67 66 64 64 65
40 35 35 33 33 34 35 43 54 70 78 84 92 94 96 95 93 94 95 96 97 98 99 100 100 99 100 99 99 98 97 100 93 92 95 91 78 74 67 63 60 60 61
40 38 38 39 40 41 42 41 42 42 41 43 50 54 58 53 48 46 50 56 58 52 54 70 91 100 100 99 99 100 100 100 100 99 97 98 94 92 93 73 69 67 67
41 37 40 37 43 50 52 48 44 42 40 39 38 38 38 39 41 43 43 44 45 44 43 44 48 52 58 72 96 97 99 99 100 99 98 100 100 100 97 96 84 78 74
39 38 37 43 52 59 57 54 50 50 49 48 47 48 48 50 51 52 51 51 54 59 65 67 69 72 72 80 97 99 97 98 100 99 100 99 96 95 99 98 94 91 83
46 42 55 66 69 63 60 58 54 55 55 53 53 53 54 55 56 58 60 62 64 65 66 66 66 68 74 83 100 98 98 96 97 99 100 99 97 100 93 95 94 95 90
43 49 56 67 74 65 63 62 60 60 59 58 57 57 56 57 59 64 71 76 77 77 75 73 73 73 72 75 89 98 96 99 100 100 100 98 99 100 100 99 97 98 95
48 56 73 77 72 70 67 63 62 62 62 62 62 62 63 65 70 80 83 82 78 75 72 72 72 74 77 79 92 96 92 99 100 100 100 100 100 100 99 100 100 99 96
69 79 78 80 74 69 68 67 65 64 63 63 64 66 74 81 87 91 89 84 80 78 77 79 81 82 83 86 98 99 95 92 92 96 96 100 100 100 98 99 99 99 100
78 80 82 82 78 75 71 70 69 68 68 68 68 72 78 84 88 90 87 83 80 78 79 82 85 84 86 90 92 97 99 98 95 97 93 90 92 94 92 88 92 98 99
78 79 84 86 83 79 75 73 72 71 70 71 74 77 83 85 85 84 83 82 81 80 80 83 85 86 88 92 93 92 93 93 92 90 86 85 88 88 89 88 88 92 94
79 82 86 86 86 82 78 75 74 74 74 75 78 82 84 87 88 89 87 85 84 85 86 86 84 85 87 90 93 93 91 91 92 91 88 90 91 90 91 91 92 92 94
75 79 84 84 87 82 81 80 78 76 76 79 83 86 89 91 93 94 92 92 91 92 94 97 99 93 93 95 98 100 100 100 99 99 99 97 94 97 98 96 95 93 91
77 77 80 82 87 86 83 81 78 78 79 82 86 88 92 96 99 99 99 98 97 99 99 98 98 99 100 100 99 100 99 99 99 98 98 99 100 99 96 95 94 91 94
69 71 76 82 86 87 84 82 80 80 82 85 88 90 93 96 99 100 99 100 99 99 99 99 99 99 99 99 98 98 98 98 96 99 97 95 94 97 98 96 98 97 96
62 72 72 76 82 82 79 82 80 81 86 89 92 93 95 99 100 100 100 100 100 100 100 99 99 99 99 100 92 89 86 83 83 83 77 65 67 60 50 52 58 70 80
64 69 72 78 76 76 80 79 84 85 87 91 92 94 96 100 100 100 100 100 100 99 99 99 99 99 100 90 75 62 47 42 42 43 50 68 85 86 60 52 54 67 84
54 61 67 70 72 77 79 83 89 88 90 92 92 94 97 99 100 100 100 100 99 98 93 87 79 70 75 51 45 42 42 44 54 63 72 72 82 89 86 64 57 57 75
66 68 68 70 74 80 81 87 92 92 94 92 93 96 98 99 99 99 99 100 98 93 90 78 73 75 73 74 37 37 37 41 46 51 55 78 86 85 87 78 59 66 74
78 76 78 82 80 83 86 92 94 96 92 92 94 98 100 99 99 99 100 99 97 96 86 71 74 74 74 80 85 62 54 52 52 55 57 60 90 84 80 79 61 74 76
90 84 85 86 86 86 88 95 99 94 94 96 98 100 100 100 100 100 99 99 100 98 77 69 64 54 50 55 67 78 77 66 55 54 56 67 79 78 84 80 66 79 64
86 84 83 89 90 90 90 99 98 98 98 100 100 100 100 100 100 100 98 100 81 72 68 62 49 38 31 33 48 69 71 63 66 57 66 84 67 52 46 55 72 52 48
86 84 85 91 97 93 93 91 94 96 98 100 100 100 100 100 99 99 99 74 66 60 51 47 42 37 31 28 31 41 44 51 60 66 72 77 72 55 46 45 44 47 53
82 81 82 85 84 86 90 90 90 92 98 99 99 100 98 100 99 99 65 56 50 45 41 35 33 31 28 24 23 32 47 66 70 87 88 81 73 61 48 44 45 48 52
81 86 88 84 85 89 89 91 91 89 92 99 99 98 100 99 98 88 64 62 60 50 41 37 30 26 26 23 28 60 78 74 75 83 83 80 56 51 53 49 49 50 53

GFSMW_925_rhum_060.txt.gz
RH
30 36 34 30 28 33 73 79 88 90 91 93 89 88 83 83 86 83 87 85 82 82 85 85 84 87 87 82 81 80 82 81 81 85 78 75 77 76 72 66 66 68 72
32 35 34 32 30 28 41 72 79 80 85 83 83 82 83 82 80 86 90 88 89 89 90 91 91 92 91 88 87 88 88 88 89 88 85 79 56 55 66 66 66 64 63
30 31 32 32 37 37 38 46 65 84 86 86 90 92 90 90 93 97 98 100 97 99 100 100 99 100 100 99 97 99 99 98 94 98 90 87 61 61 62 67 63 61 60
36 33 32 32 37 43 43 46 45 58 68 79 81 81 78 76 69 72 71 72 76 76 71 80 95 99 99 99 99 99 100 100 99 100 98 99 93 88 82 72 67 66 67
34 33 32 33 38 49 46 50 53 52 48 48 49 50 48 46 48 46 46 47 44 43 43 45 51 65 83 78 91 100 99 100 100 100 97 97 100 98 98 91 80 84 77
30 29 29 33 40 58 47 52 56 57 47 46 46 50 50 49 51 55 54 58 63 68 58 60 64 68 82 92 92 95 98 99 99 98 100 99 96 92 96 95 88 88 76
27 29 29 36 41 60 63 64 59 59 59 58 57 56 57 58 59 60 60 63 64 76 85 67 70 73 71 76 95 99 100 100 96 97 100 98 100 99 94 95 92 87 83
23 30 33 34 44 59 62 60 58 60 61 61 61 62 61 64 64 71 73 75 77 83 79 74 73 77 76 84 94 97 98 92 93 100 100 100 100 100 100 94 91 93 82
25 27 38 39 45 58 62 59 59 59 62 63 64 66 70 71 72 81 82 86 81 79 76 72 74 74 75 82 97 98 96 96 100 100 100 100 100 100 100 100 97 96 93
31 34 37 52 55 58 61 60 59 60 65 66 66 70 76 78 83 88 86 84 81 78 76 76 76 78 79 85 99 97 94 96 96 99 99 100 99 100 99 100 100 99 99
38 48 52 60 65 68 67 64 64 66 66 68 70 73 76 81 86 86 87 84 82 78 78 78 81 82 85 91 98 99 95 92 94 92 92 92 95 98 97 97 92 95 99
50 55 59 63 67 68 68 67 66 65 67 69 71 74 79 82 82 82 85 84 83 82 82 82 84 86 87 90 91 92 93 91 91 91 93 92 91 95 95 96 94 95 94
55 57 60 61 62 64 67 67 71 69 70 73 74 77 78 81 82 85 86 88 89 90 88 88 88 89 90 94 94 93 94 94 93 91 90 92 91 93 95 97 98 99 100
52 54 56 57 60 64 66 70 72 72 75 78 77 77 80 83 86 90 91 92 92 92 93 96 97 94 93 97 100 100 100 99 99 100 99 96 96 99 100 100 99 97 99
46 53 55 53 58 65 70 70 70 73 76 79 82 84 87 92 97 98 97 96 96 97 99 99 99 100 99 99 99 100 100 99 99 99 99 100 99 97 96 100 100 99 99
38 46 52 54 57 62 68 71 73 74 77 77 80 85 91 93 96 99 99 99 100 99 99 99 100 100 100 99 100 99 99 99 100 100 94 91 93 97 97 98 96 92 93
36 38 44 52 57 60 67 72 76 76 78 76 79 85 90 95 100 100 99 100 100 100 100 99 100 100 100 99 99 97 94 93 93 92 81 69 62 57 57 63 59 64 91
37 36 39 47 54 61 71 77 80 78 79 80 82 88 94 99 100 100 100 100 100 100 100 99 99 100 99 100 82 72 62 53 46 40 46 63 74 75 59 68 68 76 79
35 34 39 45 56 67 78 81 84 82 84 84 85 91 98 100 99 100 100 100 100 100 100 99 99 96 91 60 41 35 38 41 44 51 71 74 78 93 75 72 69 57 71
42 47 53 54 62 69 76 79 82 86 87 87 90 94 100 99 99 99 100 99 100 97 92 84 73 69 78 57 37 39 52 49 49 57 68 69 80 84 90 73 56 52 60
64 68 66 64 67 76 81 81 84 90 89 90 96 100 99 100 100 100 100 100 100 95 89 77 74 70 73 75 58 43 48 47 50 52 56 66 84 83 80 79 55 66 68
74 74 72 77 82 85 83 84 85 89 93 95 100 100 100 100 100 100 100 100 98 97 91 78 75 74 72 70 82 82 62 60 57 56 59 66 68 73 82 83 67 76 68
72 75 74 79 83 86 82 81 83 93 94 99 100 100 100 100 100 100 100 100 100 97 78 71 63 56 49 50 51 77 83 83 64 63 60 76 69 57 49 50 68 66 52
71 75 75 74 79 85 85 82 88 94 96 96 100 100 100 100 100 100 100 100 97 85 65 63 53 45 40 38 37 58 75 74 72 64 79 79 74 62 55 53 52 53 53
74 75 73 73 75 83 86 88 94 98 98 97 100 100 100 100 100 100 99 98 75 64 56 50 45 45 40 32 26 30 50 59 67 77 82 80 72 61 51 48 49 51 55
79 80 79 82 89 92 93 92 92 91 96 99 100 100 100 100 100 100 100 95 70 50 46 46 40 32 28 25 22 24 33 68 82 83 78 70 67 55 47 45 44 46 55

GFSMW_925_rhum_063.txt.gz
RH
22 30 32 30 28 48 62 70 79 84 83 86 83 80 78 76 73 69 71 73 72 73 76 78 75 75 77 75 73 73 73 75 78 79 78 76 72 70 68 66 62 60 64
22 31 33 30 28 27 48 64 71 80 82 84 87 82 80 75 71 75 78 79 79 81 81 81 80 78 80 81 78 76 77 79 79 88 84 86 67 56 56 61 62 64 62
24 26 31 32 33 30 29 48 65 71 75 81 81 82 84 87 87 83 85 87 90 91 92 91 91 92 92 90 88 89 90 95 89 88 91 88 71 59 60 64 64 62 61
26 31 29 30 34 35 40 38 46 64 77 82 83 86 81 76 72 71 80 89 80 80 79 85 95 99 99 99 99 99 99 100 99 97 94 88 93 92 85 61 68 65 62
27 31 32 31 31 38 48 46 47 49 56 65 77 78 77 70 61 55 54 51 55 49 51 50 58 62 70 81 86 91 94 93 94 92 90 93 96 98 97 88 77 75 79
28 29 31 30 32 45 52 53 50 50 52 52 53 53 50 46 49 50 50 50 54 64 69 60 66 72 77 85 87 88 91 94 95 91 90 89 92 97 99 98 89 84 80
23 24 27 28 32 49 60 54 51 54 53 51 49 48 50 49 49 52 53 52 53 62 73 76 76 78 81 80 85 90 92 93 94 91 87 84 88 93 94 94 95 90 83
19 21 24 31 33 45 58 58 53 52 52 52 50 54 57 56 56 60 60 61 63 66 77 78 77 77 78 78 84 87 89 90 93 90 97 97 98 99 99 97 93 98 92
19 21 25 31 30 39 53 55 52 53 55 54 55 55 58 61 61 68 72 72 76 76 75 77 75 76 73 80 86 91 84 95 100 98 99 100 100 100 100 100 97 91 96
26 25 25 29 35 40 51 52 50 51 55 57 57 60 65 71 73 74 74 75 74 77 77 79 80 82 83 87 91 94 94 92 97 99 99 100 100 100 99 99 99 99 97
31 34 35 37 45 50 54 53 52 54 58 58 60 63 66 71 74 74 76 76 76 77 77 79 80 81 82 84 90 98 93 88 92 91 91 90 93 95 95 95 95 99 98
36 39 42 45 51 56 58 57 56 58 58 59 60 62 66 70 71 71 76 76 76 78 79 80 80 80 83 84 84 87 89 90 89 89 91 89 89 93 94 95 93 93 94
32 41 45 48 53 57 58 59 60 59 61 62 62 65 67 70 69 71 75 78 79 81 82 81 80 82 86 87 87 86 86 86 86 86 87 88 88 93 94 96 97 98 97
28 38 44 46 50 54 56 57 61 62 65 69 67 66 67 70 71 74 79 80 82 82 82 85 87 91 93 96 98 98 98 99 100 99 95 95 96 98 99 98 99 99 97
31 32 44 45 48 53 56 58 61 63 66 69 71 72 74 78 81 83 85 85 87 86 90 94 98 99 99 99 99 99 99 99 99 100 99 99 96 95 96 98 98 98 97
30 31 35 44 45 50 57 60 61 63 66 67 70 73 78 82 88 90 94 95 95 96 97 98 98 99 99 99 100 100 99 99 100 99 96 92 94 97 98 96 91 87 90
36 31 32 36 44 47 53 59 65 65 66 66 67 71 77 81 88 93 97 100 99 99 99 99 98 99 99 99 98 98 99 99 99 94 90 80 68 61 59 54 50 70 44
39 36 30 33 37 45 51 60 67 67 68 70 69 75 79 85 94 99 99 99 99 100 99 99 99 99 99 99 97 90 88 87 78 60 49 56 68 56 60 57 62 69 76
41 38 32 33 36 43 53 66 73 71 72 73 73 78 83 89 98 100 99 100 100 100 100 100 100 99 98 97 64 45 39 36 39 46 69 72 78 87 60 70 53 54 66
50 46 44 43 39 45 58 70 74 75 76 76 78 82 87 94 100 99 99 99 100 100 100 100 98 95 87 66 40 39 51 45 53 54 68 50 75 81 82 71 56 49 54
56 64 57 51 50 55 64 70 73 79 80 81 83 87 92 99 99 99 100 100 100 100 94 87 73 64 68 79 49 34 46 43 44 48 53 59 62 78 80 76 60 62 65
58 63 62 64 67 70 71 73 74 80 83 83 88 94 98 100 100 100 100 100 100 99 95 86 77 73 73 74 83 70 53 56 53 52 54 58 56 70 77 84 78 69 64
58 64 66 70 74 77 74 73 74 80 82 86 90 96 99 100 99 100 100 100 100 98 89 76 66 65 63 60 64 81 87 81 70 56 57 61 64 58 54 49 69 72 59
60 62 66 67 69 73 73 70 74 80 82 85 90 99 100 100 100 100 100 100 99 97 88 70 65 57 50 42 40 50 76 84 82 70 54 68 79 73 62 56 54 51 50
65 68 66 65 66 71 73 72 77 83 85 88 95 100 100 100 99 100 98 99 98 95 82 63 59 51 45 37 30 29 49 65 62 67 72 77 79 70 61 52 48 47 50
69 75 76 74 72 74 81 84 86 88 93 95 96 100 100 100 99 100 100 99 99 81 71 54 49 44 40 34 32 40 51 58 66 76 79 77 70 64 56 45 42 43 46

GFSMW_925_rhum_066.txt.gz
RH
26 31 31 27 34 58 64 72 79 80 79 78 75 75 73 72 70 68 66 67 69 70 72 75 74 72 72 72 72 74 73 69 68 74 80 77 77 75 74 71 70 63 63
26 37 32 30 28 38 62 67 77 83 82 83 82 80 80 78 76 73 70 72 73 75 76 78 79 76 76 75 78 80 81 77 75 82 88 91 72 63 61 64 67 62 63
28 41 37 31 27 27 34 65 72 79 84 84 86 84 82 82 79 78 79 80 81 80 81 82 82 82 80 81 83 85 88 87 85 82 86 96 90 77 61 64 61 63 63
32 37 37 36 33 29 28 31 62 73 79 82 84 86 85 84 81 78 80 82 87 88 88 90 92 93 90 88 89 88 88 95 100 97 92 85 85 93 88 63 66 67 67
34 33 38 34 35 35 32 31 40 65 76 82 81 84 85 79 74 71 82 82 76 61 56 55 53 59 65 73 84 86 91 89 90 84 81 88 78 76 97 91 78 72 75
36 35 34 32 32 35 40 38 38 43 58 74 83 83 80 75 60 57 53 49 50 53 53 52 53 60 66 72 80 87 89 90 93 88 87 82 82 92 87 97 90 87 81
33 36 41 39 37 40 45 49 47 46 46 48 55 57 54 51 47 48 49 51 53 57 62 66 64 70 75 76 74 74 82 92 91 85 86 82 80 76 89 99 94 95 87
24 23 26 36 41 39 45 54 51 49 48 49 48 48 49 50 51 53 54 56 57 62 71 73 69 71 73 71 72 78 82 92 90 94 99 94 96 95 92 91 89 97 96
28 25 28 29 32 51 56 55 52 51 51 51 50 51 52 52 55 57 59 65 68 69 70 68 69 70 70 70 74 80 91 91 95 86 99 91 93 95 100 99 100 97 99
35 34 32 32 32 39 52 54 53 54 53 53 53 55 55 56 59 64 67 72 73 70 68 72 73 72 72 73 78 90 91 88 91 87 97 99 100 100 98 100 100 100 97
41 44 43 37 38 47 52 54 52 54 56 57 57 62 66 62 59 66 72 73 73 72 73 74 74 75 74 77 82 94 95 90 86 88 94 93 93 94 93 95 97 98 98
42 45 45 45 50 52 55 54 52 56 58 58 59 63 63 65 67 70 73 74 74 76 76 77 76 77 78 79 83 87 89 89 88 89 91 88 89 89 89 93 95 94 92
34 46 53 52 54 57 58 57 56 58 59 59 61 64 67 68 69 70 72 74 75 78 80 79 80 80 80 83 84 85 86 86 87 86 87 87 90 92 93 95 94 96 94
35 37 52 56 52 56 59 59 60 60 61 62 62 64 66 68 69 71 75 77 79 81 82 83 83 84 87 88 90 92 92 92 93 91 90 90 94 97 98 99 98 98 96
38 37 45 57 53 56 57 58 61 62 63 64 66 67 68 70 72 75 79 82 82 84 85 88 90 96 98 99 99 99 99 99 99 98 99 98 97 96 98 96 98 96 93
44 43 38 50 52 54 56 58 60 62 65 68 70 71 72 74 77 81 85 87 89 90 90 92 94 94 96 98 98 100 99 100 98 98 99 96 95 98 97 93 90 91 94
46 46 46 43 45 50 54 58 61 63 65 67 69 72 75 79 84 86 88 94 94 94 95 97 97 98 97 99 99 100 100 98 98 95 92 81 79 64 57 48 68 46 52
50 51 48 44 37 43 51 57 62 64 65 67 67 70 75 80 84 89 95 100 97 98 99 99 100 98 98 98 97 96 98 100 96 85 61 50 54 47 52 55 60 70 70
55 54 53 52 42 42 48 57 65 66 67 70 69 72 77 82 87 95 100 99 100 100 100 100 100 100 98 99 95 80 76 60 43 42 62 77 85 80 56 60 47 54 59
55 58 60 59 52 45 52 61 69 69 70 72 72 75 80 84 88 98 99 97 99 99 99 99 100 98 98 96 53 41 42 44 51 57 64 64 75 81 63 68 58 49 58
55 60 63 62 59 57 61 70 75 76 75 75 76 79 84 88 97 99 100 99 99 100 100 100 99 96 80 67 44 42 47 44 44 46 50 52 53 73 76 70 63 56 65
58 59 66 67 68 66 66 72 75 77 78 79 81 85 88 94 98 99 100 100 100 100 99 94 83 67 62 75 78 62 42 49 46 48 49 53 55 51 66 83 80 70 63
59 60 65 69 73 74 73 75 76 79 82 83 86 89 91 96 100 100 100 100 100 100 99 93 81 72 66 63 79 89 83 69 54 52 51 54 58 55 52 54 73 72 63
50 62 64 69 72 74 76 73 75 78 82 85 89 91 95 98 99 100 100 100 100 100 98 89 77 67 62 57 50 64 74 82 89 63 62 51 61 68 62 60 56 58 51
56 66 67 67 67 69 73 72 73 77 81 84 87 90 97 100 100 100 98 99 99 98 96 90 80 64 57 47 38 31 36 51 70 71 64 68 72 69 66 59 48 45 45
66 67 72 72 70 69 71 73 74 79 82 87 91 97 100 100 99 100 100 99 99 98 100 90 76 60 50 42 38 38 40 50 64 69 68 67 69 73 68 61 50 44 45

GFSMW_925_rhum_069.txt.gz
RH
34 34 34 34 60 66 69 71 75 75 76 74 76 72 72 69 66 64 65 67 69 73 74 73 75 72 69 68 68 70 74 75 68 70 73 73 70 67 61 59 68 75 68
36 36 36 30 39 60 65 63 70 73 73 73 72 72 69 70 70 67 68 68 67 70 72 73 75 73 71 72 73 74 72 68 64 69 76 90 74 62 64 61 63 74 65
37 44 38 30 33 55 66 68 70 68 76 74 74 77 74 76 77 76 74 73 72 74 76 77 77 78 77 75 74 77 74 80 73 75 80 93 94 83 64 64 67 64 62
34 39 39 37 31 35 55 68 73 66 77 79 73 74 81 84 80 78 78 81 81 77 81 82 83 84 84 83 83 83 86 92 94 94 82 90 93 93 90 69 67 70 68
38 43 44 37 30 29 31 46 71 76 72 75 80 74 70 78 74 84 83 85 85 84 89 88 88 83 82 80 74 76 85 89 93 93 93 83 78 83 90 92 81 66 74
42 42 39 36 35 34 33 34 44 73 84 64 77 76 74 85 80 80 84 87 83 73 50 45 47 49 55 64 68 75 82 86 89 91 89 83 86 88 93 94 85 81 71
43 44 47 42 38 36 35 33 35 39 62 79 82 84 84 84 73 68 62 58 51 50 52 55 58 58 60 66 69 69 70 76 89 93 86 83 80 79 78 87 92 95 86
32 33 40 44 44 42 38 39 39 39 40 49 59 72 76 75 66 57 49 50 52 54 60 69 66 64 60 62 64 63 66 75 85 94 92 88 98 97 99 93 96 99 98
40 37 35 34 35 48 49 46 46 47 49 47 49 51 50 49 49 50 50 50 57 60 65 65 65 61 60 62 63 65 72 87 95 93 90 78 90 88 80 85 99 98 95
43 45 45 38 36 35 47 52 49 45 46 50 52 54 51 51 50 55 59 45 55 63 64 62 64 66 67 68 70 73 86 90 92 93 81 86 91 100 100 100 98 100 98
44 47 47 42 42 44 53 58 56 54 54 54 55 57 58 59 60 63 68 68 62 66 67 67 70 72 72 72 74 84 86 89 88 88 86 92 93 94 94 95 97 99 100
43 49 49 48 48 51 58 59 58 56 55 56 57 58 58 60 65 71 75 74 72 70 69 71 73 74 75 75 78 85 87 89 88 86 86 89 88 90 88 87 86 92 92
36 52 58 56 56 55 59 59 58 57 58 59 60 62 62 64 66 68 69 69 69 72 74 75 77 78 78 79 82 85 86 88 87 85 86 83 85 86 88 92 90 92 94
44 44 61 65 56 57 58 61 60 60 60 61 62 66 67 67 69 71 72 72 73 76 80 81 80 80 81 82 87 90 89 88 88 89 89 90 92 94 96 98 96 98 97
50 52 53 58 62 59 58 60 60 61 61 62 63 64 66 68 69 71 73 75 78 80 82 83 86 88 92 95 95 98 97 94 98 98 96 95 96 96 96 96 96 94 94
52 51 52 52 52 64 60 59 60 62 62 63 64 66 68 70 71 73 76 80 82 84 86 87 88 88 90 93 95 99 100 99 99 99 99 96 96 98 97 95 94 95 95
55 56 58 57 53 49 60 60 60 61 64 64 66 68 69 70 73 77 82 84 89 89 89 91 93 94 94 96 95 100 100 100 98 98 96 93 88 77 67 77 68 68 71
60 63 62 61 58 56 55 60 59 62 64 65 67 71 73 74 78 82 86 88 94 93 94 96 98 97 96 99 93 99 97 100 99 96 90 55 45 41 51 46 58 62 58
63 63 60 62 63 59 54 66 65 64 65 66 68 71 73 77 83 86 88 98 100 99 99 99 100 99 99 97 96 93 96 100 96 69 57 68 69 65 59 54 49 60 58
47 54 62 61 65 63 58 69 71 69 69 67 67 69 72 75 81 84 89 100 100 99 100 99 99 99 98 98 89 69 65 52 44 56 66 71 76 89 64 61 54 49 57
53 47 61 65 67 69 67 78 77 74 69 69 69 71 74 78 82 88 97 100 100 100 100 100 100 100 99 98 85 56 46 45 48 49 55 53 79 81 78 63 60 51 62
58 54 63 66 66 71 74 78 78 74 74 73 74 76 79 84 89 95 100 100 100 100 100 100 100 99 95 71 82 72 57 43 42 43 46 49 70 65 76 83 74 71 66
72 68 63 69 65 70 75 78 76 77 78 78 79 81 84 89 90 98 99 100 100 100 100 100 95 86 71 63 80 79 69 65 48 45 46 47 62 58 60 60 72 83 69
76 75 71 75 73 68 72 78 78 79 80 82 84 87 91 92 92 98 100 100 100 100 100 99 95 86 74 63 61 82 88 84 85 60 58 58 64 61 56 52 58 62 59
71 75 76 76 76 70 68 72 75 79 81 84 87 92 93 95 93 98 98 99 99 99 98 98 93 85 72 59 50 49 65 73 84 85 73 66 70 77 72 63 56 49 45
72 72 80 83 82 76 71 70 75 78 78 84 87 92 95 95 99 100 100 100 99 100 99 98 94 89 83 60 47 43 36 34 52 90 76 63 62 65 66 70 60 52 45

GFSMW_925_rhum_072.txt.gz
RH
38 37 45 64 71 71 67 66 74 70 69 68 65 71 71 75 66 62 66 67 69 71 74 74 73 76 74 69 68 69 71 72 65 66 64 62 64 66 62 63 63 66 70
42 36 38 42 71 64 68 69 65 67 70 70 69 69 72 74 71 59 64 65 68 65 70 75 74 75 74 69 71 74 76 75 67 67 72 90 76 67 64 67 66 63 72
45 44 44 38 40 72 64 59 62 65 68 72 69 77 77 76 73 70 68 69 66 68 70 70 74 75 74 72 74 73 77 79 72 68 85 89 96 87 65 66 68 70 67
44 40 44 42 35 43 67 64 59 61 63 67 78 76 76 81 74 70 68 72 77 74 72 76 74 77 76 79 79 79 86 89 90 91 90 93 97 97 91 72 72 73 70
48 44 48 39 33 33 54 66 65 57 65 74 74 69 76 70 65 64 63 76 83 81 84 81 80 83 82 82 88 91 84 82 86 92 92 89 85 84 98 88 80 75 73
49 45 42 41 39 34 36 44 71 66 68 71 65 60 59 63 67 79 83 80 84 80 88 87 88 86 73 56 50 50 59 68 77 82 88 94 87 87 94 99 93 87 78
46 47 48 47 40 37 34 33 36 57 65 67 69 76 62 63 70 65 61 78 83 82 79 65 48 41 40 40 46 58 61 67 75 81 88 90 85 86 86 88 92 93 86
38 43 45 47 45 43 43 42 37 38 49 72 80 81 72 65 66 68 77 80 78 74 65 47 45 48 58 61 58 61 60 64 68 73 88 94 89 87 93 96 95 99 99
47 44 41 37 36 42 41 42 45 41 41 43 51 64 80 84 83 77 71 68 63 57 62 53 59 65 62 61 61 59 61 67 73 83 94 86 86 78 91 91 89 96 98
46 49 49 41 35 35 37 51 51 47 45 47 47 48 55 62 65 61 54 47 48 55 64 71 71 64 60 60 64 64 66 77 84 90 97 93 87 88 96 99 100 100 99
46 49 50 47 45 45 47 52 61 58 52 51 52 53 55 55 55 58 62 62 63 64 68 69 68 68 67 70 71 70 76 87 88 90 91 92 93 97 93 99 100 100 99
44 53 53 50 48 47 50 58 63 59 56 55 56 58 59 59 59 61 63 65 67 68 67 67 71 72 72 73 73 75 84 89 87 90 89 89 92 94 91 92 90 92 93
49 51 59 62 60 57 54 55 60 60 59 59 59 61 62 62 64 66 70 72 71 70 71 72 73 74 74 76 77 79 84 86 88 90 85 85 85 88 86 88 87 87 89
53 55 57 56 52 58 62 62 58 59 62 63 63 64 64 65 66 68 70 70 69 69 72 74 75 77 78 79 80 84 88 88 88 90 89 88 89 88 90 94 95 92 97
55 56 59 62 55 54 58 63 64 61 63 64 64 64 65 66 66 67 69 71 72 73 76 78 80 82 84 86 91 93 96 93 93 93 93 92 94 96 95 96 96 94 94
62 61 62 63 62 60 58 59 65 65 62 63 63 65 67 67 68 70 73 75 76 78 80 83 86 87 88 82 87 92 100 100 99 99 99 98 96 96 95 94 92 94 93
60 64 66 69 65 63 62 60 59 64 66 64 65 65 67 69 71 73 75 77 79 82 86 88 89 90 89 90 92 91 99 100 100 99 97 97 95 86 80 86 77 83 87
56 56 57 62 69 66 62 63 58 71 67 67 66 66 68 71 73 76 78 80 83 88 90 91 92 93 93 98 99 97 94 100 99 98 97 91 86 69 49 53 50 55 52
58 57 54 57 65 66 66 69 67 75 72 67 66 66 67 71 75 78 82 86 88 93 93 94 96 96 94 99 99 97 97 100 100 98 93 61 43 53 55 50 53 64 56
65 64 62 60 62 66 70 72 75 84 78 70 66 66 68 71 75 78 84 88 96 100 100 100 99 99 98 100 99 98 94 100 99 86 61 67 69 82 78 53 45 50 56
73 73 71 70 66 66 74 75 81 88 80 77 71 69 69 71 73 78 86 90 98 100 100 100 100 100 99 98 100 66 81 77 56 52 60 73 82 90 88 58 55 49 52
77 76 80 80 72 66 74 76 79 81 83 79 73 72 73 75 78 82 89 94 99 99 100 100 100 100 100 99 100 87 49 43 46 44 44 47 69 82 80 81 64 69 68
69 73 79 80 76 70 73 80 73 78 81 79 76 76 78 80 83 87 94 99 100 100 100 100 100 99 99 98 88 82 76 62 50 40 41 44 61 79 75 76 78 86 76
72 68 72 81 83 79 78 73 74 77 84 83 83 84 85 89 91 94 93 99 99 100 100 100 100 99 95 88 71 86 81 71 72 51 49 51 65 67 62 55 61 71 77
77 82 75 81 86 82 83 79 73 76 83 86 86 88 89 93 94 91 90 97 98 99 99 99 99 99 94 86 68 60 81 78 75 80 63 66 70 73 73 67 59 55 54
79 87 86 86 85 82 83 77 81 76 81 87 89 92 95 98 98 96 97 98 99 100 100 100 100 97 96 89 76 55 55 68 85 99 85 73 69 68 70 70 62 58 50

GFSMW_925_rhum_075.txt.gz
RH
42 42 52 75 81 81 77 70 66 68 72 73 79 78 77 78 71 74 72 67 73 69 73 74 74 73 73 71 73 73 70 69 67 75 65 61 61 63 61 62 65 68 72
44 39 36 45 72 73 72 72 68 68 65 68 84 83 73 77 66 73 65 60 66 70 72 73 75 74 77 77 74 72 73 74 74 77 80 92 75 67 66 66 65 66 65
50 46 41 39 39 64 75 73 61 65 68 79 80 76 68 68 76 76 70 66 66 69 71 71 72 75 77 77 73 71 75 77 74 76 74 88 93 92 71 67 67 68 70
55 50 44 41 40 36 52 65 61 61 58 62 75 70 60 74 62 70 76 73 70 69 72 72 72 72 76 80 76 77 74 75 81 89 90 90 96 96 93 74 73 74 73
55 51 46 37 33 35 35 52 66 64 67 62 69 79 80 69 61 63 65 69 72 83 74 77 71 71 68 69 64 76 81 88 92 87 86 89 86 88 100 94 82 77 76
52 50 45 45 41 39 38 43 60 61 68 80 73 62 61 64 62 65 77 81 80 86 90 76 63 58 65 69 75 85 74 62 61 69 75 88 88 85 93 100 96 93 88
50 50 47 52 49 42 36 38 50 58 66 75 76 62 60 65 64 67 68 74 81 79 84 85 64 59 54 58 43 42 49 58 69 72 81 89 94 95 91 95 95 95 84
47 48 48 52 48 47 46 43 40 38 48 65 66 66 66 62 68 65 66 74 75 70 79 83 75 60 55 60 59 57 55 60 65 68 74 78 90 96 97 100 97 93 97
50 46 44 41 38 38 45 47 48 45 41 40 49 64 76 75 75 75 79 69 69 78 80 73 62 56 59 64 65 60 63 63 65 69 77 93 98 89 84 89 99 100 95
54 54 54 46 42 40 40 40 43 56 54 50 48 49 51 63 83 89 86 83 79 75 70 63 60 51 63 63 61 64 65 67 68 76 87 97 97 92 90 97 95 100 100
56 59 59 54 52 50 48 50 54 56 60 56 52 52 52 57 64 75 78 72 67 66 67 68 64 62 60 60 66 68 67 71 82 84 87 90 93 95 100 98 98 100 100
57 62 65 60 55 53 52 54 57 62 61 59 57 55 55 58 60 62 61 60 61 64 65 65 63 63 64 66 68 71 74 80 87 84 90 90 92 96 96 95 92 93 93
59 61 61 60 56 53 54 57 56 59 63 61 61 62 64 63 62 62 63 65 67 67 67 66 64 66 69 72 75 76 78 82 86 87 94 94 89 90 88 88 91 91 91
62 64 69 67 61 58 57 56 62 64 64 66 65 66 66 66 65 66 67 68 68 67 66 67 69 71 74 77 79 81 84 88 89 90 92 90 86 88 88 88 91 94 94
69 70 73 75 68 65 61 58 56 64 68 69 69 68 68 69 69 70 72 72 71 70 71 72 75 77 78 80 84 89 92 95 92 91 91 90 91 91 94 94 93 94 91
63 63 64 65 70 71 68 65 61 58 67 70 68 68 69 69 69 70 73 74 74 75 77 77 79 82 84 85 83 80 84 92 100 99 97 96 98 96 91 90 93 94 95
59 60 62 61 59 63 71 70 69 66 64 72 69 69 70 70 70 71 74 75 75 76 79 82 85 86 87 87 90 93 93 85 100 100 100 98 96 96 92 91 91 93 94
63 65 64 62 61 60 66 72 72 69 70 73 72 69 70 71 72 73 76 77 79 80 82 86 89 91 89 90 98 100 100 94 99 100 100 98 96 86 68 58 54 51 55
67 69 69 70 68 65 64 74 75 72 77 76 75 70 69 71 74 75 78 80 81 84 84 88 91 92 91 92 100 99 97 98 100 100 99 94 84 59 54 48 55 61 57
76 78 78 79 78 72 69 75 77 77 78 83 81 77 72 72 73 74 78 81 84 84 89 94 94 95 94 96 100 100 100 100 100 100 97 89 55 62 81 58 52 56 59
73 73 74 80 79 75 77 80 80 77 74 82 88 83 75 72 71 75 79 83 87 93 99 98 99 100 100 99 99 99 92 96 96 97 88 61 84 79 87 72 57 50 47
74 73 75 78 74 74 82 87 88 75 77 83 88 85 79 75 76 79 83 88 94 97 99 99 100 100 99 99 99 100 78 62 70 57 45 52 70 96 92 88 66 64 60
74 79 80 79 72 72 82 92 86 81 80 85 85 85 83 82 81 84 87 96 98 100 99 100 99 98 99 99 100 99 95 78 57 42 42 42 47 82 82 81 81 83 75
72 73 79 81 81 87 87 84 86 84 82 87 87 87 86 86 88 89 90 95 100 100 100 100 100 99 99 99 99 99 90 81 76 60 44 44 48 73 76 69 73 78 84
82 81 85 88 89 95 98 91 86 87 87 87 89 88 89 93 92 93 92 93 91 90 99 99 99 100 100 96 94 91 74 77 78 68 61 60 68 75 75 66 58 53 61
74 83 82 82 82 88 96 99 90 90 94 90 90 90 91 94 97 98 99 97 94 92 97 100 100 99 99 98 96 93 74 64 79 86 78 70 64 66 67 67 70 63 58

GFSMW_925_rhum_078.txt.gz
RH
63 65 84 88 65 72 60 65 63 68 67 67 65 67 77 65 75 84 85 76 72 75 77 71 75 77 75 72 72 73 75 74 66 67 64 65 63 63 62 64 64 62 64
52 55 58 70 84 73 58 67 65 76 77 71 75 64 82 79 84 81 85 78 74 72 75 73 75 76 76 76 75 78 79 70 70 76 79 90 73 63 64 62 62 64 65
60 53 43 46 53 64 81 76 65 68 76 78 77 77 82 84 82 79 87 81 78 76 63 70 79 82 81 79 86 83 81 78 70 70 78 88 91 93 72 70 70 71 70
61 54 46 41 38 38 46 72 71 67 63 66 70 91 85 82 75 63 76 87 83 86 95 78 69 86 83 82 75 75 75 75 77 80 85 89 95 98 96 74 74 73 75
57 53 50 44 38 37 39 46 68 66 64 60 62 65 76 63 75 64 69 68 80 78 82 80 95 78 78 76 71 72 82 88 81 86 96 91 91 92 100 96 86 79 74
58 51 46 47 44 41 40 43 55 71 75 62 58 64 61 58 63 73 72 68 72 70 73 79 90 91 88 79 62 58 59 84 81 74 73 80 83 84 91 98 96 94 84
52 51 45 53 50 48 45 47 44 55 73 78 73 65 60 69 64 65 69 70 73 74 81 81 85 79 70 80 84 82 76 65 67 68 72 79 86 97 99 97 97 97 86
56 54 59 55 55 53 51 49 45 42 43 48 63 76 81 76 75 70 72 80 66 76 76 79 73 73 74 75 62 60 61 63 61 62 62 67 74 90 100 98 91 90 91
53 53 54 49 47 46 48 46 45 46 47 46 44 45 57 77 85 88 90 84 79 74 74 74 77 78 69 60 55 56 55 54 58 60 66 77 81 97 100 97 84 99 92
63 65 67 63 58 54 51 49 53 52 52 56 51 46 47 50 61 82 88 88 88 85 84 88 86 74 68 64 64 60 57 60 62 68 78 86 93 99 97 96 93 94 98
70 74 73 61 55 52 53 52 51 55 60 61 58 54 50 49 52 62 82 86 87 87 86 85 77 71 65 63 64 63 64 66 69 76 83 83 90 91 95 100 100 100 100
67 68 66 62 59 57 54 56 59 58 60 63 62 59 58 58 60 63 73 77 74 70 68 68 69 69 66 64 64 66 69 71 74 81 87 87 93 93 97 99 98 96 96
72 74 75 75 70 64 60 58 56 62 63 62 64 64 64 67 68 67 67 66 66 67 67 67 66 64 64 67 70 71 72 74 78 82 86 91 95 92 92 90 91 92 92
74 72 75 77 71 68 66 62 58 57 61 65 68 69 69 69 68 69 70 69 70 68 68 68 67 68 69 71 72 74 77 82 86 89 91 93 88 85 84 84 88 90 92
63 64 66 69 62 60 62 66 63 62 60 63 67 68 71 72 72 70 70 73 74 73 72 70 71 72 73 74 77 80 79 83 91 91 92 88 87 89 90 90 93 97 98
60 60 63 64 63 62 62 68 70 68 68 65 64 69 72 71 71 73 75 76 75 73 72 73 73 73 75 79 82 83 88 85 79 94 96 96 96 97 97 94 87 93 95
65 68 70 69 67 68 67 69 72 73 71 71 68 72 72 73 73 74 76 76 75 75 76 76 78 80 82 84 86 90 92 94 87 89 100 100 98 97 95 95 90 91 93
73 75 75 75 76 74 71 72 72 74 75 72 75 74 77 76 77 77 78 79 79 78 78 79 81 83 84 86 87 98 98 99 94 95 100 100 98 96 84 72 65 62 59
78 77 76 78 77 77 75 78 76 77 79 74 76 81 80 78 78 78 80 80 80 81 81 80 84 86 86 87 95 99 100 95 96 100 100 100 97 93 82 57 53 58 59
77 77 76 75 75 74 78 86 87 87 86 80 79 86 87 82 78 76 79 80 82 82 83 85 86 88 87 88 99 99 100 99 98 100 100 98 92 58 79 61 51 56 56
76 76 78 81 79 76 80 88 88 92 90 85 82 86 90 89 81 77 80 80 84 87 90 94 98 99 96 94 99 99 99 97 94 99 98 96 89 62 85 84 56 49 47
77 75 77 79 84 79 87 93 92 83 86 88 84 88 90 91 90 84 82 86 89 94 98 100 99 98 98 99 99 99 98 89 86 95 96 86 60 96 95 93 67 58 56
77 78 77 83 81 82 94 100 95 89 88 86 86 88 90 91 91 90 88 94 96 100 100 100 99 98 98 100 99 99 100 93 52 42 41 44 52 83 91 88 79 81 79
78 84 83 86 87 82 84 96 100 100 92 92 90 88 93 93 94 96 95 96 100 100 100 100 100 99 99 100 100 100 99 99 89 59 50 43 45 54 80 80 83 87 86
72 75 82 88 89 88 86 85 90 97 100 100 96 94 92 94 97 96 94 97 96 96 96 98 98 100 99 96 96 97 98 97 89 82 67 57 66 67 83 77 67 66 70
73 73 72 75 84 90 88 86 86 91 99 98 98 100 100 96 98 100 100 100 97 95 95 90 91 93 96 96 95 95 96 95 87 89 74 65 59 66 72 74 64 60 56

GFSMW_925_rhum_081.txt.gz
RH
76 94 94 90 84 77 81 80 88 86 71 73 72 82 92 80 77 79 88 83 80 76 73 72 68 72 77 73 69 70 71 72 74 74 71 67 63 63 65 63 66 62 57
57 76 88 98 96 83 75 72 70 63 74 71 80 87 75 66 80 79 79 72 79 85 91 82 74 71 78 79 76 75 78 79 75 73 78 70 65 69 64 63 65 65 66
59 56 57 86 88 82 89 69 64 71 75 71 71 86 84 86 80 84 80 73 77 92 98 98 96 80 83 83 78 78 82 79 80 72 70 76 72 79 71 70 69 73 72
59 59 57 46 60 71 70 67 66 68 78 69 79 94 94 84 84 86 84 90 82 94 98 100 100 100 97 99 98 91 76 71 75 84 81 71 83 74 76 76 75 70 73
62 55 56 52 46 46 44 50 61 58 62 68 78 71 79 71 85 89 89 90 96 94 89 89 90 97 96 99 92 79 76 72 74 89 92 94 93 99 91 72 75 80 73
61 53 51 53 51 47 46 49 59 76 75 62 60 60 62 79 83 89 96 80 80 91 96 87 78 84 90 87 88 75 73 74 82 78 81 74 77 80 90 89 81 87 86
63 54 56 58 57 55 50 50 56 69 78 83 82 80 67 75 68 69 73 75 78 89 93 82 83 81 72 76 81 78 81 81 81 67 63 63 75 86 96 91 85 89 82
76 62 54 53 57 56 53 52 53 50 49 50 57 66 76 84 91 98 92 81 75 74 73 78 88 79 85 87 83 80 84 74 58 53 53 62 68 79 90 94 86 84 83
64 60 64 67 64 61 62 60 53 52 55 54 51 47 44 51 68 78 85 86 83 83 87 92 91 86 86 86 90 78 61 58 56 57 58 59 65 75 89 96 94 86 83
67 68 66 66 61 60 59 56 57 59 60 57 56 53 51 51 51 58 71 82 87 86 91 91 88 92 88 78 70 65 63 60 59 61 65 70 76 83 99 99 98 96 92
64 64 65 66 60 56 54 56 58 60 57 58 59 58 56 54 53 55 68 85 91 94 95 95 91 85 76 70 67 64 61 60 64 70 74 78 82 83 89 96 99 99 99
71 71 73 73 71 67 61 58 56 57 63 63 61 61 60 61 60 60 64 78 87 91 92 92 88 80 73 68 66 65 66 68 71 75 79 81 86 88 92 99 95 98 99
66 65 65 70 71 69 68 66 62 58 56 64 65 66 66 65 64 65 68 72 76 78 83 83 78 74 71 67 68 69 70 70 71 75 80 84 90 94 93 94 92 93 95
60 58 58 61 64 60 61 63 70 69 63 57 63 70 72 73 74 74 73 72 73 73 75 75 72 70 68 69 69 70 71 73 77 80 85 89 92 88 85 84 84 88 91
58 61 63 64 66 67 63 59 59 65 72 68 63 61 72 76 76 75 75 74 74 74 73 72 72 71 71 70 70 71 74 73 74 83 88 88 86 87 87 89 91 93 97
65 66 67 70 72 74 72 67 62 56 65 71 70 68 65 74 77 78 79 79 78 77 74 72 70 70 70 71 73 76 77 79 80 80 88 90 91 93 94 95 93 89 93
71 73 74 77 79 78 76 77 75 66 64 71 71 70 73 74 78 78 78 78 80 78 77 75 74 74 76 78 80 81 82 84 84 84 88 98 97 96 96 96 96 94 91
76 76 78 80 78 76 76 79 80 78 77 77 78 74 77 79 81 84 81 81 81 80 79 78 77 78 77 80 82 88 98 98 92 89 91 99 99 96 94 90 74 84 74
80 81 79 80 80 79 82 83 82 84 89 92 89 84 84 89 86 84 82 83 83 81 78 78 79 79 81 83 87 98 100 98 93 95 98 99 99 96 93 79 58 51 55
79 80 79 78 80 85 82 86 89 86 87 90 91 86 86 92 93 88 84 83 83 81 82 82 83 84 84 86 89 99 99 99 96 97 99 99 97 93 91 65 47 58 58
79 78 78 80 86 80 83 96 97 96 92 88 86 85 85 92 94 96 91 84 85 86 85 86 85 87 89 89 96 99 98 98 100 99 100 98 97 85 75 79 60 48 46
81 82 82 86 83 78 88 91 95 99 99 96 94 89 86 88 94 99 96 92 90 92 94 97 99 99 99 98 97 99 99 100 97 90 92 94 95 97 85 92 74 52 52
78 77 76 83 76 82 82 88 86 89 97 99 99 100 94 89 93 98 100 99 98 100 100 100 100 99 99 98 99 98 100 99 92 75 88 95 85 66 94 94 88 76 69
75 73 77 81 78 76 78 79 82 87 86 93 94 97 99 97 94 98 100 100 100 100 100 100 100 99 99 97 99 99 99 100 98 60 44 44 45 64 91 91 95 88 78
75 74 78 77 75 72 74 74 79 81 82 90 93 95 97 100 99 96 98 100 99 98 100 100 99 99 100 96 95 98 100 100 98 90 57 61 68 65 74 84 83 87 86
80 80 75 75 74 75 78 79 80 82 85 89 84 88 98 98 100 100 99 99 99 100 100 99 95 92 89 89 91 96 99 100 100 98 79 67 63 70 69 79 80 71 67

GFSMW_925_rhum_084.txt.gz
RH
89 100 95 88 80 74 68 66 68 67 79 96 100 97 98 96 98 94 85 88 85 82 82 72 73 77 75 73 69 66 66 68 72 76 67 60 62 61 58 60 59 61 63
83 97 99 89 84 85 74 71 74 78 68 76 88 84 87 86 80 93 98 97 95 88 90 84 78 77 81 77 74 70 71 70 78 70 67 56 53 56 58 58 63 62 64
72 92 96 96 86 98 94 81 74 79 73 76 79 75 86 92 94 91 90 97 99 92 96 100 100 96 91 93 87 79 76 79 80 72 61 60 55 54 53 63 64 63 64
58 68 82 97 80 89 88 86 91 93 89 82 83 87 77 88 89 78 79 93 89 89 91 85 92 98 100 99 99 96 98 83 75 79 72 73 65 58 53 59 64 68 58
76 66 65 82 91 91 90 76 74 86 83 86 92 90 86 89 79 88 86 97 77 81 90 96 95 86 98 100 100 100 100 97 93 78 70 73 84 89 78 50 48 62 62
74 78 65 64 70 63 65 75 81 74 79 83 87 97 98 92 98 94 88 86 81 90 89 84 92 95 99 99 93 86 84 92 78 72 77 84 73 63 73 66 52 57 61
71 66 69 69 69 71 63 63 79 86 98 93 75 79 76 90 95 91 86 87 84 88 78 80 92 100 99 96 83 74 75 80 85 91 90 85 77 70 70 69 61 66 63
76 79 61 62 62 66 65 62 60 60 58 76 96 100 99 100 99 97 98 98 91 88 81 88 99 100 98 84 77 73 81 86 86 88 81 82 89 89 84 74 68 70 67
81 84 63 60 58 59 63 63 60 63 63 58 55 54 67 97 99 98 100 99 100 97 100 100 100 100 90 86 90 87 83 89 90 72 63 65 68 69 89 93 85 75 72
61 72 65 56 55 58 59 61 60 62 68 68 64 59 57 55 61 73 84 93 100 100 100 100 100 100 100 100 99 97 95 83 68 62 62 75 88 91 96 97 96 94 79
66 58 57 57 56 56 57 57 57 60 63 66 68 70 66 60 58 65 78 83 89 93 98 100 100 100 99 92 88 80 69 65 64 64 84 85 76 90 94 99 99 100 95
60 56 53 50 51 54 59 61 62 61 62 66 66 69 73 67 67 63 65 78 93 99 100 100 100 97 88 81 73 67 65 64 72 75 73 85 87 87 88 92 96 96 96
45 42 41 43 45 46 49 54 61 65 65 65 63 67 69 73 74 74 71 72 82 92 97 96 93 88 81 75 71 66 64 65 72 75 79 86 90 88 93 96 96 99 99
44 44 43 43 46 49 51 52 52 57 66 70 65 63 68 76 78 80 74 74 76 82 90 92 90 85 79 73 70 69 69 70 76 71 76 85 90 88 91 94 93 96 99
46 49 50 48 50 52 54 57 59 60 62 65 70 70 70 72 78 79 81 78 77 78 81 81 80 76 73 70 69 70 74 76 79 74 83 87 92 91 92 94 95 98 100
51 51 50 51 53 55 60 62 66 67 68 63 67 75 74 75 80 82 81 78 77 79 78 77 76 76 73 69 68 68 80 80 79 82 88 91 87 87 87 88 87 96 98
56 55 53 55 58 60 66 69 73 74 73 73 74 79 79 81 83 85 87 85 85 82 81 83 83 80 79 72 72 73 84 87 90 88 89 99 95 95 99 96 93 91 89
57 56 56 60 64 67 71 74 76 75 76 78 80 83 85 84 88 89 90 90 92 91 87 88 87 86 86 75 78 83 95 91 84 82 82 90 93 94 94 93 91 89 84
59 61 64 66 68 72 73 74 76 77 77 74 79 85 89 89 89 92 91 91 95 95 93 89 86 90 88 81 92 98 96 99 97 89 92 100 99 94 94 90 76 66 72
63 64 67 66 66 72 68 77 76 76 77 80 82 85 90 93 94 98 99 100 98 92 96 89 87 84 88 83 88 98 99 100 100 99 100 96 96 96 95 89 77 63 58
66 68 68 65 73 70 72 70 69 73 81 92 88 86 90 93 94 99 100 100 100 97 90 88 86 86 85 92 88 97 100 99 100 100 97 99 98 96 99 95 64 55 60
58 60 59 60 68 65 72 64 64 69 74 78 88 91 95 94 97 98 100 100 100 100 99 99 98 94 95 91 88 98 97 96 99 99 97 96 96 96 90 91 75 56 51
53 54 57 59 58 58 65 64 61 68 69 69 73 81 76 82 93 98 97 100 100 97 98 100 100 100 99 99 94 98 100 95 98 96 92 95 94 98 90 91 82 75 72
51 54 57 56 54 54 60 62 65 68 68 66 65 71 78 91 85 97 100 100 100 100 100 100 100 100 100 99 99 100 99 100 98 98 83 88 95 98 89 89 98 79 73
56 59 62 59 56 57 60 60 65 69 70 68 68 68 69 74 88 93 99 100 100 100 100 100 100 100 100 95 93 98 99 100 99 100 70 78 74 71 79 85 84 84 83
52 52 51 54 58 64 64 64 66 71 73 73 70 71 74 72 78 89 95 100 99 100 100 100 100 99 97 95 93 94 100 100 100 99 73 65 64 64 62 76 80 84 90

GFSMW_925_rhum_087.txt.gz
RH
63 82 67 65 72 83 78 75 77 84 67 71 90 92 90 81 86 90 94 92 91 88 87 83 68 67 73 71 66 63 60 60 57 59 61 62 58 55 54 52 54 51 56
69 90 91 97 94 93 87 78 77 87 85 73 84 85 89 88 87 90 92 88 90 88 83 82 73 69 75 76 72 66 64 62 64 69 62 68 60 53 54 52 54 53 53
59 87 90 98 92 83 95 86 83 79 80 88 81 92 74 78 88 93 81 86 92 73 86 87 85 80 81 83 88 82 67 68 69 73 65 64 60 50 52 54 57 55 52
63 80 87 95 93 86 96 99 90 95 93 92 95 95 89 90 80 82 93 86 86 83 76 88 96 90 91 94 90 88 97 84 83 80 72 65 64 58 55 60 57 61 54
76 73 88 93 98 93 87 87 94 91 94 90 95 97 93 94 87 91 86 78 80 85 83 87 99 98 99 100 99 98 93 100 99 89 89 83 76 76 70 62 48 60 57
92 83 79 85 95 96 99 95 100 90 94 95 88 92 88 97 89 97 91 81 74 79 76 85 98 93 82 79 95 98 100 93 99 98 89 80 85 91 92 82 57 53 52
94 93 80 73 87 92 84 80 82 90 93 97 98 88 91 84 72 74 84 60 79 56 81 86 97 84 92 78 88 98 99 94 93 87 89 86 90 87 68 63 64 63 58
85 86 75 73 81 81 68 62 74 70 76 96 96 88 91 95 91 80 89 87 85 62 73 92 94 91 84 81 98 100 99 91 89 95 94 95 90 83 70 70 68 71 65
87 78 74 59 66 67 60 60 61 65 68 65 62 87 99 95 82 88 99 99 96 97 98 94 86 72 88 97 94 98 97 90 87 89 92 86 78 73 69 80 78 72 76
82 83 82 78 54 54 54 57 59 60 64 64 66 64 63 66 86 98 99 98 97 98 93 92 96 100 100 100 100 100 98 96 99 96 87 73 64 64 69 78 87 86 80
77 70 78 84 70 54 52 53 54 58 60 63 64 67 68 68 64 74 80 93 97 96 99 99 100 100 100 100 100 100 99 98 92 83 69 66 71 82 89 92 94 92 86
73 64 45 42 44 45 48 52 56 58 60 58 60 65 67 70 71 71 74 80 87 94 99 100 100 99 99 99 99 94 91 86 77 66 66 74 82 84 84 87 92 93 89
41 39 38 39 41 42 44 44 45 48 55 61 58 57 63 68 68 73 75 77 83 90 96 99 99 100 96 90 85 84 80 73 69 69 70 72 79 81 84 86 89 91 89
43 42 40 40 42 46 47 48 49 51 52 53 59 62 63 63 71 75 77 72 78 85 92 95 92 90 88 86 81 77 74 72 72 72 73 74 78 79 84 90 90 89 89
44 45 45 43 44 47 49 52 55 56 58 53 53 61 67 66 67 74 79 79 76 78 84 87 89 88 86 81 78 75 73 72 72 71 71 74 79 85 84 88 89 90 93
46 46 45 45 47 49 53 56 61 62 62 61 59 64 67 69 73 72 76 79 82 82 79 80 82 84 83 80 77 72 72 74 77 78 80 83 86 85 87 89 91 95 97
49 49 47 48 50 53 57 64 66 65 65 65 66 70 72 76 76 78 76 79 81 83 82 81 80 80 80 74 72 72 75 77 77 78 82 88 89 92 95 90 86 86 88
49 47 48 51 53 55 61 62 64 66 67 67 66 69 76 81 82 81 83 83 84 85 87 85 82 81 81 75 71 73 82 84 84 85 85 89 93 92 99 99 95 90 87
49 51 53 54 53 56 59 56 61 63 64 67 70 74 76 80 84 86 89 91 89 91 92 90 88 85 84 82 78 78 85 89 87 86 83 86 98 95 94 94 90 86 78
51 54 54 53 50 54 56 59 57 57 62 66 74 79 79 79 86 90 93 97 98 93 98 97 93 89 89 88 84 89 97 100 95 96 91 99 97 99 94 92 88 70 64
50 49 47 44 47 57 53 56 54 53 59 65 65 71 77 83 86 90 94 98 98 99 98 100 98 94 93 91 86 90 98 99 98 97 94 96 100 100 99 94 84 74 58
42 41 43 45 48 52 51 51 50 49 54 56 57 57 64 67 68 78 88 90 96 100 100 100 100 96 94 92 92 95 98 99 98 98 97 92 98 100 99 100 82 62 57
38 38 40 42 44 44 44 48 46 48 53 53 53 52 55 59 67 76 79 93 99 99 99 97 95 99 97 92 91 98 100 99 99 95 96 93 93 99 100 100 96 75 54
36 40 43 42 41 38 39 42 45 49 52 54 54 54 56 57 59 62 76 85 99 100 100 100 100 98 100 98 96 99 100 100 100 93 96 92 92 100 98 93 97 84 69
40 44 43 45 43 40 42 45 47 49 51 53 54 54 56 59 61 62 71 80 86 99 100 100 100 100 100 98 96 98 100 100 100 100 98 99 100 100 100 94 96 86 73
38 37 39 39 39 40 44 46 50 52 54 57 59 61 64 66 68 68 69 76 84 93 95 99 100 100 99 100 100 100 99 100 100 100 98 99 98 92 89 86 90 89 85

GFSMW_925_rhum_090.txt.gz
RH
80 78 73 59 64 80 80 86 76 85 88 82 74 64 68 81 71 72 76 77 80 79 79 77 73 69 70 71 65 64 63 63 61 57 54 58 58 58 59 55 55 53 54
81 85 90 84 89 96 96 96 87 84 88 83 78 66 58 76 72 73 79 80 69 85 85 85 81 69 67 74 72 68 65 62 61 61 64 82 67 58 57 54 53 55 54
70 87 88 96 85 78 75 89 98 90 89 87 81 73 62 78 76 78 78 73 81 83 83 83 83 75 75 77 78 78 80 73 65 60 71 86 84 67 54 54 57 56 54
62 81 89 95 95 84 69 64 98 96 91 87 84 88 85 96 83 78 80 84 81 79 79 80 78 80 78 78 84 92 89 92 86 81 74 85 78 72 75 61 60 56 55
74 76 86 90 94 94 85 90 98 100 100 96 96 100 95 98 99 98 88 82 74 70 72 73 75 74 73 81 91 92 90 88 94 88 97 95 85 77 80 78 62 61 54
88 88 84 95 100 99 96 97 97 100 100 95 100 99 97 100 97 97 97 87 82 79 78 69 72 75 78 88 82 85 80 90 93 86 91 98 94 96 91 95 91 80 55
90 89 93 93 97 92 86 85 90 95 97 93 95 96 97 99 97 88 82 89 92 92 80 66 72 80 86 94 96 91 96 85 81 95 94 99 94 86 87 86 81 69 59
93 95 93 92 95 89 81 77 92 94 93 96 97 93 99 92 98 95 85 83 98 79 75 79 79 80 68 74 97 98 98 97 82 99 100 94 92 91 93 80 72 78 73
92 94 94 90 89 83 74 74 78 81 76 78 75 88 100 96 85 76 82 89 95 92 94 84 76 65 72 80 96 91 98 89 99 95 92 91 87 94 94 74 66 69 81
93 92 91 89 77 68 57 57 61 63 64 65 67 67 66 79 94 97 84 92 85 79 83 66 73 76 79 92 98 100 99 100 100 95 95 96 92 88 81 75 72 75 75
85 88 90 83 56 55 55 57 58 59 58 60 64 66 66 66 64 68 78 86 96 99 99 92 91 89 100 100 100 100 100 100 100 96 97 94 89 78 69 64 66 76 84
86 81 70 66 55 44 44 46 49 53 60 59 56 61 65 66 67 67 68 68 73 79 85 91 97 100 99 100 100 100 100 100 100 99 100 93 80 72 70 74 82 85 90
69 45 44 46 46 47 48 50 52 53 51 53 60 61 59 61 68 71 72 71 69 72 84 93 96 99 100 100 100 97 100 100 99 96 92 80 74 76 84 87 90 89 88
49 49 50 48 47 49 51 55 57 59 57 54 54 58 62 66 66 68 73 74 73 73 78 91 96 96 99 100 100 99 96 94 88 85 78 74 76 74 75 81 86 90 89
53 53 54 53 49 51 53 58 61 62 61 62 61 64 66 67 68 70 71 77 78 75 78 81 91 90 90 90 89 87 85 83 79 78 77 76 78 80 79 83 85 88 88
54 52 52 52 53 54 57 62 65 65 64 65 65 68 71 74 74 73 74 74 78 80 79 79 82 86 89 87 87 83 82 80 78 77 77 77 78 78 83 86 90 88 86
54 53 54 54 54 55 60 64 64 66 67 68 66 68 72 77 81 82 81 82 82 82 83 81 81 81 82 85 84 86 82 79 77 73 74 76 76 79 81 85 89 90 92
53 53 54 54 53 54 60 56 60 66 65 67 70 73 76 77 79 84 88 89 90 90 86 87 84 82 80 79 78 80 79 76 75 75 76 76 77 77 80 86 87 86 86
52 53 53 54 53 51 57 56 59 58 58 65 67 73 79 80 80 84 88 92 94 95 89 89 91 89 83 80 80 82 83 80 80 80 82 82 82 81 95 99 98 94 89
51 54 52 52 49 49 56 52 58 56 56 62 64 65 68 76 82 81 87 90 93 94 93 96 92 94 92 86 83 82 84 84 86 89 87 82 87 84 100 98 92 89 82
46 45 46 44 44 51 55 52 53 51 50 51 54 56 57 60 67 68 72 79 85 88 95 99 96 96 99 94 92 88 89 85 97 95 88 87 98 96 100 97 90 85 73
40 39 41 43 44 46 50 49 51 49 47 50 52 53 53 54 57 61 69 76 80 89 96 100 100 99 98 100 97 94 98 94 91 90 88 88 92 99 99 100 90 83 73
36 36 40 43 43 43 42 42 42 44 46 51 52 54 54 55 56 59 60 70 78 80 90 99 100 99 99 98 97 98 98 100 97 88 88 89 93 99 100 100 98 77 63
38 41 44 46 44 44 43 41 41 44 47 50 52 53 55 56 57 60 62 67 76 82 81 89 96 100 100 100 98 96 100 100 100 98 94 92 93 93 99 100 100 88 72
39 41 41 42 44 42 40 40 43 46 50 51 53 55 57 59 64 67 69 70 73 81 80 83 96 98 99 99 100 100 100 100 100 100 99 99 100 100 100 100 100 98 82
42 43 42 39 38 37 38 38 40 43 47 54 57 60 64 66 70 75 76 77 77 76 83 82 86 92 100 100 100 99 99 100 100 100 100 100 100 100 100 100 100 99 87

GFSMW_925_rhum_093.txt.gz
RH
26 78 75 57 71 63 72 75 83 83 85 87 87 95 93 76 71 68 76 75 65 65 64 62 60 63 67 69 66 64 61 62 60 62 61 57 55 61 57 60 57 58 57
85 90 88 80 68 68 71 86 90 91 86 85 83 83 83 76 70 69 74 78 74 73 68 74 75 74 73 72 68 65 65 64 64 64 69 81 68 62 57 59 60 54 55
89 92 96 95 96 87 84 80 84 82 79 83 86 88 84 77 68 70 73 76 79 74 77 75 76 74 69 73 73 70 70 68 65 63 69 90 89 76 62 61 55 55 54
87 94 94 88 99 94 87 96 86 82 94 97 97 94 94 92 76 74 89 63 66 79 74 73 72 82 72 75 76 78 79 78 79 79 77 86 87 87 81 67 62 58 54
92 92 93 91 94 94 97 98 98 100 100 99 96 97 98 97 94 94 95 81 68 69 60 69 72 64 65 69 70 76 93 69 87 85 87 83 95 94 96 86 71 60 57
96 95 92 96 99 100 94 94 98 99 100 100 97 99 100 100 99 95 97 100 90 87 80 80 69 69 69 65 64 79 79 70 70 84 78 87 90 97 96 98 91 85 72
97 96 94 94 96 91 81 81 84 94 97 100 94 97 98 99 100 95 90 99 93 88 82 83 78 76 73 78 71 89 94 97 98 97 86 80 87 90 96 94 98 90 74
95 95 94 94 93 86 83 89 89 90 90 94 95 95 93 100 98 99 98 93 90 94 78 90 91 85 80 81 90 94 89 87 98 96 94 95 99 96 99 96 96 91 78
97 97 94 97 91 85 77 75 74 79 84 87 86 90 88 100 98 100 90 92 94 92 90 90 93 85 76 83 82 86 96 92 98 99 100 100 89 86 88 85 89 81 85
96 96 95 95 94 87 78 70 63 65 72 76 77 78 80 93 98 96 97 100 90 87 91 94 85 78 76 84 85 92 82 99 97 100 100 100 95 92 91 89 95 73 65
95 93 93 86 75 59 55 50 53 58 60 60 64 69 71 70 70 71 76 84 92 97 98 100 99 89 92 91 100 98 96 93 100 100 100 100 99 93 95 95 93 82 72
90 88 85 77 55 54 53 55 54 52 52 56 63 62 60 64 69 72 71 70 69 70 82 89 96 94 92 95 95 100 100 98 100 99 100 99 100 98 93 90 87 80 80
85 65 52 52 53 54 57 58 60 58 55 53 54 54 56 59 62 63 69 73 73 71 69 78 88 96 92 99 100 100 100 100 100 99 99 99 99 99 92 81 73 76 82
57 58 58 56 55 55 59 60 60 60 60 60 61 63 65 65 64 65 67 68 76 76 73 74 81 92 96 95 98 100 100 100 100 100 100 100 100 98 85 76 80 84 87
58 58 60 61 58 57 59 62 62 62 64 63 65 69 71 69 69 68 67 69 72 77 81 79 78 84 91 92 93 96 100 100 100 100 98 98 95 85 76 79 87 89 91
60 58 59 59 60 59 62 62 60 64 68 67 69 69 68 70 73 73 77 78 78 81 81 84 82 80 82 88 88 89 90 91 91 89 88 86 85 82 81 79 81 85 89
60 59 60 60 57 56 63 59 56 65 65 65 71 68 68 71 73 77 78 84 89 89 89 88 89 86 82 81 85 87 87 88 87 86 84 83 81 83 81 82 85 89 89
58 58 59 58 54 53 59 56 53 61 56 63 61 54 55 63 72 79 82 85 91 94 93 89 88 86 87 85 83 82 87 88 85 83 83 81 81 83 83 86 92 93 91
57 57 57 56 55 53 59 55 48 56 54 60 59 54 61 61 63 62 71 78 85 85 87 87 86 88 88 89 87 84 83 86 83 81 81 79 78 76 79 80 86 90 90
55 54 51 48 49 47 56 55 52 51 51 53 52 50 54 54 62 59 61 63 77 82 79 86 93 90 90 88 97 90 85 87 86 83 84 84 82 82 87 88 84 96 91
46 46 43 44 43 44 46 47 49 50 45 49 50 50 52 53 54 60 58 64 62 77 78 85 95 98 96 92 91 100 96 90 94 98 95 91 87 92 90 99 93 87 85
43 41 43 44 44 45 47 50 50 43 44 44 46 49 51 54 56 57 58 60 64 69 77 74 83 91 96 99 98 98 100 99 99 99 95 87 85 93 94 100 99 92 86
39 39 42 45 43 43 44 46 43 42 43 47 48 48 50 52 55 58 62 64 67 70 75 81 79 84 89 96 98 99 98 100 100 100 96 90 89 94 98 98 99 94 86
40 42 44 44 43 40 45 44 39 40 42 46 49 51 52 54 59 60 66 69 72 75 82 83 79 82 87 90 96 99 98 98 100 100 100 99 95 98 99 100 100 96 87
42 43 45 46 45 41 39 38 39 40 41 43 45 49 54 58 61 66 73 78 78 81 82 77 77 80 83 86 91 100 100 99 99 100 100 100 100 100 100 100 100 100 82
48 48 45 44 43 42 41 41 42 45 47 50 53 52 56 62 67 78 78 76 89 90 88 82 75 77 78 80 89 99 99 99 99 100 100 100 100 100 100 100 100 100 96

GFSMW_925_rhum_096.txt.gz
RH
30 27 26 34 58 73 68 70 70 78 82 96 99 100 99 90 77 73 80 80 74 73 79 74 74 75 72 67 63 60 57 57 54 53 60 63 61 58 57 61 59 61 59
41 72 75 70 87 71 79 74 75 81 91 92 94 90 86 93 86 80 80 76 76 72 71 70 71 68 65 62 60 61 63 60 58 65 70 78 67 59 61 62 59 58 58
49 88 94 94 99 99 99 92 75 72 66 81 92 97 94 93 97 93 96 88 85 74 69 68 70 63 61 62 66 68 66 67 65 66 68 94 88 78 66 64 65 62 59
88 96 97 100 97 100 100 100 100 98 84 82 82 92 91 89 78 82 88 91 88 81 72 71 67 64 65 74 73 71 67 67 73 78 72 72 72 86 81 72 71 65 61
99 95 96 94 97 94 96 85 92 98 96 98 96 97 100 78 88 93 93 91 91 90 84 84 81 72 80 80 76 77 76 72 80 78 93 90 96 85 91 92 81 72 70
98 98 94 95 99 99 94 85 87 90 93 99 100 100 100 100 100 100 96 92 95 97 89 84 96 92 81 80 79 69 69 79 69 75 68 78 90 97 97 97 94 84 74
94 97 96 94 95 93 91 86 92 95 99 99 100 100 100 98 99 100 100 96 94 98 99 98 94 92 91 88 92 77 71 72 79 81 91 95 84 80 85 82 92 96 96
96 97 95 92 92 89 94 92 88 87 90 95 99 97 100 100 99 100 100 99 95 100 98 97 100 99 92 89 88 82 78 77 77 84 100 96 91 86 77 86 87 99 98
96 97 95 98 95 91 85 77 83 86 88 91 90 91 96 100 100 100 100 99 98 99 94 94 90 92 96 95 94 93 82 90 94 96 100 100 87 88 92 95 88 81 97
95 95 96 97 97 91 85 81 78 77 83 84 88 91 94 95 92 96 99 100 100 97 89 95 95 96 99 100 97 97 93 88 92 100 100 100 100 98 98 97 98 88 85
97 96 94 98 94 87 80 75 71 64 66 70 70 73 84 87 86 84 82 80 85 92 98 98 100 100 99 94 96 90 92 94 89 95 98 100 100 99 98 99 94 89 86
93 93 94 93 90 83 76 62 58 58 56 57 55 59 61 60 62 65 71 74 74 72 73 81 92 98 100 100 94 100 100 100 100 100 100 100 100 100 99 100 100 99 89
86 81 77 63 60 63 63 63 62 62 62 61 60 62 64 62 63 64 64 67 72 78 77 75 79 88 94 100 100 100 100 100 100 99 100 99 100 100 100 100 100 99 98
58 59 61 62 62 62 65 63 63 65 65 65 68 70 70 68 67 67 66 67 72 76 79 82 79 80 84 93 98 95 100 100 99 100 99 100 100 100 99 100 100 99 93
62 63 66 68 64 63 64 59 56 64 67 66 70 71 68 67 68 69 69 69 70 73 78 81 84 84 81 84 90 92 93 100 100 100 100 100 100 100 100 99 100 93 84
63 61 62 63 64 62 66 58 53 62 57 57 65 56 47 47 55 65 75 75 73 78 84 85 88 86 89 85 83 87 88 87 92 99 100 100 100 100 100 100 99 82 80
59 59 63 64 60 59 64 58 54 57 54 53 56 49 43 46 49 52 52 64 76 79 82 86 87 85 85 86 89 86 87 90 90 92 92 93 94 98 97 93 88 87 87
58 60 63 61 57 56 56 57 52 42 43 43 49 46 43 45 42 46 51 55 60 69 82 78 81 85 82 82 85 93 90 87 90 90 91 92 90 91 93 90 93 92 95
60 61 60 58 53 52 53 53 50 46 45 45 48 49 47 46 47 50 55 59 58 65 65 83 83 83 94 90 86 91 95 93 86 88 91 91 90 88 93 91 88 92 96
57 55 51 47 47 46 51 53 51 52 48 48 48 49 50 50 51 52 55 58 56 60 68 81 76 69 87 97 96 98 100 100 95 88 89 90 90 87 90 88 89 96 94
44 44 43 45 44 45 48 51 54 56 53 47 45 48 51 53 52 54 58 59 60 61 63 63 67 72 78 80 96 99 100 100 100 98 93 89 88 88 88 87 87 84 83
42 40 42 41 41 42 43 44 44 43 41 38 40 44 47 50 52 52 54 57 64 66 67 71 74 78 78 87 88 99 99 100 100 100 98 96 94 94 94 98 88 89 86
42 39 41 43 41 40 41 46 44 43 39 40 41 40 37 40 47 56 58 63 67 71 75 79 86 83 78 78 87 90 96 98 100 100 99 99 99 98 100 100 100 100 99
43 43 46 48 46 43 42 41 41 41 43 45 46 46 47 48 51 56 61 66 73 77 82 88 76 77 74 78 81 85 90 98 100 98 98 100 99 100 100 100 100 100 99
44 46 49 51 48 44 43 41 42 44 48 49 50 52 56 57 53 52 63 73 80 85 89 93 88 76 72 74 78 82 84 89 97 100 98 100 100 100 100 100 100 100 100
50 48 47 47 45 46 47 50 53 57 59 61 61 61 62 64 69 71 69 72 81 83 88 85 83 84 80 79 80 84 86 88 91 99 100 100 100 100 100 100 100 100 100

GFSMW_925_rhum_099.txt.gz
RH
39 32 29 26 22 22 29 64 78 74 80 85 97 98 91 78 72 74 75 78 80 88 94 96 92 82 79 78 86 80 82 74 74 63 60 59 62 63 62 60 60 64 64
49 47 38 38 42 39 53 75 81 78 81 81 80 91 99 99 85 80 70 74 78 80 89 83 90 84 79 84 69 65 75 71 66 61 73 81 68 64 63 60 59 63 65
53 50 65 92 96 98 96 92 93 89 86 70 69 80 98 97 93 96 90 78 77 92 86 88 93 91 86 80 72 76 75 71 64 61 67 93 88 79 65 60 66 66 65
65 93 94 95 98 99 100 99 99 97 91 88 98 99 99 99 91 81 84 85 78 84 91 95 93 90 74 77 76 75 68 70 75 72 64 71 71 85 84 74 69 70 69
93 90 96 98 100 98 93 92 95 93 91 96 98 99 98 99 97 93 90 94 90 82 86 99 100 95 79 74 73 74 71 72 75 73 78 88 84 82 89 93 86 77 71
92 95 97 97 100 98 93 89 93 94 93 99 99 100 100 100 100 100 100 95 94 93 87 86 98 96 82 84 81 78 85 88 86 81 79 80 88 97 96 96 94 86 73
97 97 95 94 96 99 97 96 95 98 97 98 99 99 99 100 100 100 100 100 100 100 92 84 100 99 96 96 98 96 94 100 100 95 89 88 87 78 84 84 88 97 94
97 97 96 96 95 94 88 92 91 94 96 96 96 96 100 100 100 100 100 100 100 99 94 96 93 96 94 93 92 92 92 97 95 93 89 87 82 78 90 87 87 99 99
97 96 93 94 93 94 93 89 90 88 89 94 97 97 98 98 100 100 100 100 99 96 100 98 100 99 100 99 100 96 90 85 84 98 96 92 88 86 96 100 95 83 92
95 96 94 96 95 95 94 88 90 88 84 79 84 94 96 91 93 94 92 92 97 99 100 100 100 98 100 99 99 100 98 98 100 100 98 99 99 100 98 100 98 93 88
96 96 96 99 94 92 83 83 78 71 73 69 71 70 76 80 77 78 86 85 86 86 88 96 97 100 100 100 100 100 98 100 99 100 100 99 100 99 100 100 100 100 99
96 94 96 99 99 98 94 91 78 68 65 64 60 62 63 63 60 62 65 70 72 79 80 78 81 89 95 100 100 99 100 100 100 100 100 99 100 100 99 100 100 99 98
93 93 92 90 91 80 82 74 73 70 64 65 64 64 64 63 65 66 65 65 66 70 74 78 79 79 81 87 92 99 100 100 100 100 100 96 100 100 100 99 100 100 99
64 62 64 66 66 68 66 61 65 66 63 67 63 56 54 55 58 62 64 65 64 67 69 75 81 83 82 81 86 92 96 95 96 100 100 100 100 100 100 100 99 100 100
64 65 69 71 68 68 66 56 60 59 53 57 50 49 46 42 39 40 45 48 54 59 64 72 72 77 82 88 88 85 86 90 92 93 95 100 100 100 100 100 100 100 100
64 62 63 65 65 64 67 59 54 52 48 49 53 46 37 38 43 44 49 44 48 49 56 61 70 79 80 82 84 87 91 88 89 92 90 92 99 100 100 100 100 99 100
63 60 66 68 64 61 63 59 53 46 45 44 49 52 50 47 45 43 45 53 58 55 57 60 73 68 71 82 86 84 88 92 91 89 92 93 94 95 99 100 100 100 100
59 64 67 65 59 54 53 52 48 44 43 41 42 42 44 43 42 41 42 45 56 56 61 60 74 78 61 57 94 93 93 93 92 91 88 92 93 95 96 99 100 100 100
64 64 60 55 49 46 48 50 48 48 49 50 47 46 47 49 50 51 50 50 60 58 59 60 60 68 68 67 80 98 97 97 91 90 93 89 90 91 97 100 100 100 100
58 55 50 48 47 47 50 51 52 55 56 49 43 41 45 49 52 52 54 53 54 56 58 63 61 65 68 71 84 82 90 96 99 96 90 96 94 88 95 100 100 100 99
46 48 46 47 49 50 48 47 45 43 44 36 33 33 37 43 45 45 44 54 57 59 65 69 63 63 74 74 85 88 92 99 100 100 99 94 91 96 96 100 100 98 95
44 42 42 42 43 42 42 44 44 46 44 43 42 43 43 44 48 52 52 50 60 65 66 71 71 68 72 77 81 85 88 92 100 100 98 99 99 98 97 100 99 100 99
44 42 45 48 45 44 44 45 43 42 43 44 45 47 47 46 46 51 53 58 57 69 76 82 86 85 76 74 75 80 85 88 90 99 100 99 99 100 100 99 100 100 100
47 47 47 50 48 41 43 46 48 53 55 57 57 58 58 60 61 60 62 69 69 72 86 93 95 95 81 78 74 76 79 83 84 88 93 99 99 100 100 100 100 100 99
48 49 51 52 52 51 52 54 58 63 66 67 69 69 69 70 70 71 73 76 79 81 87 94 90 84 86 82 74 89 89 88 90 88 91 97 100 100 100 100 100 100 100
53 54 56 58 60 62 65 67 70 72 76 83 85 85 83 83 82 82 83 74 88 91 90 86 86 89 87 80 74 79 85 88 91 94 87 92 100 100 100 100 100 100 100

GFSMW_925_rhum_102.txt.gz
RH
42 35 31 30 29 28 24 21 37 72 92 95 100 100 93 78 76 77 83 80 78 94 100 100 100 87 85 69 75 72 84 80 78 90 78 73 64 58 53 53 57 60 61
53 49 40 37 34 30 25 27 32 68 87 87 86 94 96 96 82 82 81 72 73 80 95 92 92 79 80 77 78 70 79 82 81 78 74 81 67 60 56 59 61 63 60
61 59 52 44 47 67 63 51 63 85 89 89 89 93 95 94 93 82 78 71 73 74 81 87 85 81 80 75 72 70 87 84 79 76 68 91 90 78 64 58 62 63 62
76 72 87 88 87 88 93 95 94 99 100 99 99 100 97 99 93 85 77 81 86 84 86 84 84 92 91 94 93 82 85 83 80 83 69 60 72 87 86 78 73 66 66
93 96 93 96 94 99 99 95 99 100 100 98 100 99 100 99 99 97 93 90 90 92 94 90 92 96 97 99 99 98 90 82 76 77 72 79 82 82 87 90 84 74 68
97 96 97 98 100 100 98 100 98 100 100 99 99 96 96 96 100 98 98 93 87 88 89 88 90 97 98 100 100 95 96 92 90 84 79 72 77 87 91 95 92 87 72
96 97 96 96 97 99 99 100 99 99 96 99 97 97 99 98 98 100 100 98 99 99 98 100 99 97 89 98 100 100 100 94 93 90 89 83 80 80 83 89 94 95 83
96 96 93 95 97 99 96 94 95 98 100 98 96 98 98 100 100 100 100 100 99 100 100 99 100 96 93 100 99 99 98 96 100 100 98 99 99 96 92 90 93 97 97
96 95 92 95 98 99 100 95 93 87 86 96 96 97 97 96 99 100 99 99 96 99 99 100 100 99 100 100 100 100 100 99 98 100 100 99 99 100 99 94 97 93 92
94 95 94 95 95 98 91 85 87 84 81 77 77 80 88 86 84 84 89 89 89 89 90 94 99 98 100 100 98 100 100 100 100 94 99 98 99 98 92 97 100 100 94
96 96 96 97 99 99 92 84 75 84 82 79 73 67 69 72 78 70 70 72 74 79 82 88 91 92 98 99 99 100 98 100 100 99 98 96 92 98 100 100 100 100 100
94 93 95 98 96 99 97 96 89 84 82 72 64 61 59 62 66 68 64 65 64 63 69 72 80 82 84 84 91 96 100 100 100 99 100 99 98 99 100 100 100 100 100
91 90 88 88 89 88 79 82 83 79 72 66 51 43 43 39 45 50 49 53 52 53 59 66 70 74 79 82 82 85 90 94 98 100 100 100 100 100 100 99 100 100 100
80 75 69 69 70 75 65 62 67 59 63 53 44 41 43 41 42 43 40 44 49 46 48 53 56 66 72 79 85 88 86 83 85 90 94 94 99 100 100 100 100 100 100
66 68 72 74 69 72 65 58 56 51 46 47 48 45 40 38 36 34 35 39 40 39 36 35 37 45 48 68 90 91 90 90 88 85 84 88 89 96 100 100 100 100 100
65 64 65 66 68 67 66 58 50 45 42 39 42 43 43 42 42 40 38 38 40 45 43 42 45 51 55 51 53 84 94 90 91 89 89 86 86 85 91 97 100 100 100
69 64 64 70 67 63 64 57 53 48 44 43 43 44 46 45 46 47 46 42 42 46 46 48 52 52 46 57 80 81 100 100 95 91 88 89 87 85 88 90 95 98 100
67 66 68 65 58 55 55 53 50 47 44 42 39 36 36 38 43 46 45 44 47 48 49 51 59 62 52 51 74 86 81 98 100 99 96 94 89 87 87 91 93 97 100
66 66 63 57 49 47 49 47 42 42 44 44 39 38 41 42 43 42 42 44 50 56 56 52 54 62 57 53 72 81 88 87 83 86 96 98 100 91 89 94 98 99 99
62 56 51 49 46 46 45 44 44 47 51 47 43 43 45 47 48 49 48 48 49 52 59 63 62 64 61 56 78 81 83 90 92 94 84 91 99 99 98 100 100 100 98
48 49 47 47 49 49 45 46 48 54 53 48 46 46 46 48 49 50 48 53 51 48 50 62 64 68 70 71 83 80 82 86 90 85 95 92 90 98 98 99 100 99 99
46 44 46 48 52 52 50 47 49 50 49 48 47 48 49 52 53 55 57 59 61 66 64 65 69 69 72 71 85 84 80 80 76 78 81 92 100 100 98 95 100 100 100
47 48 49 49 47 47 49 51 53 55 55 57 58 59 59 59 61 66 68 69 70 75 83 87 86 85 82 72 76 82 79 76 81 83 86 87 90 92 99 99 98 100 100
49 50 49 51 52 54 53 57 60 65 65 65 65 67 73 74 74 75 76 78 81 84 89 92 94 95 92 86 76 79 83 79 75 76 79 84 85 87 93 99 99 100 100
55 52 54 56 57 58 60 64 67 70 72 76 78 82 83 86 87 86 86 85 86 89 91 97 97 93 92 87 88 82 85 89 90 90 95 77 75 82 98 100 100 100 100
54 55 57 60 64 66 66 65 70 77 81 88 92 90 91 91 93 94 95 94 91 90 90 87 84 86 83 91 87 85 78 89 80 92 99 95 90 99 98 99 100 100 100

GFSMW_925_rhum_108.txt.gz
RH
48 56 57 47 46 45 44 40 37 38 36 57 94 100 99 100 99 99 100 93 66 74 88 87 90 98 98 96 97 99 98 100 100 100 96 89 84 86 77 64 53 54 58
59 59 65 65 49 46 46 44 41 43 35 64 98 99 100 100 99 96 99 100 98 92 92 90 88 97 96 99 95 98 97 95 90 88 74 73 66 73 64 64 60 59 38
67 62 61 68 69 64 53 47 43 45 47 61 97 98 98 99 96 94 91 96 94 96 94 92 91 98 99 94 98 89 88 75 76 92 74 82 72 50 50 57 54 51 59
65 65 65 82 91 85 80 73 59 61 58 73 96 98 89 86 93 93 95 97 96 96 98 100 98 96 98 99 95 92 87 84 77 88 92 73 70 76 57 44 52 48 49
82 84 82 95 97 99 92 85 74 76 88 80 83 96 97 100 96 92 94 97 95 96 95 98 99 99 96 99 96 97 98 92 89 85 86 94 84 76 82 82 74 77 70
83 82 87 94 98 100 100 100 99 99 100 93 98 93 98 100 100 99 99 97 92 97 98 100 99 100 98 98 96 96 96 98 100 96 94 84 78 82 76 76 65 68 60
86 90 87 94 98 98 99 99 100 100 100 100 100 100 100 100 99 100 100 99 99 99 99 99 100 100 97 99 96 98 96 98 100 99 99 98 92 80 77 72 70 70 60
85 89 91 95 97 98 95 94 95 96 98 98 100 99 98 93 88 90 94 93 96 95 90 93 97 99 99 100 99 98 99 99 100 100 100 100 99 95 85 79 80 83 70
87 91 91 92 94 95 97 91 84 85 84 86 89 97 96 75 78 69 65 70 69 74 73 74 78 82 90 88 94 97 99 100 100 100 100 100 99 100 97 95 92 91 91
86 88 92 96 95 94 94 92 83 81 72 63 72 79 76 81 76 67 59 54 54 53 50 51 59 63 71 80 80 84 88 93 96 99 100 100 100 99 100 100 100 98 92
90 90 91 94 96 95 96 91 85 80 68 56 53 47 42 43 59 61 51 51 49 48 46 45 46 49 57 64 69 74 85 83 83 85 91 94 100 100 100 100 99 100 100
89 90 91 94 96 96 94 91 91 76 66 65 59 50 43 46 53 54 52 53 53 42 45 46 48 49 54 58 73 80 83 89 91 89 85 90 96 94 99 100 100 100 100
72 66 70 73 79 75 74 72 64 68 56 46 46 48 46 45 45 48 46 44 48 46 44 44 44 49 51 54 57 58 61 69 73 81 89 91 95 98 98 95 96 100 100
60 53 48 48 53 56 50 48 48 47 51 52 51 51 47 50 55 52 49 47 46 47 45 45 45 48 51 53 59 59 60 59 68 78 82 84 91 93 96 99 99 99 98
53 49 50 46 48 52 52 48 47 48 48 51 52 55 52 52 50 50 49 44 43 45 47 45 42 45 45 46 66 63 57 59 58 57 65 81 89 87 97 100 98 98 99
48 48 50 50 49 49 53 53 49 48 48 44 45 45 41 42 45 46 47 44 48 47 47 45 48 53 48 60 72 72 60 56 56 55 60 65 72 77 91 95 99 100 100
46 49 50 50 51 49 55 51 52 52 49 45 42 42 42 41 43 43 41 42 44 46 47 46 46 47 48 59 69 74 63 61 63 66 66 64 61 74 74 82 92 97 99
47 48 50 52 53 51 52 57 57 50 49 45 40 42 44 43 46 47 48 48 51 53 54 55 54 55 56 67 76 78 69 66 68 66 64 60 58 57 75 72 72 82 87
44 48 51 53 50 46 52 53 49 48 46 44 44 46 49 50 51 52 55 58 58 61 61 61 62 64 64 72 83 84 71 67 65 62 60 63 63 64 82 77 83 79 79
52 55 57 52 46 48 49 46 44 44 42 49 53 53 55 56 56 59 61 66 66 66 67 67 66 68 70 73 81 82 68 61 59 58 58 59 65 76 79 78 72 77 78
58 57 51 46 45 49 48 43 43 42 52 55 57 58 59 58 59 62 67 68 66 66 67 62 59 58 61 68 81 85 76 65 62 58 58 60 68 73 78 80 79 81 83
54 49 46 49 53 54 47 42 43 52 58 62 63 59 59 61 60 62 60 60 59 58 57 57 57 59 62 68 75 84 81 76 72 64 61 65 71 72 71 71 72 72 73
47 46 46 50 50 52 49 46 48 59 63 61 57 58 60 60 64 62 60 59 62 64 64 62 62 61 62 63 69 73 75 78 79 73 74 79 78 80 75 69 66 70 75
47 48 46 42 43 53 56 58 64 67 68 63 61 62 60 67 63 65 67 70 69 70 72 69 68 69 70 66 66 68 68 72 71 70 75 84 91 76 74 68 70 74 80
49 49 45 44 47 56 61 67 69 73 70 67 67 66 67 68 68 70 72 76 74 76 77 75 75 79 80 74 84 80 84 86 76 89 79 78 75 69 67 68 69 71 81
52 50 51 50 56 64 66 67 76 77 76 72 66 68 71 68 73 73 70 70 77 81 84 83 80 79 81 84 82 86 92 81 82 85 81 88 73 66 65 68 73 75 74

GFSMW_925_rhum_111.txt.gz
RH
40 47 52 51 53 53 41 40 40 36 34 33 35 47 84 95 96 79 76 81 84 83 92 58 75 80 90 88 88 86 92 94 92 98 99 97 93 88 75 63 59 50 46
49 51 53 55 59 64 59 50 41 38 36 38 37 57 82 86 96 99 99 85 85 92 92 84 72 84 92 93 94 94 97 98 96 94 92 89 86 88 80 81 76 68 54
65 61 65 72 74 75 72 70 58 40 37 38 48 71 84 94 98 96 96 95 95 90 86 89 89 85 90 94 97 95 92 97 91 88 82 83 75 57 58 72 70 69 68
65 64 74 83 88 93 92 91 70 58 46 48 52 73 91 93 87 87 83 86 87 86 87 90 88 86 89 91 92 94 90 92 90 83 88 80 73 65 64 49 58 61 58
71 75 78 89 91 97 100 100 86 71 61 60 62 77 88 89 73 86 94 92 89 89 92 90 93 92 93 92 93 95 94 94 92 86 79 88 85 83 84 77 60 64 63
77 75 78 86 93 95 98 100 99 100 98 73 83 96 93 85 96 99 100 100 99 100 99 99 97 100 100 99 97 94 92 94 95 94 92 86 88 88 85 85 70 63 58
81 82 86 87 93 96 95 97 98 99 100 99 85 89 100 98 98 100 100 100 99 97 96 96 99 100 99 99 99 100 100 98 97 94 99 96 92 87 84 81 76 72 60
80 84 87 87 94 95 95 83 90 94 100 100 92 98 98 98 97 99 94 94 97 87 83 84 90 89 91 91 94 100 100 100 99 100 100 99 98 100 97 94 92 90 78
80 84 88 91 91 93 98 79 69 73 68 80 91 92 92 88 88 84 73 63 62 63 60 61 61 65 68 74 82 88 89 90 96 98 97 99 100 100 100 100 100 93 94
85 84 88 92 94 92 93 94 81 63 63 56 53 58 64 63 62 59 47 43 40 44 40 44 41 43 41 55 60 76 74 81 81 84 88 90 89 93 96 100 100 99 95
87 86 86 91 93 93 91 87 85 79 66 56 47 49 43 35 32 41 45 47 38 38 39 39 40 44 47 50 54 46 60 62 70 72 77 86 85 91 94 99 97 100 100
84 85 86 87 86 89 83 65 66 62 52 48 54 52 52 49 47 43 42 43 44 42 42 42 40 42 44 49 51 55 57 60 63 68 73 79 80 84 96 93 97 100 99
73 71 71 70 71 66 61 61 53 52 48 42 41 44 46 48 48 48 50 47 43 40 38 38 39 41 42 44 49 51 51 52 53 59 70 75 79 86 90 91 97 98 100
53 49 45 40 41 47 42 40 40 41 44 44 45 44 42 45 48 49 46 39 37 37 39 39 38 38 38 37 51 52 52 50 51 52 53 59 73 82 92 92 94 95 96
48 48 45 41 40 41 44 41 40 40 39 40 41 43 42 40 40 39 40 40 40 40 40 39 38 40 43 36 63 63 57 52 48 52 49 54 60 61 77 86 92 94 97
47 42 41 44 43 42 42 45 42 40 41 36 36 35 34 35 37 37 35 36 38 39 40 41 41 41 39 44 61 70 69 57 55 58 62 63 56 57 68 67 72 80 86
43 40 41 44 45 43 42 44 45 44 40 39 37 36 35 37 38 39 39 41 42 44 47 48 50 49 48 51 62 73 73 63 61 64 66 63 55 56 59 67 75 73 72
41 38 40 44 46 46 45 48 51 41 41 40 37 36 39 40 42 45 46 47 49 50 52 54 54 55 56 59 66 76 78 68 65 63 62 59 56 58 73 78 74 74 69
36 38 41 45 48 45 43 47 45 44 42 38 39 43 45 46 48 49 51 54 57 59 60 60 61 62 62 64 70 81 76 69 60 56 53 54 57 58 74 74 75 74 75
40 42 47 48 45 41 42 41 39 41 38 42 47 49 50 51 51 54 57 63 62 62 61 63 60 60 57 58 66 78 72 64 57 54 53 52 56 66 72 72 69 69 69
48 50 52 47 42 42 42 42 40 38 46 51 53 55 54 52 53 54 60 62 61 59 58 53 50 48 51 56 63 73 76 72 72 66 59 55 56 66 70 71 74 73 70
53 53 48 45 47 48 47 42 39 45 50 55 55 50 50 51 51 54 54 51 50 51 52 53 53 54 54 56 61 65 69 71 72 70 66 65 69 76 78 78 74 72 72
51 47 45 46 47 48 44 38 38 50 54 53 50 50 52 53 52 54 55 55 56 58 59 60 61 60 61 63 64 64 65 69 71 75 76 78 74 72 76 77 72 68 71
47 44 43 43 42 42 45 44 51 58 57 54 52 52 55 56 60 57 58 61 63 63 63 64 68 70 70 70 70 74 79 77 77 80 88 79 79 72 71 73 68 69 72
47 45 42 39 36 42 45 50 55 56 56 54 54 55 56 57 58 59 62 64 66 68 75 79 81 81 78 75 73 74 80 80 90 89 86 84 78 80 82 72 69 68 72
48 47 44 41 42 46 51 53 56 63 61 60 59 58 63 62 61 63 66 66 69 75 79 80 79 79 77 77 80 84 82 81 78 78 81 82 79 79 73 71 72 74 75

GFSMW_925_rhum_114.txt.gz
RH
52 55 59 69 74 74 74 78 75 68 44 40 38 36 34 40 72 75 86 88 81 70 71 74 69 63 56 59 50 68 85 88 88 89 89 86 82 86 82 76 69 58 50
66 61 65 73 80 87 90 90 86 81 75 42 39 38 38 62 72 66 76 76 83 80 78 70 75 71 75 82 86 83 89 91 90 92 97 96 90 90 83 86 81 73 64
73 71 71 76 86 90 95 97 96 87 83 70 40 40 41 59 69 79 78 82 88 81 77 71 78 77 78 84 85 83 88 99 92 90 88 97 90 79 71 84 83 79 75
74 67 75 78 84 93 96 97 98 99 86 68 52 47 52 74 73 74 68 82 86 80 84 86 89 87 78 87 85 83 85 77 99 93 94 86 80 83 81 62 66 73 80
76 74 81 84 88 93 98 98 98 98 84 76 63 62 72 78 72 81 86 89 89 98 100 91 91 94 94 92 88 88 90 94 87 94 80 91 99 94 94 88 72 59 65
78 78 82 85 90 92 91 90 93 99 97 98 97 90 94 98 76 86 97 98 100 99 100 100 98 99 100 99 96 96 98 100 97 91 90 93 94 93 92 94 84 80 70
80 83 85 88 92 94 89 83 82 89 100 99 98 100 98 99 99 96 93 98 94 99 99 99 97 96 97 96 95 100 99 100 99 100 100 94 93 95 90 88 85 83 74
79 84 86 91 93 93 90 77 70 65 74 92 98 100 89 84 98 95 94 88 94 84 78 68 72 76 81 82 86 93 94 92 98 99 99 99 100 100 100 96 91 92 89
81 84 87 91 93 92 94 85 71 60 54 55 63 68 76 75 63 54 57 56 58 55 44 40 38 39 46 49 57 63 67 67 82 83 82 91 91 82 94 95 99 98 96
84 83 86 90 90 91 88 80 73 71 57 47 44 42 40 41 43 37 37 38 39 39 37 37 39 35 39 42 45 44 49 48 55 66 66 73 75 78 85 95 95 91 99
85 85 85 87 88 88 78 73 66 58 51 51 50 47 46 45 41 40 42 43 41 39 39 39 39 42 44 49 51 51 56 56 57 58 63 71 83 81 92 75 83 97 98
83 85 85 83 80 72 69 58 52 49 46 44 44 46 47 47 48 46 41 34 34 37 35 35 36 36 39 41 47 49 52 53 58 63 64 70 74 90 78 70 96 94 96
84 87 87 85 74 68 55 52 43 44 43 43 43 43 42 42 43 41 38 35 35 36 37 37 37 38 39 39 45 45 54 52 49 52 57 59 64 72 58 89 84 96 94
73 72 69 65 56 49 42 40 40 40 42 43 43 42 40 38 38 37 36 36 37 38 39 38 39 39 40 39 45 51 59 60 54 51 53 55 59 61 62 86 82 90 91
63 61 61 56 44 44 46 42 40 40 39 38 38 37 35 35 36 37 37 36 38 40 41 44 45 46 44 41 54 65 72 69 63 58 60 64 59 56 66 65 72 78 82
56 55 54 49 47 42 43 43 42 41 41 38 36 37 35 36 38 40 41 42 44 46 47 50 51 52 52 55 58 66 74 73 68 66 65 67 64 58 60 69 83 82 79
53 54 51 49 47 45 42 44 45 44 40 40 39 36 37 40 42 44 46 48 50 51 53 55 57 57 57 61 64 68 74 71 72 69 66 64 61 58 62 77 76 76 75
49 51 48 45 46 45 44 46 48 43 41 41 39 38 41 44 47 48 50 52 56 58 59 60 60 61 62 66 68 71 75 73 71 66 60 58 56 56 60 72 72 73 73
45 45 40 44 47 47 44 48 49 44 42 41 41 44 47 49 51 51 52 55 59 60 60 61 60 60 59 59 66 69 77 76 71 63 58 56 55 57 64 71 72 72 68
43 44 45 47 48 44 43 45 42 41 41 41 44 48 51 52 51 51 51 56 58 59 58 58 56 55 55 52 58 65 73 79 77 74 69 66 61 58 64 70 72 84 77
46 48 49 49 45 41 42 42 40 41 41 43 45 50 51 50 50 51 52 55 54 54 53 54 54 54 55 56 61 65 68 70 73 76 73 71 68 66 70 74 76 80 80
54 53 52 47 43 43 43 44 43 41 41 46 51 50 49 50 52 52 54 54 55 55 58 60 61 63 63 64 66 69 70 70 77 78 78 77 78 79 76 73 75 74 76
57 54 50 48 48 48 46 42 39 41 46 51 50 50 51 52 54 56 59 58 60 63 65 64 65 69 75 74 74 72 72 74 75 79 79 82 87 87 83 80 74 73 71
56 49 47 49 48 46 44 40 42 44 48 49 52 52 54 57 57 57 58 59 63 65 67 72 79 83 82 81 79 78 82 82 83 84 86 98 88 79 77 74 73 78 69
51 46 46 46 44 42 42 43 46 50 51 54 53 54 56 57 60 61 61 64 66 69 72 77 82 80 85 85 82 81 80 80 81 78 88 88 85 86 85 82 78 71 69
50 47 46 42 38 41 43 48 50 51 56 58 59 60 63 63 64 63 64 68 72 72 74 75 77 78 77 75 79 82 80 75 74 78 84 89 92 87 87 89 79 76 79

GFSMW_925_rhum_117.txt.gz
RH
66 64 68 72 77 80 88 88 90 82 92 91 81 67 42 38 36 39 59 65 71 75 87 74 80 88 87 83 78 72 74 74 73 85 85 83 83 86 85 79 72 63 53
78 70 73 78 81 85 90 93 96 96 100 100 98 80 63 41 40 43 54 48 45 68 88 82 89 89 84 79 64 62 71 76 74 82 89 95 90 92 86 81 77 78 75
85 79 75 83 86 87 90 96 99 99 99 99 82 68 67 46 47 68 66 63 74 76 73 78 81 82 74 69 68 68 77 82 81 83 80 99 97 91 80 78 77 76 80
82 75 80 87 88 89 85 89 93 95 99 100 94 81 74 71 81 83 85 91 94 87 91 90 79 72 73 72 67 72 78 81 90 93 83 77 80 88 88 79 81 82 85
83 84 86 86 87 87 84 87 84 92 100 90 99 100 100 99 96 94 95 99 87 91 93 93 92 96 88 86 100 86 95 99 97 97 99 92 87 92 97 92 84 73 69
84 80 83 84 89 85 80 77 74 74 94 100 99 100 99 98 100 93 98 100 98 100 89 82 100 96 100 100 100 100 99 98 99 100 100 100 99 98 99 98 88 84 77
86 83 86 89 91 90 82 75 68 59 64 79 97 99 99 99 99 95 98 100 99 97 90 92 91 90 99 98 98 96 97 96 99 100 100 99 100 100 100 97 89 88 78
85 85 87 89 90 90 86 75 68 55 54 59 68 76 84 84 81 74 73 78 92 81 77 80 84 87 82 77 81 79 80 82 85 87 86 92 98 92 98 100 99 96 90
72 77 86 88 88 86 88 78 66 55 46 41 46 42 44 47 53 57 52 48 47 46 55 51 52 55 46 45 44 50 51 51 58 56 58 63 76 75 86 99 95 99 97
82 77 86 87 87 84 81 76 64 54 52 50 47 46 44 43 40 38 39 41 38 36 35 36 38 40 45 48 46 52 52 54 60 59 59 71 80 71 88 71 88 94 97
85 86 84 83 84 82 76 64 55 48 44 42 42 44 46 45 42 39 35 31 31 32 32 31 31 33 35 44 41 45 48 53 58 59 61 67 68 91 69 54 84 90 91
83 88 86 84 82 78 72 54 49 47 43 45 44 43 41 39 38 34 30 29 32 33 34 35 36 35 33 43 41 35 39 48 50 51 56 62 75 85 72 70 90 90 91
87 88 90 90 84 76 61 52 46 45 44 40 40 37 34 32 32 31 32 34 36 37 38 39 40 41 38 47 46 46 49 50 55 56 58 60 63 63 62 83 89 91 89
84 87 88 88 84 74 66 47 41 39 39 39 39 35 34 33 33 34 35 37 40 41 43 45 47 48 41 50 57 62 67 63 62 60 63 66 65 58 72 66 72 89 91
84 81 81 82 77 74 55 42 40 40 39 39 38 36 34 33 35 36 40 41 43 44 45 47 47 48 48 54 62 66 70 73 64 68 68 66 62 61 65 69 86 80 78
73 71 68 67 59 52 48 45 41 41 40 39 37 37 35 35 38 42 44 47 49 50 51 54 58 58 58 66 69 70 72 73 68 73 69 66 66 61 63 80 77 75 77
65 64 63 61 54 46 45 45 43 42 41 41 39 37 37 39 43 46 47 49 50 53 55 56 58 58 58 71 71 74 74 69 71 72 66 62 58 60 61 71 71 65 71
55 61 61 54 49 47 45 45 45 45 41 40 40 38 40 41 46 47 48 49 53 54 54 53 54 54 52 61 68 69 67 71 68 68 70 66 64 61 65 64 69 68 66
49 52 50 48 49 48 45 46 48 45 42 42 41 41 42 46 49 48 49 49 53 53 53 53 53 54 52 53 68 62 65 69 73 71 70 70 68 65 68 63 70 71 69
47 48 49 50 50 47 46 47 48 46 43 42 42 42 43 48 46 48 48 51 54 54 53 54 55 56 57 59 65 67 69 71 72 71 77 78 75 73 70 69 72 77 76
51 50 52 52 50 47 46 46 46 44 42 42 42 39 44 46 48 50 50 55 55 55 57 59 61 61 62 66 71 72 73 74 78 90 84 80 79 78 77 78 89 85 78
58 55 54 52 47 44 43 44 44 42 42 42 38 43 45 48 50 51 53 57 57 60 62 65 65 66 70 76 78 77 76 75 77 78 80 79 79 79 85 85 88 83 76
59 57 56 51 46 44 43 45 45 43 41 40 44 46 49 50 52 56 58 59 60 64 66 68 70 76 80 77 76 81 83 82 80 80 80 78 80 86 86 81 77 73 73
65 58 56 53 52 49 47 43 40 41 42 44 45 50 50 55 58 56 60 61 63 67 70 73 80 81 84 81 82 92 98 94 90 93 93 95 82 80 81 80 74 76 81
64 57 54 54 52 49 46 41 40 41 43 46 50 51 54 58 58 59 62 66 69 75 76 75 76 81 85 87 84 85 89 85 84 85 93 96 91 89 92 91 83 82 85
62 56 53 51 50 46 43 42 43 44 45 50 53 57 63 63 66 65 65 66 76 78 79 80 79 79 80 76 78 82 75 73 76 82 93 88 94 92 98 97 98 95 90

GFSMW_925_rhum_120.txt.gz
RH
73 69 72 73 76 77 84 85 95 96 100 97 98 98 87 71 59 42 42 45 54 61 57 59 71 85 92 82 72 72 79 85 86 88 82 81 86 91 87 82 90 96 86
81 74 76 76 84 84 85 88 99 98 97 100 100 100 93 71 67 60 60 64 62 56 53 69 87 99 100 98 94 95 93 88 81 88 93 94 93 100 93 89 81 82 86
84 83 79 82 86 85 86 88 87 96 99 100 100 100 82 77 80 81 86 95 95 100 96 89 85 94 99 100 100 97 93 87 80 79 77 98 96 94 91 88 65 68 83
82 84 82 84 88 84 84 77 72 87 99 98 98 100 100 99 100 100 97 100 99 99 100 99 88 90 90 100 99 92 84 92 89 97 86 88 90 91 90 78 82 72 86
83 86 85 83 86 84 84 70 66 66 80 90 94 98 98 100 100 99 99 99 100 99 98 100 100 91 98 88 100 94 97 89 83 92 96 99 96 98 98 96 90 84 76
83 84 83 85 83 83 78 72 61 63 71 78 84 87 92 100 95 95 99 99 91 89 92 96 100 100 96 77 89 97 100 99 99 100 100 100 99 99 99 98 94 92 86
84 88 88 88 85 85 79 65 49 49 48 53 60 68 68 74 74 79 91 81 81 73 78 75 80 87 97 100 84 84 100 97 99 99 99 100 99 100 100 99 97 97 86
86 88 85 87 87 83 81 67 56 49 44 38 38 39 39 47 51 59 68 62 57 56 63 75 66 64 69 76 87 88 94 97 88 82 78 87 79 81 99 100 97 96 89
84 80 82 86 87 84 82 73 70 55 51 49 47 44 43 40 39 39 40 39 36 36 33 44 51 53 56 64 68 71 73 69 59 62 73 80 79 88 80 61 81 95 95
83 84 83 85 83 82 78 73 62 52 49 44 42 42 41 38 35 30 28 30 30 31 30 30 28 30 41 40 44 46 53 55 59 60 60 60 75 91 57 70 79 83 90
87 88 84 79 78 79 79 67 59 48 43 41 42 39 36 35 33 29 28 28 30 30 31 34 34 35 42 43 36 41 42 46 50 60 57 68 70 78 64 62 81 81 90
85 88 82 81 83 81 78 66 48 45 41 42 43 41 37 33 30 31 35 36 38 39 36 36 36 36 43 50 49 50 50 50 54 62 61 64 70 62 62 85 91 81 87
87 88 87 88 86 82 75 63 53 44 44 42 40 37 34 33 31 32 34 37 41 41 43 47 46 43 48 56 60 61 58 52 59 62 69 68 63 61 75 73 74 92 94
81 84 87 88 86 82 75 66 54 45 41 41 40 38 34 33 32 34 37 40 44 45 46 48 48 48 49 58 65 69 69 63 56 65 68 68 65 68 68 70 85 80 72
88 85 85 87 85 84 78 69 57 43 40 39 40 38 35 34 34 36 40 42 44 45 47 48 50 51 52 71 73 73 73 70 66 68 70 68 65 66 67 82 78 69 74
77 79 80 80 82 82 80 74 56 42 40 39 39 37 36 36 36 39 41 42 43 46 48 49 52 51 53 76 75 76 74 67 67 70 68 63 62 67 75 77 71 71 71
67 76 79 76 73 70 64 64 49 42 41 41 40 39 38 39 38 41 41 43 46 50 50 52 54 54 54 73 73 74 70 68 69 69 68 69 65 62 64 69 78 70 66
59 68 72 69 64 59 57 51 47 43 43 42 41 40 40 41 41 44 45 46 50 52 53 54 55 55 53 71 71 68 64 68 70 72 70 71 72 70 73 71 72 72 71
56 53 49 53 59 57 53 48 47 45 45 43 41 41 42 40 44 44 46 47 54 54 55 56 56 58 57 66 69 71 71 71 72 72 72 78 82 78 75 73 73 74 74
50 48 46 53 57 55 50 48 49 48 46 43 42 42 43 41 42 44 48 50 56 54 54 56 59 62 60 65 75 78 76 76 75 81 87 82 80 78 76 78 78 79 78
50 49 51 53 53 54 51 50 51 52 47 43 42 43 40 40 41 47 50 52 55 55 58 60 63 64 67 69 80 80 79 78 79 82 79 76 77 75 76 78 80 93 97
57 56 57 57 55 51 50 52 53 48 44 43 43 41 39 41 48 50 50 56 58 59 61 64 66 69 75 73 80 81 82 80 81 82 81 80 83 86 85 84 88 78 75
61 60 58 57 54 51 50 50 47 44 44 44 42 39 40 45 50 54 56 58 59 63 67 71 74 78 77 75 75 86 91 89 86 85 87 83 84 85 84 84 80 76 78
66 62 64 60 55 49 47 46 46 45 44 42 41 40 45 49 56 58 58 62 64 70 74 78 80 78 82 80 82 92 97 97 90 89 92 96 86 84 83 80 83 84 85
59 66 66 62 55 50 48 47 45 43 43 43 40 45 51 53 58 59 61 66 70 75 80 81 83 84 85 83 81 82 90 87 88 92 97 91 90 89 92 89 87 94 98
60 70 67 63 58 53 52 48 43 42 42 43 45 50 53 60 62 65 64 63 72 82 83 85 83 82 81 80 79 80 81 83 87 88 82 79 83 88 91 88 86 82 86

GFSMW_925_rhum_123.txt.gz
RH
73 73 73 74 75 72 78 79 82 97 94 96 97 98 99 84 73 77 83 78 77 79 82 95 99 85 83 83 99 100 100 100 97 100 100 100 99 94 90 84 80 89 95
76 76 75 76 79 78 81 78 78 93 92 90 98 99 100 95 100 97 100 100 98 99 98 98 99 100 96 93 91 97 100 100 94 87 94 98 98 100 93 91 85 81 88
77 81 78 80 81 79 82 77 71 85 98 98 98 98 97 95 98 98 98 98 98 97 89 94 98 99 100 99 94 98 99 99 96 90 87 99 94 96 99 99 100 96 91
77 82 81 81 81 80 82 72 66 72 86 95 98 98 99 100 99 90 96 98 86 87 86 93 98 99 100 100 100 99 99 100 99 100 97 96 86 94 91 94 100 100 96
82 85 82 83 79 82 80 73 62 69 72 80 86 91 98 92 84 78 77 80 72 70 74 84 96 98 100 100 100 99 97 100 99 98 96 100 99 98 95 95 90 88 85
84 84 82 84 81 81 80 66 50 48 56 60 64 64 67 73 72 75 70 70 66 60 66 72 72 73 96 100 100 100 92 95 92 96 99 92 93 99 99 99 96 93 80
85 87 88 86 83 81 79 60 46 40 38 39 37 41 46 48 53 57 58 48 56 54 61 67 74 78 72 76 92 99 100 91 87 91 92 96 99 100 100 100 97 97 90
86 88 86 84 84 80 79 73 59 48 48 46 46 44 42 40 41 44 44 41 36 37 36 50 73 84 83 64 67 73 80 86 97 90 90 98 99 99 97 100 96 96 92
85 87 82 82 83 82 77 79 70 59 53 49 47 44 42 39 36 31 30 32 32 33 32 34 36 51 55 66 60 62 70 70 72 83 80 91 99 82 72 72 82 93 95
84 87 83 79 80 79 76 76 74 59 50 44 44 43 41 37 30 26 25 27 31 31 30 31 36 39 43 38 40 42 52 60 65 63 68 75 97 66 57 86 85 87 92
83 84 83 74 76 77 79 79 68 60 50 45 43 40 38 34 29 26 28 31 34 37 38 38 37 36 48 48 43 46 45 49 56 57 64 83 71 56 52 72 79 73 90
78 84 81 76 77 77 77 78 72 53 44 41 42 40 36 32 30 29 31 34 36 38 40 43 43 45 59 60 63 58 48 54 60 67 69 66 60 59 72 87 70 83 91
79 85 86 85 81 78 76 75 73 57 45 43 40 38 35 33 31 31 34 38 39 38 36 39 44 46 51 60 67 68 65 56 60 70 68 70 64 70 70 73 88 80 75
76 82 88 85 82 76 76 75 71 62 51 45 42 40 37 33 32 32 36 39 42 44 44 44 45 46 48 70 75 74 70 59 62 66 68 68 69 79 68 81 78 68 65
67 84 84 85 84 81 76 76 74 66 53 43 42 40 38 35 34 34 37 40 41 44 50 52 51 50 53 77 77 77 74 66 65 67 66 64 69 71 78 76 76 70 68
52 67 84 85 86 82 79 75 71 70 60 43 41 41 38 37 37 36 39 40 40 43 43 45 50 52 54 80 76 77 74 67 67 68 65 65 66 64 62 75 80 75 71
50 58 72 82 82 80 72 73 66 68 64 44 42 41 39 38 39 38 40 39 41 45 48 51 53 53 54 79 74 74 67 69 72 74 73 72 71 71 67 68 74 79 79
54 59 65 67 66 69 72 66 66 68 64 44 43 42 40 39 41 39 39 38 42 47 49 51 55 56 57 75 73 78 72 72 72 72 73 76 80 81 82 77 75 72 71
53 52 48 49 50 56 63 67 65 61 50 45 45 43 41 41 41 39 39 43 45 50 50 54 57 60 61 64 77 79 78 75 74 75 82 88 83 81 78 77 76 80 80
50 49 45 48 52 50 64 66 62 54 48 45 46 43 42 43 38 38 42 45 48 53 54 55 59 63 63 63 79 82 81 79 78 78 80 74 78 76 75 76 77 90 89
47 45 49 52 50 54 62 63 60 53 47 47 46 44 44 42 38 40 45 46 50 54 54 58 60 63 66 72 82 83 82 82 82 82 80 77 82 80 79 79 84 86 84
49 49 57 54 53 56 60 60 57 50 49 49 46 45 44 39 40 43 46 49 55 58 58 63 65 69 73 73 77 85 84 82 81 84 80 80 88 86 78 82 84 79 75
52 52 60 58 57 57 58 58 53 52 52 49 46 45 41 39 42 46 50 55 58 60 62 70 74 78 77 79 75 88 91 89 89 89 86 82 84 87 88 85 80 78 82
56 55 65 68 62 57 56 54 53 51 48 47 46 44 40 41 46 50 57 56 58 62 69 74 83 84 86 82 79 84 86 90 92 86 88 97 91 84 78 76 78 80 87
55 58 67 70 64 59 54 54 50 48 48 47 45 43 40 50 53 57 56 57 58 66 70 84 84 88 89 84 85 78 83 84 84 83 95 85 75 79 83 89 90 87 86
59 61 64 71 67 62 56 51 49 48 47 47 46 41 43 49 54 59 60 59 75 82 84 85 85 83 85 84 80 81 76 80 88 92 79 81 83 89 91 93 94 93 89